[[{"header":{"parameterUnit":"m.s-1","parameterCategory":1,"la1":30.6,"la2":29.2853,"lo1":-89.7004,"lo2":-87.6739,"dy":0.0162,"dx":0.0183,"nx":112,"ny":82,"refTime":"2025-07-07T00:00:00:Z","depth":0,"parameterNumber":2,"parameterNumberName":"U-component_of_WINDS"},"data":[0.0,0.0,0.0,0.0,0.0,0.0,0.0,0.0,0.0,0.0,0.0,0.0,0.0,0.0,0.0,0.0,0.0,0.0,0.0,0.0,0.0,0.0,0.0,0.0,0.0,0.0,0.0,0.0,0.0,0.0,0.0,0.0,0.0,0.0,0.0,0.0,0.0,0.0,0.0,0.0,0.0,0.0,0.0,0.0,0.0,0.0,0.0,0.0,0.0,0.0,0.0,0.0,0.0,0.0,0.0,0.0,0.0,0.0,0.0,0.0,0.0,0.0,0.0,0.0,0.0,0.0,0.0,0.0,0.0,0.0,0.0,0.0,0.0,0.0,0.0,0.0,0.0,0.0,0.0,0.0,0.0,0.0,0.0,0.0,0.0,0.0,0.0,0.0,0.0,0.0,-2.4927,-2.4364,-2.4302,-2.4302,-2.4302,-2.3384,-2.2785,-2.2694,0.0,0.0,0.0,0.0,0.0,0.0,0.0,0.0,0.0,0.0,0.0,0.0,0.0,0.0,0.0,0.0,0.0,0.0,0.0,0.0,0.0,0.0,0.0,0.0,0.0,0.0,0.0,0.0,0.0,0.0,0.0,0.0,0.0,0.0,0.0,0.0,0.0,0.0,0.0,0.0,0.0,0.0,0.0,0.0,0.0,0.0,0.0,0.0,0.0,0.0,0.0,0.0,0.0,0.0,0.0,0.0,0.0,0.0,0.0,0.0,0.0,0.0,0.0,0.0,0.0,0.0,0.0,0.0,0.0,0.0,0.0,0.0,0.0,0.0,0.0,0.0,0.0,0.0,0.0,0.0,0.0,0.0,0.0,0.0,0.0,0.0,0.0,0.0,0.0,0.0,0.0,0.0,0.0,0.0,0.0,0.0,0.0,0.0,0.0,0.0,0.0,0.0,0.0,0.0,-2.4425,-2.4317,-2.4302,-2.4302,-2.4302,-2.3681,-2.312,-2.2717,0.0,0.0,0.0,0.0,0.0,0.0,0.0,0.0,0.0,0.0,0.0,0.0,0.0,0.0,0.0,0.0,0.0,0.0,0.0,0.0,0.0,0.0,0.0,0.0,0.0,0.0,0.0,0.0,0.0,0.0,0.0,0.0,0.0,0.0,0.0,0.0,0.0,0.0,0.0,0.0,0.0,0.0,0.0,0.0,0.0,0.0,0.0,0.0,0.0,0.0,0.0,0.0,0.0,0.0,0.0,0.0,0.0,0.0,0.0,0.0,0.0,0.0,0.0,0.0,0.0,0.0,0.0,0.0,0.0,0.0,0.0,0.0,0.0,0.0,0.0,0.0,0.0,0.0,0.0,0.0,0.0,0.0,0.0,0.0,0.0,0.0,0.0,0.0,0.0,0.0,0.0,0.0,0.0,0.0,0.0,0.0,0.0,0.0,0.0,0.0,0.0,0.0,0.0,-2.4302,-2.4302,-2.4302,-2.4255,-2.425,-2.425,-2.3377,-2.2703,-2.2512,-2.141,0.0,0.0,0.0,0.0,0.0,0.0,0.0,0.0,0.0,0.0,0.0,0.0,0.0,0.0,0.0,0.0,0.0,0.0,0.0,0.0,0.0,0.0,0.0,0.0,0.0,0.0,0.0,0.0,0.0,0.0,0.0,0.0,0.0,0.0,0.0,0.0,0.0,0.0,0.0,0.0,0.0,0.0,0.0,0.0,0.0,0.0,0.0,0.0,0.0,0.0,0.0,0.0,0.0,0.0,0.0,0.0,0.0,0.0,0.0,0.0,0.0,0.0,0.0,0.0,0.0,0.0,0.0,0.0,0.0,0.0,0.0,0.0,0.0,0.0,0.0,0.0,0.0,0.0,0.0,0.0,0.0,0.0,0.0,0.0,0.0,0.0,0.0,0.0,0.0,0.0,0.0,0.0,0.0,0.0,0.0,0.0,0.0,0.0,0.0,0.0,0.0,0.0,-2.4302,-2.4281,-2.4276,-2.4229,-2.4145,-2.3982,-2.2942,-2.2244,-2.2142,-2.124,0.0,0.0,0.0,0.0,0.0,0.0,0.0,0.0,0.0,0.0,0.0,0.0,0.0,0.0,0.0,0.0,0.0,0.0,0.0,0.0,0.0,0.0,0.0,0.0,0.0,0.0,0.0,0.0,0.0,0.0,0.0,0.0,0.0,0.0,0.0,0.0,0.0,0.0,0.0,0.0,0.0,0.0,0.0,0.0,0.0,0.0,0.0,0.0,0.0,0.0,0.0,0.0,0.0,0.0,0.0,0.0,0.0,0.0,0.0,0.0,0.0,0.0,0.0,0.0,0.0,0.0,0.0,0.0,0.0,0.0,0.0,0.0,0.0,0.0,0.0,0.0,0.0,0.0,0.0,0.0,0.0,0.0,0.0,0.0,0.0,0.0,0.0,0.0,0.0,0.0,0.0,0.0,0.0,0.0,0.0,0.0,0.0,0.0,0.0,0.0,0.0,0.0,-2.4302,-2.4276,-2.4208,-2.4187,-2.3961,-2.3319,-2.268,-2.2119,-2.1674,-2.1033,0.0,0.0,0.0,0.0,0.0,0.0,0.0,0.0,0.0,0.0,0.0,0.0,0.0,0.0,0.0,0.0,0.0,0.0,0.0,0.0,0.0,0.0,0.0,0.0,0.0,0.0,0.0,0.0,0.0,0.0,0.0,0.0,0.0,0.0,0.0,0.0,0.0,0.0,0.0,0.0,0.0,0.0,0.0,0.0,0.0,0.0,0.0,0.0,0.0,0.0,0.0,0.0,0.0,0.0,0.0,0.0,0.0,0.0,0.0,0.0,0.0,0.0,0.0,0.0,0.0,0.0,0.0,0.0,0.0,0.0,0.0,0.0,0.0,0.0,0.0,0.0,0.0,0.0,0.0,0.0,0.0,0.0,0.0,0.0,0.0,0.0,0.0,0.0,0.0,0.0,0.0,0.0,0.0,0.0,0.0,0.0,0.0,0.0,0.0,0.0,0.0,0.0,-2.4109,-2.3967,-2.3616,-2.3545,-2.3282,-2.268,-2.2095,-2.166,-2.1496,0.0,0.0,0.0,0.0,0.0,0.0,0.0,0.0,0.0,0.0,0.0,0.0,0.0,0.0,0.0,0.0,0.0,0.0,0.0,0.0,0.0,0.0,0.0,0.0,0.0,0.0,0.0,0.0,0.0,0.0,0.0,0.0,0.0,0.0,0.0,0.0,0.0,0.0,0.0,0.0,0.0,0.0,0.0,0.0,0.0,0.0,0.0,0.0,0.0,0.0,0.0,0.0,0.0,0.0,0.0,0.0,0.0,0.0,0.0,0.0,0.0,0.0,0.0,0.0,0.0,0.0,0.0,0.0,0.0,0.0,0.0,0.0,0.0,0.0,0.0,0.0,0.0,0.0,0.0,0.0,0.0,0.0,0.0,0.0,0.0,0.0,0.0,0.0,0.0,0.0,0.0,0.0,0.0,0.0,0.0,0.0,0.0,0.0,0.0,0.0,0.0,0.0,-2.3515,-2.3523,-2.3377,-2.2972,-2.2875,-2.2603,-2.2049,-2.165,-2.1245,-2.0912,0.0,0.0,0.0,0.0,0.0,0.0,0.0,0.0,0.0,0.0,0.0,0.0,0.0,0.0,0.0,0.0,0.0,0.0,0.0,0.0,0.0,0.0,0.0,0.0,0.0,0.0,0.0,0.0,0.0,0.0,0.0,0.0,0.0,0.0,0.0,0.0,0.0,0.0,0.0,0.0,0.0,0.0,0.0,0.0,0.0,0.0,0.0,0.0,0.0,0.0,0.0,0.0,0.0,0.0,0.0,0.0,0.0,0.0,0.0,0.0,0.0,0.0,0.0,0.0,0.0,0.0,0.0,0.0,0.0,0.0,0.0,0.0,0.0,0.0,0.0,0.0,0.0,0.0,0.0,0.0,0.0,0.0,0.0,0.0,0.0,0.0,0.0,0.0,0.0,0.0,0.0,0.0,0.0,0.0,0.0,0.0,0.0,0.0,0.0,0.0,0.0,0.0,-2.2426,-2.2512,-2.2443,-2.2291,-2.2291,-2.2049,-2.1434,-2.1399,-2.0938,0.0,0.0,0.0,0.0,0.0,0.0,0.0,0.0,0.0,0.0,0.0,0.0,0.0,0.0,0.0,0.0,0.0,0.0,0.0,0.0,0.0,0.0,0.0,0.0,0.0,0.0,0.0,0.0,0.0,0.0,0.0,0.0,0.0,0.0,0.0,0.0,0.0,0.0,0.0,0.0,0.0,0.0,0.0,0.0,0.0,0.0,0.0,0.0,0.0,0.0,0.0,0.0,0.0,0.0,0.0,0.0,0.0,0.0,0.0,0.0,0.0,0.0,0.0,0.0,0.0,0.0,0.0,0.0,0.0,0.0,0.0,0.0,0.0,0.0,0.0,0.0,0.0,0.0,0.0,0.0,0.0,0.0,0.0,0.0,0.0,0.0,0.0,0.0,0.0,0.0,0.0,0.0,0.0,0.0,0.0,0.0,0.0,0.0,0.0,0.0,0.0,0.0,0.0,-2.216,-2.2221,-2.2072,-2.1708,-2.1674,-2.1458,-2.0947,-2.0923,-2.0782,-2.0438,0.0,0.0,0.0,0.0,0.0,0.0,0.0,0.0,0.0,0.0,0.0,0.0,0.0,0.0,0.0,0.0,0.0,0.0,0.0,0.0,0.0,0.0,0.0,0.0,0.0,0.0,0.0,0.0,0.0,0.0,0.0,0.0,0.0,0.0,0.0,0.0,0.0,0.0,0.0,0.0,0.0,0.0,0.0,0.0,0.0,0.0,0.0,0.0,0.0,0.0,0.0,0.0,0.0,0.0,0.0,0.0,0.0,0.0,0.0,0.0,0.0,0.0,0.0,0.0,0.0,0.0,0.0,0.0,0.0,0.0,0.0,0.0,0.0,0.0,0.0,0.0,0.0,0.0,0.0,0.0,0.0,0.0,0.0,0.0,0.0,0.0,0.0,0.0,0.0,0.0,0.0,0.0,0.0,0.0,0.0,0.0,0.0,0.0,0.0,0.0,0.0,0.0,-2.1441,-2.1527,-2.142,-2.1155,-2.1106,-2.1021,-2.0724,-2.0699,-2.0607,-2.036,0.0,0.0,0.0,0.0,0.0,0.0,0.0,0.0,0.0,0.0,0.0,0.0,0.0,0.0,0.0,0.0,0.0,0.0,0.0,0.0,0.0,0.0,0.0,0.0,0.0,0.0,0.0,0.0,0.0,0.0,0.0,0.0,0.0,0.0,0.0,0.0,0.0,0.0,0.0,0.0,0.0,0.0,0.0,0.0,0.0,0.0,0.0,0.0,0.0,0.0,0.0,0.0,0.0,0.0,0.0,0.0,0.0,0.0,0.0,0.0,0.0,0.0,0.0,0.0,0.0,0.0,0.0,0.0,0.0,0.0,0.0,0.0,0.0,0.0,0.0,0.0,0.0,0.0,0.0,0.0,0.0,0.0,0.0,0.0,0.0,0.0,0.0,0.0,0.0,0.0,0.0,0.0,0.0,0.0,0.0,0.0,0.0,0.0,0.0,0.0,0.0,0.0,-2.0608,-2.0777,-2.0777,-2.0777,-2.0777,-2.0739,-2.0712,-2.0699,-2.044,-1.9845,0.0,0.0,0.0,0.0,0.0,0.0,0.0,0.0,0.0,0.0,0.0,0.0,0.0,0.0,0.0,0.0,0.0,0.0,0.0,0.0,0.0,0.0,0.0,0.0,0.0,0.0,0.0,0.0,0.0,0.0,0.0,0.0,0.0,0.0,0.0,0.0,0.0,0.0,0.0,0.0,0.0,0.0,0.0,0.0,0.0,0.0,0.0,0.0,0.0,0.0,0.0,0.0,0.0,0.0,0.0,0.0,0.0,0.0,0.0,0.0,-2.3717,-2.3696,0.0,0.0,0.0,0.0,0.0,0.0,0.0,0.0,0.0,0.0,0.0,0.0,0.0,0.0,0.0,0.0,0.0,0.0,0.0,0.0,0.0,0.0,0.0,0.0,0.0,0.0,0.0,0.0,0.0,0.0,0.0,0.0,0.0,0.0,0.0,0.0,0.0,0.0,0.0,0.0,-2.1185,-2.1328,-2.1328,-2.1328,-2.1328,-2.1171,-2.0738,-2.0699,-2.0434,-1.9851,-1.9246,0.0,0.0,0.0,0.0,0.0,0.0,0.0,0.0,0.0,0.0,0.0,0.0,0.0,0.0,0.0,0.0,0.0,0.0,0.0,0.0,0.0,0.0,0.0,0.0,0.0,0.0,0.0,0.0,0.0,0.0,0.0,0.0,0.0,0.0,0.0,0.0,0.0,0.0,0.0,0.0,0.0,0.0,0.0,0.0,0.0,0.0,0.0,0.0,0.0,0.0,0.0,0.0,0.0,0.0,0.0,0.0,0.0,0.0,0.0,-2.4147,-2.3953,0.0,0.0,0.0,0.0,0.0,0.0,0.0,0.0,0.0,0.0,0.0,0.0,0.0,0.0,0.0,0.0,0.0,0.0,0.0,0.0,0.0,0.0,0.0,0.0,0.0,0.0,0.0,0.0,0.0,0.0,0.0,0.0,0.0,0.0,0.0,0.0,0.0,0.0,0.0,0.0,-2.1394,-2.176,-2.1838,-2.1538,-2.1511,-2.1173,-2.0347,-2.0283,-2.0016,-1.9448,-1.8638,0.0,0.0,0.0,0.0,0.0,0.0,0.0,0.0,0.0,0.0,0.0,0.0,0.0,0.0,0.0,0.0,0.0,0.0,0.0,0.0,0.0,0.0,0.0,0.0,0.0,0.0,0.0,0.0,0.0,0.0,0.0,0.0,0.0,0.0,0.0,0.0,0.0,0.0,0.0,0.0,0.0,0.0,0.0,0.0,0.0,0.0,0.0,0.0,0.0,0.0,0.0,0.0,0.0,-2.563,-2.5899,-2.5764,-2.5187,-2.4829,-2.4619,-2.4724,-2.438,-2.3834,-2.45,0.0,0.0,0.0,0.0,0.0,0.0,0.0,0.0,0.0,0.0,0.0,0.0,0.0,0.0,0.0,0.0,0.0,0.0,0.0,0.0,0.0,0.0,-2.1668,-2.1407,-2.1368,-2.1157,-2.0298,0.0,0.0,0.0,0.0,0.0,0.0,0.0,0.0,0.0,0.0,0.0,-2.159,-2.2178,-2.2322,-2.1721,-2.1564,-2.103,-1.99,-1.971,-1.9415,-1.8869,-1.8028,-1.7481,0.0,0.0,0.0,0.0,0.0,0.0,0.0,0.0,0.0,0.0,0.0,0.0,0.0,0.0,0.0,0.0,0.0,0.0,0.0,0.0,0.0,0.0,0.0,0.0,0.0,0.0,0.0,0.0,0.0,0.0,0.0,0.0,-2.2492,-2.3621,0.0,0.0,0.0,0.0,0.0,0.0,0.0,0.0,0.0,0.0,0.0,0.0,0.0,-2.4784,-2.447,-2.5794,-2.6422,-2.6333,-2.7031,-2.7046,-2.6452,-2.6378,-2.5704,-2.4634,-2.5217,0.0,-2.4515,-2.5187,0.0,0.0,0.0,0.0,0.0,0.0,0.0,0.0,0.0,0.0,0.0,0.0,0.0,0.0,0.0,0.0,0.0,0.0,0.0,0.0,0.0,0.0,-2.2313,-2.1116,-2.088,-2.0904,-2.0658,-2.0962,-2.1263,-2.1185,-2.1237,-2.1106,0.0,0.0,0.0,0.0,0.0,0.0,-2.2205,-2.2753,-2.2884,-2.2336,-2.1799,-2.103,-1.99,-1.9321,-1.8804,-1.8259,-1.8089,-1.7795,-1.7346,-1.6781,0.0,0.0,0.0,0.0,0.0,0.0,0.0,0.0,0.0,0.0,0.0,0.0,0.0,0.0,0.0,0.0,0.0,0.0,0.0,0.0,0.0,0.0,0.0,0.0,0.0,0.0,0.0,0.0,0.0,-2.2362,-2.3589,-2.4564,-2.4796,-2.4727,0.0,0.0,0.0,0.0,0.0,0.0,0.0,0.0,0.0,-2.4784,-2.5012,-2.4991,-2.4732,-2.5967,-2.6587,-2.6602,-2.7285,-2.745,-2.7151,-2.6752,-2.6273,-2.5749,-2.6033,-2.6004,-2.5719,-2.5621,-2.5435,-2.5113,0.0,0.0,0.0,0.0,-2.2953,-2.2449,-2.2484,-2.2329,-2.2058,-2.1789,0.0,0.0,0.0,0.0,0.0,0.0,0.0,-2.1524,-2.1524,-2.1773,-2.1917,-2.1315,-2.1197,-2.1222,-2.1171,-2.1328,-2.142,-2.1119,-2.1577,-2.1734,-2.0856,-2.1223,0.0,0.0,0.0,-2.2557,-2.2818,-2.3354,-2.3498,-2.2897,-2.2037,-2.0941,-1.9522,-1.8813,-1.8096,-1.7252,-1.7466,-1.7534,-1.7306,-1.706,-1.6809,0.0,0.0,0.0,0.0,0.0,0.0,0.0,0.0,0.0,0.0,0.0,0.0,0.0,0.0,0.0,0.0,0.0,0.0,0.0,0.0,0.0,0.0,0.0,0.0,0.0,0.0,0.0,0.0,-2.3539,-2.4647,-2.5447,-2.5731,-2.573,0.0,0.0,0.0,0.0,0.0,0.0,-2.5848,-2.5783,-2.544,-2.4792,-2.5364,-2.5559,-2.5265,-2.6321,-2.6866,-2.6866,-2.736,-2.76,-2.7585,-2.7091,-2.6752,-2.6587,-2.6587,-2.6587,-2.6557,-2.6243,-2.6019,-2.5785,-2.5152,-2.4546,-2.4036,-2.3426,-2.2818,-2.237,-2.2376,-2.2297,-2.2114,-2.1772,-2.1661,-2.1559,-2.1062,0.0,0.0,0.0,0.0,-2.1001,-2.1407,-2.1538,-2.1524,-2.1393,-2.1354,-2.1354,-2.1354,-2.1328,-2.1211,-2.0962,-2.159,-2.1904,-2.104,-2.1603,0.0,-2.1759,-2.2583,-2.3182,-2.3182,-2.3589,-2.3603,-2.3008,-2.1923,-2.0613,-1.9144,-1.8445,-1.7673,-1.6759,-1.7071,-1.7306,-1.7306,-1.7306,-1.7092,-1.6721,0.0,0.0,0.0,0.0,0.0,0.0,0.0,0.0,0.0,0.0,0.0,0.0,0.0,0.0,0.0,0.0,0.0,0.0,0.0,0.0,0.0,0.0,0.0,0.0,0.0,0.0,0.0,0.0,0.0,-2.618,-2.6436,0.0,0.0,0.0,0.0,-2.5447,-2.5583,-2.5705,-2.5719,-2.5469,-2.5315,-2.5272,-2.609,-2.6546,-2.6522,-2.7195,-2.754,-2.754,-2.7585,-2.76,-2.76,-2.757,-2.721,-2.6587,-2.6587,-2.6587,-2.6632,-2.7255,-2.7121,-2.6479,-2.5887,-2.5245,-2.4609,-2.4128,-2.3554,-2.3056,-2.3132,-2.2809,-2.2377,-2.235,-2.235,-2.2244,-2.1642,-2.1472,0.0,0.0,-2.1472,-2.1472,-2.1498,-2.159,-2.1561,-2.1059,-2.0941,-2.0941,-2.0941,-2.0814,-2.087,-2.1368,-2.1511,-2.1538,-2.1472,0.0,-2.1734,-2.2283,-2.2858,-2.3182,-2.3182,-2.3173,-2.2904,-2.2293,-2.1169,-1.9996,-1.8918,-1.8324,-1.7776,-1.729,-1.7295,-1.7306,-1.7306,-1.7306,-1.7295,-1.7273,-1.6787,0.0,0.0,0.0,0.0,0.0,0.0,0.0,0.0,0.0,0.0,0.0,0.0,0.0,0.0,0.0,0.0,0.0,0.0,0.0,0.0,0.0,0.0,0.0,0.0,0.0,0.0,0.0,0.0,-2.598,-2.64,0.0,-2.5771,-2.6231,-2.6317,-2.5702,-2.611,-2.6176,-2.5658,-2.5946,-2.6024,-2.5749,-2.5968,-2.6288,-2.6723,-2.6876,-2.718,-2.76,-2.76,-2.76,-2.76,-2.76,-2.7465,-2.724,-2.724,-2.724,-2.723,-2.7074,-2.6876,-2.6601,-2.5959,-2.5132,-2.4246,-2.3647,-2.3098,-2.2657,-2.2678,-2.2558,-2.2388,-2.2414,-2.24,-2.2374,-2.2152,-2.2087,-2.2087,-2.2086,-2.2086,-2.2086,-2.2087,-2.1839,-2.1511,-2.1315,-2.1012,-2.0762,-2.0762,-2.0737,-2.0857,-2.1407,-2.1799,-2.1969,-2.1577,-2.2412,-2.3104,-2.2934,-2.3391,-2.3628,-2.3195,-2.3111,-2.2862,-2.2213,-2.1086,-2.0122,-1.9437,-1.8526,-1.7794,-1.7328,-1.7306,-1.7306,-1.7306,-1.7306,-1.7306,-1.7306,-1.7092,-1.6841,0.0,0.0,0.0,0.0,0.0,0.0,0.0,0.0,0.0,0.0,0.0,0.0,0.0,0.0,0.0,0.0,0.0,0.0,0.0,0.0,0.0,0.0,0.0,0.0,0.0,-2.4767,-2.5325,-2.585,-2.6243,-2.6279,-2.5717,-2.6297,-2.6483,-2.597,-2.6385,-2.6422,-2.5901,-2.6332,-2.6466,-2.6195,-2.635,-2.6618,-2.7079,-2.698,-2.7165,-2.76,-2.76,-2.76,-2.76,-2.76,-2.76,-2.76,-2.7382,-2.7306,-2.7255,-2.6642,-2.6297,-2.6067,-2.5641,-2.5046,-2.434,-2.3688,-2.3239,-2.2975,-2.2962,-2.2977,-2.2977,-2.2975,-2.296,-2.2949,-2.2714,-2.2676,-2.2637,-2.2439,-2.24,-2.2387,-2.2388,-2.214,-2.1812,-2.1616,-2.1301,-2.1038,-2.1038,-2.1,-2.1055,-2.1404,-2.1809,-2.2073,-2.2086,-2.3013,-2.3647,-2.3238,-2.3505,-2.3501,-2.2847,-2.2573,-2.2267,-2.1803,-2.0876,-2.0115,-1.9637,-1.8759,-1.8032,-1.7562,-1.7394,-1.7306,-1.7306,-1.7306,-1.7306,-1.7306,-1.7306,-1.7027,-1.6487,0.0,0.0,0.0,0.0,0.0,0.0,0.0,0.0,0.0,0.0,0.0,0.0,0.0,0.0,0.0,0.0,0.0,0.0,0.0,0.0,0.0,0.0,0.0,-2.431,-2.4984,-2.5497,-2.5826,-2.5995,-2.587,-2.5266,-2.6243,-2.6707,-2.6242,-2.6348,-2.643,-2.6408,-2.6553,-2.6641,-2.6641,-2.727,-2.76,-2.76,-2.76,-2.76,-2.76,-2.76,-2.76,-2.76,-2.76,-2.76,-2.7549,-2.6945,-2.6709,-2.6616,-2.6014,-2.5481,-2.5005,-2.5005,-2.4977,-2.4892,-2.4316,-2.4083,-2.4083,-2.4083,-2.4083,-2.4083,-2.4083,-2.4083,-2.3979,-2.3391,-2.3221,-2.3132,-2.2597,-2.244,-2.244,-2.244,-2.2535,-2.2471,-2.1878,-2.1706,-2.168,-2.168,-2.155,-2.1457,-2.137,-2.1434,-2.1837,-2.2944,-2.3139,-2.3134,-2.3072,-2.3088,0.0,-2.2175,-2.1491,-2.1092,-2.106,-2.0485,-1.9922,-1.9453,-1.8982,-1.8501,-1.8054,-1.7562,-1.7317,-1.7328,-1.7317,-1.7306,-1.7306,-1.7306,-1.7038,-1.6509,0.0,0.0,0.0,0.0,0.0,0.0,0.0,0.0,0.0,0.0,0.0,0.0,0.0,0.0,0.0,0.0,0.0,0.0,0.0,0.0,0.0,-2.356,-2.4005,-2.4611,-2.489,-2.5059,-2.5173,-2.5666,-2.5898,-2.5602,-2.6281,-2.6679,-2.6492,-2.6874,-2.6995,-2.6699,-2.7191,-2.7445,-2.733,-2.7495,-2.76,-2.76,-2.76,-2.76,-2.76,-2.76,-2.76,-2.76,-2.76,-2.7357,-2.6945,-2.6774,-2.6457,-2.6014,-2.5453,-2.5132,-2.5005,-2.5005,-2.4734,-2.4345,-2.4171,-2.4083,-2.4083,-2.4083,-2.4083,-2.4083,-2.4083,-2.4083,-2.4057,-2.3887,-2.3848,-2.3809,-2.3681,-2.3629,-2.3629,-2.3629,-2.3343,-2.2977,-2.2847,-2.2166,-2.1459,-2.1065,-2.0866,-2.0763,-2.0742,-2.1088,-2.1456,-2.178,-2.2124,-2.2402,-2.2384,-2.2378,-2.2132,-2.1459,-2.1219,-2.0912,-2.0421,-2.0205,-2.0063,-1.9922,-1.9179,-1.8632,-1.8512,-1.7766,-1.7459,-1.7791,-1.7492,-1.7306,-1.7306,-1.7306,-1.724,0.0,0.0,0.0,0.0,0.0,0.0,0.0,0.0,0.0,0.0,0.0,0.0,0.0,0.0,0.0,0.0,0.0,0.0,0.0,0.0,0.0,0.0,-2.3953,-2.4219,-2.4549,-2.4594,-2.4675,-2.4839,-2.5467,-2.5727,-2.5354,-2.634,-2.6887,-2.6619,-2.7138,-2.7367,-2.7154,-2.749,-2.7675,-2.76,-2.76,-2.76,-2.76,-2.76,-2.76,-2.76,-2.76,-2.7473,-2.7229,-2.7229,-2.6878,-2.631,-2.6082,-2.5783,-2.5425,-2.4863,-2.462,-2.462,0.0,0.0,0.0,0.0,-2.4083,-2.4083,-2.4083,-2.4083,-2.4083,-2.4083,-2.4083,-2.4083,-2.4083,-2.4083,-2.4083,-2.4083,-2.4083,-2.4083,-2.4083,-2.3822,-2.3438,-2.2923,-2.212,-2.1407,-2.1014,-2.0699,-2.0552,-2.073,-2.1012,0.0,-2.0834,-2.1521,-2.2021,-2.171,-2.1678,-2.1439,-2.0764,-2.0667,-2.0539,-2.0151,-2.0118,-2.0118,-2.0118,-1.9409,0.0,0.0,0.0,-1.7912,-1.7999,-1.7737,0.0,0.0,0.0,0.0,0.0,0.0,0.0,0.0,-1.7278,-1.7453,0.0,0.0,0.0,0.0,0.0,0.0,0.0,0.0,0.0,0.0,0.0,0.0,0.0,0.0,0.0,0.0,-2.4302,-2.4297,-2.4297,-2.425,-2.4333,-2.469,-2.5294,-2.5459,-2.4972,-2.6421,-2.7233,-2.6765,-2.7295,-2.765,-2.7625,-2.7625,0.0,0.0,0.0,-2.76,-2.76,-2.76,-2.76,-2.76,-2.76,-2.7331,-2.6814,-2.6736,-2.6363,-2.5755,-2.5244,-2.4948,-2.4863,-2.4316,-2.4083,-2.4083,-2.4083,-2.4083,-2.4083,-2.4083,-2.4083,-2.4083,-2.4083,0.0,0.0,-2.4083,-2.4083,-2.4083,-2.4083,-2.4083,-2.4083,-2.4083,-2.4054,-2.3995,-2.4083,-2.4054,-2.3706,-2.2573,-2.1933,-2.1499,-2.1247,-2.0824,-2.0547,-2.0871,-2.0962,-2.0784,-2.0205,-2.1092,-2.1678,-2.1071,-2.1008,-2.0752,-2.0172,-2.0118,-2.0118,-2.0118,-2.0118,0.0,-2.0118,-1.966,-1.9387,-1.9387,-1.9015,-1.8567,-1.8097,-1.813,-1.7933,-1.747,-1.7868,-1.8086,-1.8086,-1.8436,-1.8403,-1.801,-1.801,-1.7977,0.0,0.0,0.0,0.0,0.0,0.0,0.0,0.0,0.0,0.0,0.0,0.0,0.0,0.0,0.0,-2.4287,-2.4302,-2.4276,-2.4229,-2.4208,-2.4244,-2.4312,-2.4993,-2.5503,-2.5598,-2.6696,-2.7455,-2.7549,-2.7805,-2.788,-2.7765,-2.7765,-2.77,-2.76,-2.76,-2.76,-2.76,-2.76,-2.76,-2.76,-2.76,0.0,-2.7408,-2.6904,-2.6363,-2.5755,-2.5244,-2.4734,-2.4287,-2.4141,-2.4083,-2.4083,-2.4083,-2.4083,-2.4083,-2.4083,-2.4083,-2.4083,-2.4083,-2.4083,-2.4083,-2.4083,-2.4083,-2.4083,-2.4083,-2.4083,0.0,-2.4083,-2.3691,-2.3412,-2.3953,-2.3704,-2.3225,-2.2979,-2.2481,-2.1786,-2.0798,-2.0437,-2.0224,-1.982,-2.0027,-2.0237,-2.0107,-2.0335,-2.0453,-2.0291,-2.0302,-2.0237,-2.0118,-2.0118,-2.0118,-2.0118,-2.0118,-2.0118,-2.0118,-1.966,-1.9387,-1.9387,-1.93,-1.9058,-1.8578,-1.8938,-1.8916,-1.8425,-1.8512,-1.8556,-1.8556,-1.8272,-1.8097,-1.801,-1.801,-1.7791,0.0,0.0,0.0,0.0,0.0,0.0,0.0,0.0,0.0,0.0,0.0,-2.3902,-2.4241,0.0,-2.4302,-2.4302,-2.4276,-2.425,-2.4187,-2.4082,-2.4003,-2.4003,-2.4646,-2.5264,-2.5671,-2.6492,-2.7182,-2.7655,-2.7765,-2.7765,-2.77,-2.77,-2.7675,-2.76,-2.76,-2.76,-2.76,-2.76,-2.76,-2.76,-2.76,-2.7265,-2.668,-2.639,-2.5769,-2.4921,-2.4664,-2.4361,-2.4083,-2.4083,-2.4083,-2.4083,-2.4083,-2.4083,-2.4083,-2.4083,-2.4083,-2.4083,-2.4083,-2.4083,-2.4083,-2.4083,-2.4083,-2.4083,-2.4083,-2.4083,-2.4083,-2.4083,-2.3865,-2.3603,-2.3603,-2.3339,-2.2937,-2.2255,-2.1704,-2.1122,-2.0387,-2.0044,-1.9818,-1.9756,-1.9943,-2.0118,-2.0118,-2.0118,-2.0118,-2.0118,-2.0118,-2.0118,-2.0118,-2.0118,-2.0118,-2.0118,-2.0118,-2.0118,-2.0118,-1.9889,-1.9747,-1.9747,-1.9747,-1.9529,-1.9069,-1.9288,-1.9189,-1.8698,-1.8927,-1.9058,-1.9058,-1.8818,-1.8589,-1.8338,-1.8119,-1.7868,0.0,0.0,0.0,0.0,0.0,0.0,0.0,0.0,-2.1802,-2.1795,-2.2948,-2.4045,-2.4266,-2.4297,-2.4276,-2.4276,-2.4193,-2.4145,-2.4124,-2.394,-2.3797,-2.376,-2.4356,-2.4942,-2.536,-2.6147,-2.6861,-2.736,-2.755,-2.7625,-2.76,-2.76,-2.76,-2.76,-2.76,-2.76,-2.76,-2.76,-2.7549,-2.7433,-2.7433,-2.6837,-2.5783,-2.5687,-2.5147,-2.4287,-2.4141,-2.4083,-2.4083,-2.4083,-2.4083,-2.4083,-2.4083,-2.4083,-2.4083,-2.4083,-2.4083,-2.4083,-2.4083,-2.4083,-2.4083,-2.4083,-2.4083,-2.4083,-2.4083,-2.4024,-2.3894,-2.3894,-2.3717,-2.3424,-2.2997,-2.2804,-2.2439,-2.1376,-2.0814,-2.0444,-2.0149,-1.9802,-1.9649,-2.0042,-2.0118,-2.0118,-2.0118,-2.0118,-2.0118,-2.0118,-2.0118,-2.0118,-2.0118,-2.0118,-2.0118,-2.0118,-2.0118,-2.0118,-2.0118,-2.0118,-2.0118,-2.0118,-2.0118,-1.9933,-1.954,-1.9529,-1.9375,-1.8982,-1.9322,-1.9475,-1.9387,-1.9321,-1.9026,-1.8545,-1.8075,-1.7868,-1.7144,-1.8229,-1.9111,-1.9769,-2.0083,-2.0104,0.0,0.0,-2.1243,-2.1693,-2.2332,-2.3094,-2.4112,-2.4234,-2.4208,-2.4208,-2.4103,-2.3982,-2.3861,-2.3818,-2.376,-2.3653,-2.4208,-2.4634,-2.4709,-2.5963,-2.6753,-2.6731,-2.737,-2.774,-2.7625,-2.76,-2.76,-2.76,-2.76,-2.76,-2.76,-2.76,-2.7331,-2.6814,-2.6814,-2.6443,-2.5783,-2.5314,-2.5033,-2.4863,-2.4345,-2.4083,-2.4083,-2.4083,-2.4083,-2.4083,-2.4083,-2.4083,-2.4083,-2.4083,-2.4083,-2.4083,-2.4083,-2.4083,-2.4083,-2.4083,-2.4083,-2.4083,-2.4083,-2.3691,-2.3207,-2.3207,-2.2359,-2.1565,-2.2082,-2.1772,-2.1282,-2.1123,-2.1057,-2.0844,-2.0226,-2.0074,-2.0053,-2.0107,-2.0118,-2.0118,-2.0118,-2.0118,-2.0118,-2.0118,-2.0118,-2.0118,-2.0118,-2.0118,-2.0118,-2.0118,-2.0118,-2.0118,-2.0118,-2.0118,-2.0118,-2.0118,-2.0118,-2.0085,-2.0031,-2.0031,-2.0009,-1.9954,-1.9998,-1.9824,-1.9387,-1.8982,-1.8534,-1.8075,-1.7612,-1.7383,-1.6363,-1.789,-1.9061,0.0,-1.976,-2.01,-2.0179,-2.0575,-2.1072,-2.1539,-2.2316,-2.3079,-2.3578,-2.3903,-2.4082,-2.4082,-2.3982,-2.3861,-2.3818,-2.3739,-2.3674,-2.3595,-2.4186,-2.4754,-2.5143,-2.5751,-2.6381,-2.7121,-2.75,-2.765,-2.76,-2.76,-2.76,-2.76,-2.76,-2.7433,-2.7074,-2.7074,-2.6774,-2.6176,-2.6176,-2.5878,-2.5314,-2.5104,-2.4806,-2.4447,-2.42,-2.4083,-2.4083,-2.4083,-2.4083,-2.4083,-2.4083,-2.4083,-2.4083,-2.4083,-2.4083,-2.4083,-2.4083,-2.4083,-2.4083,-2.4083,-2.4083,-2.4083,-2.4083,-2.3894,-2.3603,-2.3207,-2.2683,-2.2132,-2.1647,-2.1313,-2.1008,-2.0603,-2.0518,-2.0453,-2.0172,-2.0118,-2.0031,-1.9747,-1.9693,-1.9693,-1.9693,-1.9693,-1.9791,-2.0074,-2.0118,-2.0118,-2.0118,-2.0118,-2.0118,-2.0118,-2.0118,-2.0118,-2.0118,-2.0118,-2.0118,-2.0118,-2.0118,-2.0118,-2.0118,-2.0118,-1.9933,-1.9649,-1.9616,-1.9263,-1.8542,-1.8072,-1.7901,-1.7993,-1.7523,-1.7604,-1.6171,0.0,0.0,-1.8878,-1.9222,-1.9612,-2.0147,-2.047,-2.0809,-2.1371,-2.2314,-2.3084,-2.3363,-2.3717,-2.394,-2.394,-2.3839,-2.3739,-2.3739,-2.3674,-2.367,-2.3864,-2.4291,-2.4933,-2.5794,-2.5884,-2.6273,-2.7255,-2.7495,-2.76,-2.76,-2.76,-2.76,-2.76,-2.76,-2.7306,-2.6709,-2.6709,-2.6324,-2.5577,-2.5577,-2.5286,-2.475,-2.475,-2.4505,-2.4083,-2.4083,-2.4083,-2.4083,-2.4083,-2.4083,-2.4083,-2.4083,-2.4083,-2.4083,-2.4083,-2.4083,-2.4083,-2.4083,-2.4083,-2.4083,-2.4083,-2.3953,-2.3822,-2.3822,-2.3586,-2.3185,-2.2695,-2.2421,-2.2039,-2.1071,-2.0816,-2.07,-2.0205,-2.0118,-2.0118,-2.0118,-2.0118,-2.0009,-1.966,-1.9584,-1.9584,-1.9584,-1.9584,-1.9704,-2.0063,-2.0118,-2.0118,-2.0118,-2.0118,-2.0118,-2.0118,-2.0118,-2.0118,-2.0118,-2.0118,-2.0118,-2.0118,-2.0118,-2.0118,-2.0118,-2.0118,-1.9835,-1.9299,-1.9299,-1.8816,-1.7865,-1.7533,-1.75,-1.7739,-1.7398,-1.761,0.0,0.0,-1.6914,-1.8341,-1.8442,-1.8328,-1.901,-1.9602,-2.0318,-2.1296,-2.2047,-2.283,-2.3797,-2.3882,-2.3818,-2.3818,-2.3696,-2.3595,-2.3595,-2.3595,-2.3849,-2.4485,-2.459,-2.5113,-2.6437,-2.6557,-2.6572,-2.6641,-2.724,-2.76,-2.76,-2.76,-2.76,-2.76,-2.76,-2.7306,-2.6709,-2.6709,-2.6136,-2.5033,-2.5033,-2.4706,-2.4112,-2.4112,-2.4112,-2.4083,-2.4083,-2.4083,-2.4083,-2.4083,-2.4083,-2.4083,-2.4083,-2.4083,-2.4083,-2.4083,-2.4083,-2.4083,-2.4083,-2.4083,-2.4083,-2.4083,-2.3662,-2.3118,-2.3118,-2.2237,-2.1187,-2.1155,-2.07,-2.0172,-2.0151,-2.0118,-2.0118,-2.0118,-2.0118,-2.0118,-2.0118,-2.0118,-2.0107,-2.0096,-2.0096,-2.0096,-2.0096,-2.0096,-2.0096,-2.0118,-2.0118,-2.0118,-2.0118,-2.0118,-2.0118,-2.0118,-2.0118,-2.0118,-2.0118,-2.0118,-2.0118,-2.0118,-2.0118,-2.0118,-2.0118,-2.0118,-1.9835,-1.9299,-1.9299,-1.8827,-1.781,-1.78,-1.757,-1.7139,-1.7098,-1.7129,-1.507,0.0,-1.6383,-1.6693,-1.7441,-1.8249,-1.8787,-1.9083,-1.9476,-2.0163,-2.105,-2.1817,-2.2149,-2.3016,-2.3674,-2.3674,-2.3616,-2.3595,-2.3595,-2.3984,-2.435,-2.4575,-2.5382,-2.6093,-2.6566,-2.6587,-2.6767,-2.7225,-2.7465,-2.76,-2.76,-2.76,-2.76,-2.76,-2.76,-2.7306,-2.6709,-2.6709,-2.6136,-2.5005,-2.4591,-2.4316,-2.4083,-2.4083,-2.4083,-2.4083,-2.4083,-2.4083,-2.4083,-2.4083,-2.4083,-2.4083,-2.4083,-2.4083,-2.4083,-2.4083,-2.4083,-2.4083,-2.4083,-2.4083,-2.4083,-2.4083,-2.3953,-2.3763,-2.3763,-2.3143,-2.2317,-2.1896,-2.1282,-2.0667,-2.0205,-2.0118,-2.0118,-2.0118,-2.0118,-2.0118,-2.0118,-2.0118,-2.002,-1.9693,-1.9627,-1.9627,-1.9627,-1.9627,-1.9747,-2.0063,-2.0118,-2.0118,-2.0118,-2.0118,-2.0118,-2.0118,-2.0118,-2.0118,-2.0118,-2.0118,-2.0118,-2.0118,-2.0118,-2.0118,-2.0118,-2.0118,-1.9835,-1.9299,-1.8934,-1.8288,-1.7321,-1.6968,-1.6892,-1.7106,-1.7106,-1.7438,-1.4213,-1.4857,-1.5407,-1.5467,-1.622,-1.7136,-1.7791,-1.8115,-1.857,-1.952,-2.0543,-2.1419,-2.1802,-2.282,-2.3684,-2.3924,-2.3969,-2.4044,-2.4283,-2.4702,-2.5053,-2.5277,-2.6078,-2.6677,-2.6941,-2.6971,-2.7151,-2.757,-2.76,-2.76,-2.76,-2.76,-2.76,-2.76,-2.76,-2.7306,-2.6709,-2.6709,-2.6136,-2.5005,-2.462,-2.4316,-2.4083,-2.4083,-2.4083,-2.4083,-2.4083,-2.4083,-2.4083,-2.4083,-2.4083,-2.4083,-2.4083,-2.4083,-2.4083,-2.4083,-2.4083,-2.4083,-2.4083,-2.4083,-2.4083,-2.4083,-2.3953,-2.3704,-2.3454,-2.2919,-2.2255,-2.1585,-2.1071,-2.0635,-2.0205,-2.0118,-2.0118,-2.0118,-2.0118,-2.0118,-2.0118,-2.0118,-2.002,-1.9715,-1.9649,-1.9649,-1.9649,-1.9649,-1.9747,-2.0063,-2.0118,-2.0118,-2.0118,-2.0118,-2.0118,-2.0118,-2.0118,-2.0118,-2.0118,-2.0118,-2.0118,-2.0118,-2.0118,-2.0118,-2.0118,-2.0118,-1.9835,-1.9299,-1.8767,-1.8101,-1.7312,-1.6794,-1.6692,-1.702,-1.702,-1.7355,-1.4038,-1.4078,-1.4098,-1.4636,-1.4821,-1.5133,-1.6094,-1.6781,-1.7674,-1.9317,-2.0515,-2.1622,0.0,0.0,-2.3864,-2.45,-2.4634,-2.4874,-2.5501,-2.563,-2.5899,-2.6512,-2.6641,-2.6935,-2.754,-2.7625,-2.7625,-2.76,-2.76,-2.76,-2.76,-2.76,-2.76,-2.76,-2.76,-2.7331,-2.6747,-2.6736,-2.6163,-2.509,-2.5061,-2.4734,-2.4141,-2.4141,-2.4112,-2.4083,-2.4083,-2.4083,-2.4083,-2.4083,-2.4083,-2.4083,-2.4083,-2.4083,-2.4083,-2.4083,-2.4083,-2.4083,-2.4083,-2.4083,-2.4083,-2.4083,-2.3632,-2.2985,-2.2347,-2.1647,-2.0976,-2.0335,-2.0118,-2.0118,-2.0107,-2.0107,-2.0118,-2.0107,-2.0107,-2.0118,-2.0118,-2.0118,-2.0118,-2.0118,-2.0118,-2.0118,-2.0118,-2.0118,-2.0118,-2.0118,-2.0118,-2.0118,-2.0118,-2.0118,-2.0118,-2.0118,-2.0118,-2.0118,-2.0118,-2.0118,-2.0118,-2.0118,-2.0118,-2.0118,-2.0118,-2.0118,-1.9835,-1.9299,-1.8767,-1.824,-1.7706,-1.7176,-1.6908,-1.6908,-1.6908,-1.6908,-1.2684,-1.3174,-1.3565,-1.2965,-1.3747,-1.4782,-1.5197,-1.6287,-1.7542,-1.8783,-2.0232,-2.1494,0.0,-2.3378,-2.4395,-2.4575,-2.5023,-2.5397,-2.5585,-2.6033,-2.6408,-2.6572,-2.7358,-2.7795,-2.7635,-2.7919,-2.7978,-2.7625,-2.76,-2.76,-2.76,-2.76,-2.76,-2.76,-2.76,-2.7524,-2.7382,-2.6904,-2.6537,-2.627,-2.5797,-2.5314,-2.4778,-2.4778,-2.4534,-2.4083,-2.4083,-2.4083,-2.4083,-2.4083,-2.4083,-2.4083,-2.4083,-2.4083,-2.4083,-2.4083,-2.4083,-2.4083,-2.4083,-2.4083,-2.4083,-2.4083,-2.3632,-2.3058,-2.2907,-2.2021,-2.106,-2.088,-2.0485,-2.0172,-2.0421,-2.0302,-2.0172,-2.0421,-2.0291,-2.0118,-2.0118,-2.0118,-2.0118,-2.0118,-2.0118,-2.0118,-2.0118,-2.0118,-2.0118,-2.0118,-2.0118,-2.0118,-2.0118,-2.0118,-2.0118,-2.0118,-2.0118,-2.0118,-2.0118,-2.0118,-2.0118,-2.0118,-2.0118,-2.0118,-2.0118,-2.0118,-1.9835,-1.9299,-1.8767,-1.824,-1.7706,-1.7176,-1.6908,-1.6908,-1.6908,-1.6908,-1.2091,-1.2511,-1.2835,-1.2424,-1.336,-1.4521,-1.5049,-1.6409,-1.7859,-1.8975,-2.0468,0.0,-2.2526,-2.3487,-2.4402,-2.5175,-2.5461,0.0,-2.6674,-2.7115,-2.743,0.0,-2.8255,-2.8543,-2.8271,-2.8511,-2.8448,-2.7929,-2.771,-2.76,-2.76,-2.76,-2.76,-2.76,-2.76,-2.76,-2.76,-2.7255,-2.6971,-2.6709,-2.6363,-2.5906,-2.5342,-2.5118,-2.4806,-2.4476,-2.42,-2.4083,-2.4083,-2.4083,-2.4083,-2.4083,-2.4083,-2.4083,-2.4083,-2.4083,-2.4083,-2.4083,-2.4083,-2.4083,-2.4083,-2.4083,-2.3632,-2.3058,-2.2743,-2.1928,-2.104,-2.0752,-2.0388,-2.0151,-2.0324,-2.0237,-2.0172,-2.0506,-2.0453,-2.0367,-2.055,-2.0421,-2.027,-2.0118,-2.0118,-2.0118,-2.0118,-2.0118,-2.0118,-2.0118,-2.0118,-2.0009,-1.9791,-1.9933,-2.0118,-2.0118,-2.0118,-2.0118,-2.0118,-1.9868,-1.9758,-1.9758,-1.9528,-1.9396,-1.9396,-1.9396,-1.9253,-1.8934,-1.8408,-1.8003,-1.7706,-1.7176,-1.6908,-1.6908,-1.6908,-1.6908,-1.2156,-1.2276,-1.2354,-1.2549,-1.339,-1.4407,-1.5287,-1.6847,-1.8426,-1.9641,0.0,-2.2489,-2.3437,-2.3679,-2.4297,-2.593,0.0,-2.6356,-2.8056,-2.836,-2.8591,-2.9051,-2.9143,-2.9166,-2.9097,-2.9143,-2.8982,-2.8448,-2.8042,-2.7735,-2.7625,-2.76,-2.76,-2.76,-2.76,-2.76,-2.76,-2.76,-2.7331,-2.6814,-2.6736,-2.6377,-2.5783,-2.5231,-2.4948,-2.4835,-2.4345,-2.4083,-2.4083,-2.4083,-2.4083,-2.4083,-2.4083,-2.4083,-2.4083,-2.4083,-2.4083,-2.4083,-2.4083,-2.4083,-2.4083,-2.4083,-2.3573,-2.2864,-2.2286,-2.1585,-2.0848,-2.027,-2.0118,-2.0107,-2.014,-2.014,-2.0205,-2.0582,-2.0635,-2.0711,-2.1094,-2.0935,-2.0582,-2.0237,-2.0183,-2.014,-2.0107,-2.0118,-2.0118,-2.0118,-2.0118,-1.9933,-1.9485,-1.9758,-1.9976,-1.9911,-1.9878,-1.9878,-1.9878,-1.9452,-1.9199,-1.9199,-1.8767,-1.8509,-1.8509,-1.8509,-1.8476,-1.8408,-1.7935,-1.7672,-1.7569,-1.7141,-1.6908,-1.6908,-1.6908,-1.6908,-1.297,-1.3126,-1.3229,-1.2726,-1.3561,-1.4688,-1.5346,-1.7149,0.0,0.0,-2.2129,-2.3428,-2.4053,-2.44,-2.4942,-2.6019,-2.6481,-2.7052,-2.8151,-2.8685,-2.9005,0.0,-2.9438,-2.9528,-2.9159,-2.9438,-2.9483,-2.9005,-2.8889,-2.8463,-2.7635,-2.76,-2.76,-2.76,-2.76,-2.76,-2.76,-2.76,-2.7549,-2.7433,-2.6945,-2.6377,-2.5783,-2.5231,-2.4734,-2.4258,-2.4141,-2.4083,-2.4083,-2.4083,-2.4083,-2.4083,-2.4083,-2.4083,-2.4083,-2.4083,-2.4083,-2.4083,-2.4083,-2.4083,-2.4083,-2.4083,-2.3263,-2.2255,-2.2132,-2.125,-2.0237,-2.014,-2.0118,-2.0172,-2.0453,-2.0291,-2.027,-2.0935,-2.0839,-2.0711,-2.1094,-2.1169,-2.0967,-2.0582,-2.0518,-2.0421,-2.014,-2.0118,-2.0118,-2.0118,-2.0118,-2.0085,-1.9966,-1.966,-1.9276,-1.8811,-1.8777,-1.8777,-1.8777,-1.8677,-1.8633,-1.8633,-1.8543,-1.8509,-1.8509,-1.8509,-1.8307,-1.7842,-1.774,-1.7476,-1.7038,-1.6943,-1.6908,-1.6908,-1.6908,-1.6908,-1.3195,-1.3348,-1.3463,-1.3062,-1.4055,-1.523,-1.5715,0.0,0.0,0.0,-2.2605,-2.4053,-2.4538,-2.4744,0.0,-2.569,-2.6451,-2.7182,-2.7835,-2.8825,-2.955,-2.9793,-3.0027,-3.007,-2.9853,-3.0092,-3.0032,-2.9506,-2.9528,-2.9104,-2.8027,-2.7735,-2.76,-2.76,-2.76,-2.76,-2.76,-2.76,-2.76,-2.76,-2.7306,-2.6852,-2.6256,-2.5674,-2.5104,-2.4563,-2.4229,-2.4083,-2.4083,-2.4083,-2.4083,-2.4083,-2.4083,-2.4083,-2.4083,-2.4083,-2.4083,-2.4083,-2.4083,-2.4083,-2.4054,-2.3691,-2.2919,-2.2039,-2.1678,-2.088,-2.0151,-2.0291,-2.0356,-2.0453,-2.0807,-2.0775,-2.0807,-2.1348,-2.1443,-2.1443,-2.1474,-2.1474,-2.1273,-2.07,-2.0603,-2.0485,-2.0172,-2.0118,-2.0118,-2.0118,-2.0118,-2.0009,-1.9726,-1.9441,-1.9199,-1.8934,-1.89,-1.88,-1.8509,-1.824,-1.807,-1.807,-1.7808,-1.7672,-1.7672,-1.7672,-1.7545,-1.727,-1.727,-1.7176,-1.6908,-1.6908,-1.6908,-1.6908,-1.6908,-1.6908,-1.3612,-1.3621,-1.3654,-1.3638,-1.4613,-1.5737,-1.63,-1.8414,0.0,0.0,-2.2864,-2.4422,-2.4867,0.0,-2.5154,0.0,-2.6431,-2.7148,-2.7967,-2.9036,-2.995,-3.0472,-3.0526,-3.051,-3.0547,-3.0651,-3.051,-3.0027,-3.0006,-2.9496,-2.836,-2.7845,-2.76,-2.76,-2.76,-2.76,-2.76,-2.76,-2.76,-2.76,-2.7473,-2.7152,-2.6669,-2.596,-2.5398,-2.4977,-2.4361,-2.4083,-2.4083,-2.4083,-2.4083,-2.4083,-2.4083,-2.4083,-2.4083,-2.4083,-2.4083,-2.4083,-2.4083,-2.4024,-2.3763,-2.3088,-2.2531,-2.1978,-2.1313,-2.07,-2.027,-2.0518,-2.0667,-2.0807,-2.1126,-2.119,-2.1285,-2.162,-2.1956,-2.2123,-2.1851,-2.1819,-2.162,-2.0955,-2.0828,-2.07,-2.027,-2.0205,-2.0172,-2.0107,-2.0118,-1.9944,-1.9518,-1.9375,-1.9276,-1.9133,-1.9133,-1.89,-1.8375,-1.8037,-1.7774,-1.7545,-1.7245,-1.7012,-1.6908,-1.6908,-1.6908,-1.6908,-1.6908,-1.6908,-1.6908,-1.6908,-1.6908,-1.6908,-1.6908,-1.6908,-1.4939,-1.455,-1.4226,-1.4572,-1.5125,-1.5936,-1.7172,0.0,0.0,-2.1451,-2.3037,-2.4385,-2.498,-2.5129,0.0,0.0,0.0,-2.7132,-2.9307,-2.9617,-2.9879,-3.0605,0.0,-3.0547,-3.0671,-3.0692,-3.0671,-3.063,-3.022,-2.9496,-2.836,-2.7845,-2.76,-2.76,-2.76,-2.76,-2.76,-2.76,-2.76,-2.76,-2.7049,-2.6747,-2.6642,-2.5564,-2.5061,-2.4977,-2.4361,-2.4083,-2.4083,-2.4083,-2.4083,-2.4083,-2.4083,-2.4083,-2.4083,-2.4083,-2.4083,-2.4083,-2.4083,-2.3704,-2.3088,-2.2408,-2.2132,-2.1978,-2.1313,-2.0848,-2.0571,-2.0571,-2.086,-2.1158,-2.119,-2.119,-2.1285,-2.162,-2.1956,-2.2197,-2.2154,-2.2154,-2.203,-2.1651,-2.1588,-2.1368,-2.0667,-2.0539,-2.0453,-2.014,-2.0118,-2.0074,-2.0042,-1.9584,-1.91,-1.8633,-1.8566,-1.8375,-1.7808,-1.8172,-1.8003,-1.7047,-1.7373,-1.7407,-1.6908,-1.6908,-1.6908,-1.6908,-1.6908,-1.6908,-1.6908,-1.6908,-1.6908,-1.6908,-1.6908,-1.6908,-1.5712,-1.5536,-1.5352,-1.539,-1.6049,-1.6853,-1.75,0.0,-2.0976,-2.2045,-2.3623,-2.4951,-2.543,-2.5763,-2.6197,0.0,0.0,0.0,-2.8996,-3.002,-3.0704,-3.0801,-3.0942,-3.0985,-3.0834,-3.0871,-3.0875,-3.0875,-3.0326,-2.9474,-2.8297,-2.8097,-2.7894,-2.7625,-2.76,-2.76,-2.76,-2.76,-2.76,-2.76,-2.7357,-2.7049,-2.6669,-2.6217,-2.5646,-2.4977,-2.475,-2.4447,-2.4083,-2.4083,-2.4083,-2.4083,-2.4083,-2.4083,-2.4083,-2.4083,-2.4083,-2.4083,-2.4083,-2.3662,-2.3027,-2.2561,-2.2144,-2.1678,-2.1008,-2.07,-2.07,-2.1146,-2.1368,-2.1537,-2.1737,-2.18,-2.1831,-2.1956,-2.2092,-2.2197,-2.2197,-2.2197,-2.2092,-2.1788,-2.1683,-2.1526,-2.1063,-2.0764,-2.0539,-2.0421,-2.0237,-1.9976,-1.966,-1.9726,-1.9584,-1.9044,-1.8408,-1.7808,-1.727,-1.7407,-1.7339,-1.6943,-1.7107,-1.7107,-1.6908,-1.6908,-1.6908,-1.6908,-1.6908,-1.6908,-1.6908,-1.6908,-1.6908,-1.6908,-1.6908,-1.6908,-1.6546,-1.6332,-1.6091,-1.6091,-1.6746,-1.7558,0.0,-1.9869,-2.1624,-2.272,-2.4132,-2.5313,-2.5764,-2.6241,-2.6587,0.0,0.0,-2.8734,-2.9119,-3.0387,-3.1271,-3.1261,-3.1452,-3.1452,-3.1137,-3.1035,-3.0995,-3.0995,-3.0555,-2.9749,-2.8496,-2.8367,-2.7996,-2.7325,-2.73,-2.7405,-2.76,-2.76,-2.76,-2.76,-2.76,-2.7382,-2.6971,-2.6788,-2.6163,-2.5244,-2.5061,-2.4677,-2.4083,-2.4083,-2.4083,-2.4083,-2.4083,-2.4083,-2.4083,-2.4083,-2.4083,-2.4083,-2.4083,-2.3603,-2.2895,-2.2695,-2.2082,-2.1408,-2.104,-2.0924,-2.1019,-2.1557,-2.1788,-2.1894,-2.2123,-2.2197,-2.2197,-2.2197,-2.2197,-2.2197,-2.2197,-2.2197,-2.2123,-2.1882,-2.1851,-2.1726,-2.1411,-2.0924,-2.056,-2.0474,-2.0031,-1.9572,-1.921,-1.9297,-1.9264,-1.8877,-1.8003,-1.7501,-1.7604,-1.775,-1.7647,-1.7176,-1.727,-1.7235,-1.6908,-1.6908,-1.6908,-1.6908,-1.6908,-1.6908,-1.6908,-1.6908,-1.6908,-1.6908,-1.6908,-1.6908,-1.7585,-1.6872,-1.6204,-1.6677,-1.7098,-1.7814,-1.9412,-2.0474,-2.1599,-2.3422,-2.4486,-2.5276,-2.5896,-2.6329,-2.679,-2.7388,0.0,0.0,-3.01,-3.0699,-3.127,-3.1987,-3.2039,-3.1896,-3.162,-3.1218,-3.0995,-3.0995,-3.0995,-3.0403,-2.9075,-2.8608,-2.7837,-2.6651,-2.6602,-2.6941,-2.7585,-2.76,-2.76,-2.76,-2.76,-2.76,-2.7575,-2.6971,-2.6363,-2.5755,-2.5244,-2.4677,-2.4083,-2.4083,-2.4083,-2.4083,-2.4083,-2.4083,-2.4083,-2.4083,-2.4083,-2.4083,-2.4083,-2.3454,-2.2592,-2.2592,-2.197,-2.1253,-2.1588,-2.1683,-2.1683,-2.1683,-2.1956,-2.2197,-2.2197,-2.2197,-2.2197,-2.2197,-2.2197,-2.2197,-2.2197,-2.2197,-2.2197,-2.2197,-2.2185,-2.2092,-2.1757,-2.1092,-2.0505,-2.0161,-1.9363,-1.8808,-1.8808,-1.8158,-1.7706,-1.7706,-1.7235,-1.7535,-1.9133,-1.9758,-1.9407,-1.7774,-1.8206,-1.8003,-1.6934,-1.6908,-1.6908,-1.6908,-1.6908,-1.6908,-1.6908,-1.6908,-1.6908,-1.6908,-1.6908,-1.6908,-1.8629,-1.8726,-1.8745,-1.8342,-1.951,-2.073,-2.07,-2.211,-2.3654,-2.4513,-2.5269,-2.5927,-2.6385,-2.6573,-2.7148,-2.863,-2.9008,0.0,0.0,0.0,-3.1882,-3.1826,-3.1618,-3.1408,-3.1332,-3.1213,-3.1151,-3.1151,-3.1055,-3.0463,-2.9275,-2.8527,-2.7651,-2.6641,-2.6328,-2.6285,-2.6497,-2.6974,-2.6974,-2.6536,-2.7442,-2.7639,-2.7191,-2.7047,-2.668,-2.6095,-2.5439,-2.478,-2.4232,-2.4128,-2.4083,-2.4083,-2.4083,-2.4083,-2.4083,-2.4083,-2.4083,-2.4083,-2.4083,-2.3292,-2.2317,-2.2811,-2.2137,-2.1316,-2.1862,-2.1882,-2.1757,-2.1987,-2.2123,-2.2197,-2.2197,-2.2197,-2.2197,-2.2197,-2.2197,-2.2197,-2.2197,-2.2197,-2.2197,-2.2197,-2.2018,-2.1714,-2.1219,-2.1071,-2.0752,-1.9998,-1.9649,-1.9287,-1.8687,-1.8375,-1.8104,-1.774,-1.7876,-1.7901,-1.7672,-1.7818,-1.7681,-1.7176,-1.7304,-1.7235,-1.6908,-1.6908,-1.6908,-1.6908,-1.6908,-1.6908,-1.6908,-1.6908,-1.6908,-1.6908,-1.6908,-1.6908,0.0,-1.97,-1.9754,-1.9932,-2.0956,-2.1954,-2.2108,-2.3488,-2.487,-2.5359,-2.5929,-2.6401,-2.6657,-2.7046,-2.7724,-2.8885,-2.9792,-3.0689,-3.1738,-3.2225,-3.2351,-3.1985,-3.1618,-3.1389,-3.1389,-3.1271,-3.119,-3.119,-3.1131,-3.0521,-2.9249,-2.8536,-2.7554,-2.6214,-2.5964,-2.5917,-2.5993,-2.6403,-2.6403,-2.6008,-2.6842,-2.7161,-2.6985,-2.6817,-2.6578,-2.6256,-2.5563,-2.4936,0.0,-2.4332,-2.4287,-2.4287,-2.4287,-2.4287,-2.4287,-2.4287,-2.4287,-2.4258,-2.4041,-2.3365,-2.2628,-2.2866,-2.2316,-2.1643,-2.2061,-2.2061,-2.1925,-2.2123,-2.2197,-2.2197,-2.2197,-2.2197,-2.2197,-2.2197,-2.2197,-2.2197,-2.2197,-2.2197,-2.2197,-2.2197,-2.1925,-2.162,-2.142,-2.104,-2.0624,-2.015,-1.954,-1.8921,-1.8385,-1.808,-1.7774,-1.7442,-1.7706,-1.7647,-1.6968,-1.727,-1.7407,-1.7201,-1.721,-1.7107,-1.6908,-1.6908,-1.6908,-1.6908,-1.6908,-1.6908,-1.6908,-1.6908,-1.6908,-1.6908,-1.6908,-1.6908,0.0,-2.0169,-1.9836,-2.1416,-2.1725,-2.2048,-2.3626,-2.4612,0.0,-2.6008,-2.647,-2.6758,-2.6809,-2.7704,-2.8481,-2.8601,-3.0368,-3.1609,-3.1394,-3.219,-3.2682,-3.2351,-3.195,-3.1695,-3.1695,-3.1389,-3.119,-3.119,-3.114,-3.0514,-2.9145,-2.8609,-2.7498,-2.5635,-2.5586,-2.5679,-2.5864,-2.5925,-2.5925,-2.588,-2.5971,-2.632,-2.6866,-2.6356,-2.6185,-2.6226,-2.5659,-2.5118,-2.462,-2.4591,-2.4591,-2.4591,-2.4591,-2.4591,-2.4591,-2.4591,-2.4591,-2.4534,-2.4028,-2.3658,-2.3271,-2.28,-2.2432,-2.2197,-2.2197,-2.2197,-2.2197,-2.2197,-2.2197,-2.2197,-2.2197,-2.2197,-2.2197,-2.2197,-2.2197,-2.2197,-2.2197,-2.2197,-2.2197,-2.2197,-2.1925,-2.1788,-2.2049,-2.104,-2.0291,-2.0462,-1.9144,-1.8076,-1.7974,-1.7358,-1.6908,-1.6908,-1.6908,-1.6908,-1.6908,-1.7808,-1.8172,-1.7672,-1.7638,-1.7407,-1.6908,-1.6908,-1.6908,-1.6908,-1.6908,-1.6908,-1.6908,-1.6908,-1.6908,-1.6908,-1.6908,-1.6908,-2.2386,0.0,-2.283,-2.303,-2.4028,-2.4946,0.0,-2.5596,-2.6371,0.0,0.0,0.0,-2.7889,-2.8439,-2.9244,-3.069,-3.1357,-3.1977,-3.2757,-3.2849,-3.2682,-3.2351,-3.195,-3.1695,-3.1695,-3.1389,-3.119,-3.119,-3.0683,-3.0209,-2.9871,-2.863,-2.7443,-2.6383,-2.5802,-2.5254,-2.471,-2.5194,-2.5194,-2.4725,-2.5783,-2.609,-2.5731,-2.6189,-2.6198,-2.5827,-2.5626,-2.5258,-2.475,-2.4649,-2.4591,-2.4591,-2.4591,-2.4591,-2.4591,-2.4591,-2.4591,-2.4591,-2.4476,-2.3809,-2.2902,-2.218,-2.2049,-2.2197,-2.2197,-2.2197,-2.2197,-2.2197,-2.2197,-2.2197,-2.2197,-2.2197,-2.2197,-2.2197,-2.2197,-2.2197,-2.2197,-2.2197,-2.2197,-2.2197,-2.1925,-2.1588,-2.125,-2.1262,-2.0869,-1.9562,-1.9255,-1.8824,-1.7876,-1.7279,-1.6908,-1.6908,-1.6908,-1.6908,-1.6908,-1.7141,-1.721,-1.7107,-1.7107,-1.7038,-1.6908,-1.6908,-1.6908,-1.6908,-1.6908,-1.6908,-1.6908,-1.6908,-1.6908,-1.6908,-1.6908,-1.6908,-2.3856,-2.4033,-2.4333,-2.4808,-2.5525,-2.6176,-2.6317,0.0,0.0,0.0,0.0,0.0,0.0,0.0,-3.0335,-3.1513,-3.1969,-3.2409,-3.3045,-3.2797,-3.2502,-3.2334,-3.195,-3.1695,-3.1695,-3.1389,-3.1055,-3.0717,-3.0328,-2.9785,-2.9075,-2.8246,-2.7284,-2.614,-2.5697,-2.5102,-2.4302,-2.465,-2.465,-2.4317,-2.5072,-2.5395,-2.5327,-2.55,-2.5604,-2.56,-2.5346,-2.5079,-2.4792,-2.4784,-2.4778,-2.4778,-2.4778,-2.4778,-2.4778,-2.4778,-2.4778,-2.475,-2.4549,-2.378,-2.2793,-2.213,-2.2061,-2.2197,-2.2197,-2.2197,-2.2197,-2.2197,-2.2197,-2.2197,-2.2197,-2.2197,-2.2197,-2.2197,-2.2197,-2.2197,-2.2197,-2.2197,-2.2197,-2.2197,-2.1925,-2.1557,-2.108,-2.1262,-2.0876,-1.9123,-1.9097,-1.8818,-1.7581,-1.7123,-1.6908,-1.6908,-1.6908,-1.6908,-1.6908,-1.6908,-1.6908,-1.6908,-1.6908,-1.6908,-1.6908,-1.6908,-1.6908,-1.6908,-1.6908,-1.6908,-1.6908,-1.6908,-1.6908,-1.6908,-1.6908,-1.6908,-2.522,-2.5255,-2.5488,-2.6395,-2.6523,-2.6666,0.0,0.0,0.0,0.0,0.0,0.0,0.0,-3.0441,0.0,-3.1893,-3.2478,-3.2892,-3.2892,-3.2651,-3.2469,-3.2469,-3.2074,-3.1787,-3.1787,-3.1428,-3.0886,-3.0176,-3.0006,-2.9313,-2.7874,-2.7689,-2.7019,-2.5631,-2.554,-2.5141,-2.4405,-2.4323,-2.4302,-2.4302,-2.4302,-2.461,-2.5142,-2.4783,-2.4926,-2.5467,-2.5105,-2.4954,-2.4988,-2.4983,-2.5005,-2.5005,-2.5005,-2.5005,-2.5005,-2.5005,-2.5005,-2.492,-2.4379,-2.3649,-2.2939,-2.2371,-2.2197,-2.2197,-2.2197,-2.2197,-2.2197,-2.2197,-2.2197,-2.2197,-2.2197,-2.2197,-2.2197,-2.2197,-2.2197,-2.2197,-2.2197,-2.2197,-2.2197,-2.2197,-2.1956,-2.1651,-2.1325,-2.1305,-2.0808,-1.9201,-1.909,-1.8701,-1.7358,-1.7166,-1.7107,-1.7038,-1.7003,-1.7003,-1.7003,-1.6943,-1.6908,-1.6908,-1.6908,-1.6908,-1.6908,-1.6908,-1.6908,-1.6908,-1.6908,-1.6908,-1.6908,-1.6908,-1.6908,-1.6908,-1.6908,-1.6908,-2.5937,-2.7101,-2.8071,-2.6959,-2.7128,-2.7602,0.0,0.0,0.0,0.0,0.0,0.0,0.0,-3.1709,-3.23,-3.3012,-3.3229,-3.3319,-3.3319,-3.3256,-3.3226,-3.3226,-3.2636,-3.2214,-3.2214,-3.16,-3.0886,-3.0176,-2.9516,-2.8772,-2.7858,-2.7215,-2.6605,-2.6033,-2.5689,-2.5275,-2.4803,-2.4472,-2.4302,-2.4302,-2.4302,-2.4364,-2.4466,-2.4971,-2.5318,-2.5491,-2.5544,-2.5614,-2.5699,-2.5189,-2.5005,-2.5005,-2.5005,-2.5005,-2.5005,-2.5005,-2.5005,-2.4892,-2.4018,-2.3607,-2.3352,-2.2482,-2.2197,-2.2197,-2.2197,-2.2197,-2.2197,-2.2197,-2.2197,-2.2197,-2.2197,-2.2197,-2.2197,-2.2197,-2.2197,-2.2197,-2.2197,-2.2197,-2.2197,-2.2197,-2.2154,-2.2092,-2.203,-2.203,-2.1596,-2.0266,-2.0084,-1.9487,-1.7813,-1.7997,-1.807,-1.7647,-1.7579,-1.7579,-1.7579,-1.7176,-1.6908,-1.6908,-1.6908,-1.6908,-1.6908,-1.6908,-1.6908,-1.6908,-1.6908,-1.6908,-1.6908,-1.6908,-1.6908,-1.6908,-1.6908,-1.6908,-2.6384,-2.7381,-2.818,-2.7469,-2.7875,-2.845,0.0,0.0,0.0,0.0,0.0,0.0,0.0,0.0,-3.2652,-3.3029,-3.3256,-3.3393,-3.3393,-3.3393,-3.3393,-3.3393,-3.275,-3.23,-3.23,-3.1637,-3.0717,-2.9583,-2.9196,-2.8468,-2.7283,-2.6877,-2.6505,-2.6105,-2.5707,-2.5313,-2.4902,-2.4492,-2.4302,-2.4302,-2.4302,-2.4302,-2.4317,-2.4604,-2.4805,-2.4879,-2.5367,-2.545,-2.5251,-2.5423,-2.5286,-2.5005,-2.5005,-2.5005,-2.5005,-2.5005,-2.5005,-2.4907,-2.4234,-2.3813,-2.3488,-2.2805,-2.2402,-2.2197,-2.2197,-2.2197,-2.2197,-2.2197,-2.2197,-2.2197,-2.2197,-2.2197,-2.2197,-2.2197,-2.2197,-2.2197,-2.2197,-2.2197,-2.2197,-2.2197,-2.2197,-2.2061,-2.1651,-2.1925,-2.1631,-1.9947,-2.0028,-1.9749,-1.8266,-1.8325,-1.8408,-1.8172,-1.8138,-1.8138,-1.8138,-1.791,-1.7501,-1.6943,-1.6908,-1.6908,-1.6908,-1.6908,-1.6908,-1.6908,-1.6908,-1.6908,-1.6908,-1.6908,-1.6908,-1.6908,-1.6908,-1.7072,-2.6843,-2.7367,-2.7858,-2.8027,0.0,-2.8824,-2.9179,0.0,0.0,0.0,0.0,0.0,0.0,-3.2715,-3.287,-3.269,-3.3085,-3.3393,-3.3393,-3.3393,-3.3393,-3.3393,-3.275,-3.223,-3.2071,-3.1379,-3.0311,-2.8822,-2.8722,-2.8147,-2.6759,-2.6691,-2.6556,-2.6245,-2.5854,-2.5446,-2.5044,-2.4639,-2.4405,-2.4302,-2.4302,-2.4302,-2.4302,-2.4302,-2.4394,-2.4553,-2.504,-2.5204,-2.5149,-2.5514,-2.548,-2.5202,-2.5061,-2.5005,-2.5005,-2.5005,-2.5005,-2.492,-2.4465,-2.3989,-2.3518,-2.3047,-2.2574,-2.2197,-2.2197,-2.2197,-2.2197,-2.2197,-2.2197,-2.2197,-2.2197,-2.2197,-2.2197,-2.2197,-2.2197,-2.2197,-2.2197,-2.2197,-2.2197,-2.2197,-2.2197,-2.2018,-2.1451,-2.1831,-2.1658,-2.0035,-2.0196,-2.0072,-1.887,-1.8816,-1.8844,-1.871,-1.87,-1.8633,-1.8499,-1.8509,-1.8138,-1.7339,-1.727,-1.721,-1.7107,-1.7107,-1.7038,-1.6908,-1.6908,-1.6908,-1.6908,-1.6908,-1.6908,-1.6908,-1.6908,-1.7107,-2.7536,-2.7756,-2.7976,-2.8739,0.0,0.0,-2.9683,-2.992,0.0,-3.1755,0.0,0.0,0.0,-3.3342,-3.311,-3.2368,-3.289,-3.3393,-3.3393,-3.3393,-3.3393,-3.3393,-3.275,-3.2036,-3.135,-3.0606,-2.9531,-2.801,-2.7891,-2.7536,-2.6742,-2.6691,-2.6691,-2.6657,-2.6263,-2.5872,-2.5465,-2.5059,-2.4659,-2.4302,-2.4302,-2.4302,-2.4302,-2.4302,-2.4656,-2.5198,-2.4769,-2.5261,-2.6297,-2.5277,-2.5279,-2.5784,-2.523,-2.5005,-2.5005,-2.5005,-2.5005,-2.492,-2.4465,-2.3989,-2.3518,-2.3047,-2.2574,-2.2197,-2.2197,-2.2197,-2.2197,-2.2197,-2.2197,-2.2197,-2.2197,-2.2197,-2.2197,-2.2197,-2.2197,-2.2197,-2.2197,-2.2197,-2.2197,-2.2197,-2.2197,-2.2185,-2.2123,-2.2154,-2.2049,-2.1604,-2.1313,-2.0784,-1.9825,-1.9879,-1.9802,-1.9309,-1.9233,-1.9034,-1.8533,-1.8509,-1.8476,-1.8408,-1.8365,-1.8172,-1.7672,-1.7638,-1.7407,-1.6908,-1.6908,-1.6908,-1.6908,-1.6908,-1.6908,-1.6908,-1.6908,-1.6908,-2.7046,-2.7114,-2.7418,-2.8688,0.0,0.0,0.0,0.0,0.0,-3.1679,-3.2146,0.0,0.0,-3.3393,-3.3302,-3.2995,-3.2777,-3.2651,-3.2651,-3.2216,-3.1908,-3.1908,-3.1291,-3.0754,-3.0489,-2.9815,-2.8975,-2.7874,-2.7807,-2.7486,-2.6742,-2.6691,-2.6691,-2.6691,-2.6298,-2.5908,-2.5503,-2.5102,-2.4699,-2.4302,-2.4302,-2.4302,-2.4302,-2.4302,-2.4441,-2.4712,-2.5397,-2.575,-2.5917,-2.6325,-2.6448,-2.6336,-2.577,-2.5342,-2.5005,-2.5005,-2.5005,-2.4977,-2.4793,-2.4436,-2.4002,-2.3826,-2.3258,-2.2647,-2.2647,-2.2432,-2.2197,-2.2197,-2.2197,-2.2197,-2.2197,-2.2197,-2.2197,-2.2197,-2.2197,-2.2197,-2.2197,-2.2197,-2.2197,-2.2197,-2.2197,-2.2197,-2.2197,-2.2197,-2.2166,-2.2018,-2.1737,-2.1305,-2.0732,-2.0506,-2.0259,-1.9824,-1.9802,-1.9726,-1.9495,-1.9495,-1.9495,-1.9495,-1.8877,-1.8408,-1.8206,-1.8206,-1.8206,-1.8206,-1.8206,-1.8206,-1.8206,-1.8422,-1.8287,-1.791,-1.8104,-1.8273,-2.6758,-2.6758,-2.7013,0.0,0.0,0.0,0.0,0.0,0.0,-3.1513,-3.1956,-3.2397,-3.2929,-3.3013,-3.294,-3.2687,-3.218,-3.1818,-3.1818,-3.1361,-3.0998,-3.0998,-3.0419,-2.9911,-2.9665,-2.9025,-2.8298,-2.7503,-2.7452,-2.7232,-2.6725,-2.6691,-2.6691,-2.6691,-2.6436,-2.605,-2.5503,-2.5218,-2.4823,-2.4302,-2.4302,-2.4302,-2.4302,-2.4302,-2.4302,-2.4364,-2.5318,-2.5733,-2.5816,-2.6576,-2.68,-2.6666,-2.6123,-2.5647,-2.5258,-2.5061,-2.5005,-2.5005,-2.5005,-2.4708,-2.4292,-2.4292,-2.3767,-2.3078,-2.2939,-2.2665,-2.2402,-2.2247,-2.2197,-2.2197,-2.2197,-2.2197,-2.2197,-2.2197,-2.2197,-2.2197,-2.2197,-2.2197,-2.2197,-2.2197,-2.2197,-2.2197,-2.2197,-2.2197,-2.2197,-2.2197,-2.1913,-2.1632,-2.138,-2.0924,-2.0518,-2.0291,-2.027,-2.027,-2.027,-2.0367,-2.0399,-2.027,-1.9682,-1.9233,-1.89,-1.9,-1.91,-1.9166,-1.9166,-1.9166,-1.9166,-1.9377,-1.9245,-1.8824,-1.8934,-1.9077,-2.6926,-2.6893,0.0,0.0,0.0,0.0,0.0,0.0,-3.1666,-3.1617,-3.2556,-3.314,-3.2343,-3.218,-3.1926,-3.1143,-3.0998,-3.0998,-3.0998,-3.098,-3.098,-3.098,-3.0383,-2.9683,-2.8961,-2.8218,-2.7486,-2.6742,-2.6691,-2.6691,-2.6691,-2.6691,-2.6691,-2.6691,-2.6691,-2.6332,-2.5521,-2.5503,-2.5102,-2.4302,-2.4302,-2.4302,-2.4302,-2.4302,-2.4302,-2.4302,-2.4317,-2.5066,-2.6251,-2.5733,-2.5992,-2.6651,-2.6109,-2.5921,-2.5839,-2.523,-2.5005,-2.5005,-2.5005,-2.4708,-2.4321,-2.4321,-2.3989,-2.3518,-2.3047,-2.2909,-2.2787,-2.234,-2.2197,-2.2197,-2.2197,-2.2197,-2.2197,-2.2197,-2.2197,-2.2197,-2.2197,-2.2197,-2.2197,-2.2197,-2.2197,-2.2197,-2.2197,-2.2197,-2.2197,-2.2197,-2.1925,-2.1683,-2.1683,-2.1051,-2.0614,-2.0614,-2.0614,-2.0614,-2.0614,-2.0967,-2.1031,-2.0635,-2.0999,-2.0796,-1.9846,-2.0117,-2.0063,-1.953,-1.953,-1.953,-1.953,-1.953,-1.953,-1.9498,-1.9199,-1.9011,-2.6909,0.0,0.0,0.0,0.0,0.0,0.0,0.0,0.0,0.0,-3.1472,-3.1636,-3.1401,-3.1361,-3.1274,-3.1053,-3.0527,-3.0165,-3.0165,-2.9663,-2.9306,-2.9306,-2.8767,-2.8313,-2.8085,-2.7428,-2.6945,-2.6708,-2.6691,-2.6691,-2.6691,-2.6691,-2.6691,-2.6691,-2.6691,-2.6453,-2.5926,-2.5652,-2.5237,-2.4719,-2.4446,-2.4302,-2.4302,-2.4302,-2.4302,-2.4333,-2.4789,-2.5533,-2.6441,-2.7216,-2.7423,-2.7261,-2.7082,-2.6549,-2.5866,-2.5702,-2.537,-2.5005,-2.5005,-2.492,-2.4793,-2.4793,-2.4465,-2.3989,-2.3531,-2.3155,-2.2787,-2.234,-2.2197,-2.2197,-2.2197,-2.2197,-2.2197,-2.2197,-2.2197,-2.2197,-2.2197,-2.2197,-2.2197,-2.2197,-2.2197,-2.2197,-2.2197,-2.2197,-2.2197,-2.2197,-2.2123,-2.1956,-2.1714,-2.1305,-2.1031,-2.1031,-2.1031,-2.1031,-2.1031,-2.1126,-2.1158,-2.1031,-2.1348,-2.1305,-2.0796,-2.0892,-2.0976,-2.106,-2.106,-2.106,-2.1049,-2.1282,-2.1008,-2.0291,-2.0709,-2.0495,-2.7383,0.0,0.0,0.0,0.0,-2.8313,-2.8393,0.0,0.0,0.0,-3.0998,-3.0998,-3.0998,-3.0745,-3.0527,-3.0527,-2.9857,-2.9318,-2.9318,-2.8907,-2.86,-2.86,-2.8073,-2.7701,-2.7701,-2.71,-2.6691,-2.6691,-2.6691,-2.6691,-2.6691,-2.6691,-2.6691,-2.6691,-2.6691,-2.6505,-2.6087,-2.5854,-2.5465,-2.4902,-2.4639,-2.4451,-2.4302,-2.4302,-2.4302,-2.4348,-2.5004,-2.5718,-2.6472,-2.7565,-2.7941,-2.782,-2.759,-2.6979,-2.619,-2.5961,-2.5536,-2.5005,-2.5005,-2.5005,-2.5005,-2.5005,-2.4793,-2.4494,-2.4018,-2.3679,-2.3318,-2.2665,-2.2494,-2.2432,-2.2259,-2.2197,-2.2197,-2.2197,-2.2197,-2.2197,-2.2197,-2.2029,-2.1945,-2.2149,-2.2017,-2.1945,-2.2149,-2.2197,-2.2197,-2.2197,-2.2197,-2.2092,-2.1745,-2.1526,-2.1411,-2.1411,-2.1411,-2.1411,-2.1411,-2.1517,-2.1549,-2.1411,-2.1726,-2.18,-2.1612,-2.1612,-2.1706,-2.1882,-2.1894,-2.1894,-2.1894,-2.1956,-2.1663,-2.1051,-2.1178,-2.0924,0.0,0.0,0.0,0.0,0.0,0.0,-2.7842,-2.8804,-2.9911,-3.0622,-3.0767,-3.0767,-3.0767,-3.0183,-2.9694,-2.9694,-2.9083,-2.86,-2.86,-2.86,-2.86,-2.86,-2.8073,-2.7701,-2.7701,-2.71,-2.6691,-2.6691,-2.6691,-2.6691,-2.6691,-2.6691,-2.6691,-2.6691,-2.6691,-2.6522,-2.6157,-2.6122,-2.5726,-2.502,-2.4981,-2.4724,-2.4343,-2.4323,-2.4302,-2.4348,-2.5004,-2.5718,-2.6426,-2.7119,-2.7796,-2.8348,-2.7795,-2.7236,-2.6625,-2.6163,-2.555,-2.5005,-2.5005,-2.5005,-2.5005,-2.5005,-2.5005,-2.492,-2.4436,-2.4292,-2.4118,-2.3228,-2.2939,-2.2787,-2.2371,-2.2216,-2.2197,-2.2197,-2.2197,-2.2173,-2.2125,-2.1777,-2.1596,-2.1969,-2.1704,-2.1548,-2.2041,-2.2125,-2.2137,-2.2185,-2.2197,-2.2092,-2.1788,-2.1757,-2.1757,-2.1757,-2.1757,-2.1757,-2.1757,-2.2018,-2.2061,-2.1745,-2.2018,-2.2197,-2.2197,-2.2197,-2.2197,-2.2197,-2.2197,-2.2197,-2.2197,-2.1851,-2.1683,-2.162,-2.0955,-2.0603,0.0,-2.784,0.0,0.0,-2.8094,-2.8049,-2.8534,-2.8737,-2.8907,-2.907,-2.9125,-2.9125,-2.9125,-2.8962,-2.8853,-2.8853,-2.8708,-2.86,-2.86,-2.86,-2.86,-2.86,-2.8073,-2.7701,-2.7701,-2.71,-2.6691,-2.6691,-2.6691,-2.6691,-2.6691,-2.6691,-2.6691,-2.6691,-2.6691,-2.6657,-2.6573,-2.6263,-2.6016,-2.5835,-2.5521,-2.516,-2.4759,-2.4431,-2.4302,-2.4348,-2.5004,-2.5681,-2.6373,-2.7103,-2.7796,-2.8387,-2.8259,-2.7595,-2.6678,-2.6587,-2.5878,-2.5005,-2.5005,-2.5005,-2.5005,-2.5005,-2.5005,-2.492,-2.4436,-2.4292,-2.4176,-2.3619,-2.3185,-2.2878,-2.28,-2.2494,-2.2197,-2.2197,-2.2197,-2.2077,-2.1668,-2.1813,-2.1813,-2.1103,-2.1199,-2.144,-2.1548,-2.1572,-2.1716,-2.2125,-2.2197,-2.2154,-2.2092,-2.2092,-2.2092,-2.2092,-2.2092,-2.2092,-2.2092,-2.2154,-2.2154,-2.2092,-2.2154,-2.2197,-2.2197,-2.2197,-2.2197,-2.2197,-2.2197,-2.2197,-2.2197,-2.1851,-2.1557,-2.1285,-2.1158,-2.0743,0.0,0.0,0.0,0.0,0.0,-2.8393,-2.8855,-2.8723,-2.8531,-2.8675,-2.8637,-2.86,-2.86,-2.86,-2.86,-2.86,-2.8274,-2.8038,-2.8038,-2.759,-2.7394,-2.779,-2.731,-2.7073,-2.7426,-2.6988,-2.6691,-2.6691,-2.6691,-2.6691,-2.6691,-2.6691,-2.6742,-2.6792,-2.6792,-2.6792,-2.6792,-2.659,-2.6349,-2.6104,-2.589,-2.5484,-2.4883,-2.4492,-2.4302,-2.4333,-2.4666,-2.5189,-2.5881,-2.6573,-2.7288,-2.795,-2.8273,-2.786,-2.7041,-2.6782,-2.6162,-2.5397,-2.509,-2.5005,-2.5005,-2.5005,-2.5005,-2.4948,-2.4708,-2.465,-2.4536,-2.4089,-2.359,-2.3185,-2.2969,-2.2555,-2.2125,-2.1873,-2.1813,-2.174,-2.1464,-2.1211,-2.0947,-2.0658,-2.061,-2.0791,-2.1308,-2.162,-2.1873,-2.2149,-2.2197,-2.2197,-2.2197,-2.2197,-2.2197,-2.2197,-2.2197,-2.2197,-2.2197,-2.2197,-2.2197,-2.2197,-2.2197,-2.2197,-2.2197,-2.2197,-2.2197,-2.2197,-2.2049,-2.1956,-2.1956,-2.1443,-2.1083,-2.0903,-2.0743,-2.0464,0.0,0.0,0.0,0.0,-2.9607,0.0,-2.909,-2.8728,-2.8383,-2.8669,-2.8675,-2.8637,-2.8637,-2.8637,-2.8589,-2.8431,-2.7846,-2.7363,-2.7206,-2.6398,-2.604,-2.6706,-2.6381,-2.6331,-2.6954,-2.6822,-2.6691,-2.6691,-2.6691,-2.6691,-2.6691,-2.6691,-2.6742,-2.6859,-2.6893,-2.6893,-2.6893,-2.6909,-2.6674,-2.6245,-2.6192,-2.5799,-2.5137,-2.4675,-2.4405,-2.4302,-2.4302,-2.4687,-2.5342,-2.6019,-2.6726,-2.7457,-2.815,-2.8048,-2.7439,-2.6886,-2.6363,-2.5811,-2.5202,-2.5005,-2.5005,-2.5005,-2.5005,-2.5005,-2.5005,-2.5005,-2.492,-2.4523,-2.4076,-2.3649,-2.3245,-2.2713,-2.2177,-2.165,-2.1366,-2.124,-2.1247,-2.0634,-2.0193,-2.0531,-2.0326,-2.0374,-2.1247,-2.1849,-2.2197,-2.2197,-2.2197,-2.2197,-2.2197,-2.2197,-2.2197,-2.2197,-2.2197,-2.2197,-2.2197,-2.2197,-2.2197,-2.2197,-2.2197,-2.2197,-2.2197,-2.2197,-2.2197,-2.2197,-2.1851,-2.1683,-2.162,-2.0924,-2.0603,-2.0571,-2.027,-2.0118,0.0,0.0,0.0,0.0,-2.9676,-2.8879,0.0,0.0,-2.8069,-2.8383,-2.8619,-2.8761,-2.8761,-2.8761,-2.8543,-2.7767,-2.7567,-2.7217,-2.6457,-2.6039,-2.5838,-2.595,-2.6048,-2.6139,-2.6243,-2.6515,-2.6691,-2.6691,-2.6691,-2.6691,-2.6691,-2.6691,-2.6708,-2.6742,-2.6842,-2.6893,-2.6893,-2.6959,-2.6942,-2.6892,-2.6521,-2.6279,-2.6101,-2.5403,-2.4779,-2.4302,-2.4302,-2.4687,-2.5342,-2.6019,-2.6726,-2.7457,-2.815,-2.8048,-2.7439,-2.6886,-2.6363,-2.5811,-2.5202,-2.5005,-2.5005,-2.5005,-2.5005,-2.5005,-2.5005,-2.5005,-2.4977,-2.492,-2.4565,-2.4192,-2.4118,-2.3364,-2.2517,-2.2106,-2.1246,-2.0563,-2.0668,-2.0971,-2.1067,-2.0682,-2.0923,-2.1235,-2.138,-2.1849,-2.2197,-2.2197,-2.2197,-2.2197,-2.2197,-2.2197,-2.2197,-2.2197,-2.2197,-2.2197,-2.2197,-2.2197,-2.2197,-2.2197,-2.2197,-2.2197,-2.2197,-2.2197,-2.2197,-2.2197,-2.1851,-2.1557,-2.1253,-2.0828,-2.0603,-2.0571,-2.027,-2.0118,-2.8696,0.0,0.0,0.0,-3.056,-2.9952,-3.045,-2.9457,-2.8494,-2.8826,-2.8631,-2.8482,-2.8749,-2.8798,-2.853,-2.7681,-2.7171,-2.6531,-2.5556,-2.4831,-2.4477,-2.4703,-2.4676,-2.4797,-2.5162,-2.5364,-2.5642,-2.6048,-2.6082,-2.6251,-2.6674,-2.6691,-2.6742,-2.6809,-2.6859,-2.6926,-2.6959,-2.6992,-2.6991,-2.6991,-2.6825,-2.6607,-2.6349,-2.6013,-2.5462,-2.4751,-2.4549,-2.4637,-2.4963,-2.5675,-2.6329,-2.6964,-2.762,-2.7946,-2.7889,-2.6936,-2.6491,-2.6213,-2.5215,-2.4929,-2.5005,-2.5005,-2.5005,-2.5005,-2.5005,-2.5005,-2.4937,-2.4598,-2.4169,-2.371,-2.338,-2.2743,-2.2082,-2.161,-2.11,-2.0688,-2.0527,-2.0491,-2.043,-2.0189,-2.0586,-2.0863,-2.055,-2.0947,-2.1308,-2.1308,-2.156,-2.1753,-2.1753,-2.2005,-2.2197,-2.2197,-2.2197,-2.2197,-2.2197,-2.2197,-2.2197,-2.2197,-2.2197,-2.2197,-2.2197,-2.2197,-2.2123,-2.1925,-2.1788,-2.1537,-2.119,-2.0807,-2.0518,-2.0335,-2.0183,-2.0118,0.0,0.0,0.0,-3.1282,-3.0955,-3.0491,0.0,-2.9944,-2.9008,-2.9148,-2.8706,-2.8352,-2.8574,-2.8682,-2.8445,-2.7472,-2.6819,-2.5965,-2.4676,-2.3808,-2.3393,-2.3632,-2.3744,-2.4001,-2.4501,-2.4893,-2.525,-2.5591,-2.5778,-2.6065,-2.6437,-2.664,-2.6792,-2.6893,-2.6925,-2.6958,-2.6991,-2.7057,-2.7089,-2.7089,-2.7089,-2.6892,-2.6573,-2.6504,-2.6103,-2.5441,-2.4958,-2.4675,-2.4672,-2.5404,-2.5917,-2.632,-2.6978,-2.752,-2.7755,-2.6651,-2.6421,-2.6487,-2.5419,-2.5198,-2.5398,-2.5272,-2.523,-2.5202,-2.5061,-2.5005,-2.4924,-2.4448,-2.3984,-2.3467,-2.3016,-2.2429,-2.1794,-2.1301,-2.1068,-2.086,-2.048,-2.0193,-1.9985,-1.9985,-2.0334,-2.0461,-2.0057,-2.0334,-2.061,-2.0581,-2.1067,-2.1404,-2.1404,-2.1873,-2.2197,-2.2197,-2.2197,-2.2197,-2.2197,-2.2197,-2.2197,-2.2197,-2.2197,-2.2197,-2.2197,-2.2197,-2.2092,-2.1819,-2.1819,-2.1632,-2.119,-2.0807,-2.0485,-2.0237,-2.0151,-2.0118,0.0,-2.8489,0.0,-3.0368,-3.0144,-2.9765,-3.0542,-3.0076,-2.9348,-2.8903,-2.8789,-2.8632,-2.82,-2.8404,-2.8173,-2.6768,-2.6527,-2.5827,-2.392,-2.3452,-2.3211,-2.2984,-2.3952,-2.4652,-2.4686,-2.5954,-2.6468,-2.5756,-2.6267,-2.6386,-2.579,-2.6485,-2.6893,-2.6893,-2.7023,-2.7054,-2.6991,-2.7186,-2.7283,-2.7283,-2.7283,-2.7201,-2.7053,-2.6808,-2.6624,-2.647,-2.5556,-2.4938,-2.4672,-2.5404,-2.5637,-2.5608,-2.6289,-2.6531,-2.6427,-2.5808,-2.5971,-2.6426,-2.5835,-2.6063,-2.6534,-2.6015,-2.5839,-2.5757,-2.5174,-2.5005,-2.4991,-2.4964,-2.4529,-2.4055,-2.4028,-2.3162,-2.2168,-2.1758,-2.122,-2.0742,-2.0473,-2.047,-2.0574,-2.0574,-2.0598,-2.0581,-2.0545,-2.0574,-2.0615,-2.061,-2.1067,-2.1404,-2.1404,-2.1873,-2.2197,-2.2197,-2.2197,-2.2197,-2.2197,-2.2197,-2.2197,-2.2197,-2.2197,-2.2197,-2.2197,-2.2197,-2.2185,-2.2154,-2.2154,-2.1831,-2.119,-2.0807,-2.0571,-2.0582,-2.0237,-2.0118,0.0,0.0,0.0,-3.03,-3.0472,-3.0351,-3.0627,-3.0472,-3.0214,-3.004,-2.9224,-2.8538,-2.8546,-2.8569,-2.8207,-2.6951,-2.65,-2.5753,-2.4206,-2.3523,-2.3228,-2.3377,-2.3804,-2.4232,-2.4716,-2.525,-2.5595,-2.5687,-2.5926,-2.6181,-2.6468,-2.674,-2.6926,-2.6958,-2.7007,-2.7039,-2.7054,-2.7217,-2.7299,-2.7299,-2.7299,-2.7266,-2.7217,-2.7121,-2.6941,-2.6641,-2.6314,-2.5943,-2.5572,-2.558,-2.5771,-2.6075,-2.6073,-2.6271,-2.6581,-2.6356,-2.6435,-2.6591,-2.642,-2.6512,-2.6599,-2.6069,-2.5893,-2.5784,-2.5174,-2.5005,-2.4924,-2.4516,-2.3987,-2.3432,-2.3065,-2.2346,-2.1686,-2.1538,-2.1141,-2.0787,-2.0693,-2.0815,-2.0876,-2.0533,-2.054,-2.0394,-1.9696,-1.9564,-1.9579,-1.9576,-2.0334,-2.0887,-2.0904,-2.1675,-2.2197,-2.2197,-2.2197,-2.2197,-2.2197,-2.2197,-2.2197,-2.2197,-2.2197,-2.2197,-2.2197,-2.2197,-2.2197,-2.2197,-2.2197,-2.1968,-2.1526,-2.1368,-2.1051,-2.0603,-2.0485,-2.0302,-2.8799,0.0,0.0,0.0,-3.0489,-3.042,-3.0938,-3.0869,-3.061,-3.0351,-2.9472,-2.8676,-2.8345,-2.8312,-2.7977,-2.7041,-2.6641,-2.5989,-2.4743,-2.4151,-2.3907,-2.4118,-2.4336,-2.4668,-2.5185,-2.54,-2.5624,-2.5908,-2.6101,-2.6404,-2.6833,-2.7108,-2.7293,-2.7369,-2.7355,-2.7322,-2.7307,-2.7388,-2.7392,-2.7299,-2.7299,-2.7299,-2.7299,-2.7299,-2.7153,-2.6891,-2.6891,-2.6607,-2.6068,-2.567,-2.5721,-2.6017,-2.5629,-2.5681,-2.5991,-2.6002,-2.63,-2.6702,-2.6702,-2.7016,-2.7312,-2.6745,-2.6431,-2.6136,-2.5646,-2.5272,-2.4952,-2.4751,-2.3986,-2.3133,-2.2854,-2.2095,-2.1399,-2.1399,-2.1191,-2.1006,-2.1006,-2.0927,-2.0749,-2.0412,-2.0407,-2.0241,-1.9531,-1.9303,-1.9251,-1.9382,-1.9922,-2.0378,-2.0536,-2.1179,-2.1728,-2.1909,-2.1921,-2.2005,-2.2173,-2.2197,-2.2197,-2.2197,-2.2197,-2.2197,-2.2197,-2.2197,-2.2197,-2.2197,-2.2197,-2.2092,-2.1851,-2.158,-2.1175,-2.0694,-2.0284,-2.0011,0.0,0.0,0.0,0.0,-3.0093,-2.9886,-3.1386,-3.1196,-3.0472,-2.9696,-2.9506,-2.9041,-2.7609,-2.7529,-2.751,-2.7014,-2.6894,-2.6517,-2.548,-2.5302,-2.5237,-2.5052,-2.5603,-2.6035,-2.6128,-2.6612,-2.6781,-2.6454,-2.6909,-2.71,-2.6835,-2.7504,-2.7968,-2.8102,-2.8037,-2.7915,-2.7698,-2.7698,-2.7569,-2.7297,-2.7297,-2.7315,-2.7299,-2.7299,-2.7299,-2.7299,-2.7299,-2.6858,-2.6087,-2.5707,-2.5484,-2.5368,-2.497,-2.4746,-2.4609,-2.4625,-2.5519,-2.6726,-2.6742,-2.7625,-2.8684,-2.81,-2.7449,-2.6875,-2.6602,-2.5838,-2.5174,-2.5757,-2.461,-2.328,-2.3577,-2.2531,-2.1423,-2.1399,-2.1399,-2.1399,-2.1399,-2.0797,-2.0233,-2.0233,-2.022,-2.022,-2.0207,-1.9875,-1.9734,-2.0131,-1.9996,-1.9973,-2.0343,-2.0515,-2.0815,-2.132,-2.138,-2.1584,-2.2101,-2.2149,-2.2149,-2.2173,-2.2173,-2.2173,-2.2197,-2.2197,-2.2197,-2.2197,-2.2197,-2.2185,-2.2161,-2.1329,-2.0917,-2.0875,-1.9651,-1.9213,-2.8851,0.0,0.0,0.0,0.0,0.0,-3.0041,-3.042,-3.0645,-3.0403,-2.9472,-2.8747,-2.8868,-2.8087,-2.7367,-2.7217,-2.69,-2.6486,-2.5947,-2.5418,-2.525,-2.573,-2.5958,-2.6303,-2.6902,-2.7098,-2.7116,-2.6921,-2.7263,-2.7447,-2.7385,-2.7802,-2.8061,-2.8102,-2.8088,-2.8047,-2.7978,-2.7978,-2.7855,-2.7585,-2.7585,-2.7481,-2.7299,-2.7299,-2.7299,-2.7299,-2.7299,-2.7169,-2.6941,-2.6522,-2.6192,-2.587,-2.5462,-2.515,-2.4949,-2.5417,-2.6146,-2.6914,-2.7393,-2.8115,-2.8684,-2.81,-2.7775,-2.755,-2.7052,-2.6534,-2.6109,-2.6297,-2.5111,-2.3536,-2.2588,-2.2007,-2.164,-2.1447,-2.1399,-2.1399,-2.1399,-2.1229,-2.097,-2.0684,-2.0694,-2.0655,-2.0271,-2.0105,-2.008,-2.0182,-2.0472,-2.0613,-2.0424,-2.077,-2.0978,-2.0849,-2.0827,-2.0887,-2.1043,-2.1031,-2.1217,-2.1596,-2.162,-2.1789,-2.2173,-2.2197,-2.2197,-2.2197,-2.2197,-2.2005,-2.162,-2.1374,-2.114,-2.0875,-1.9651,-1.9025,-2.8849,-2.8419,-2.8144,-2.9782,0.0,0.0,-2.9437,-2.9627,-2.9834,-3.0144,-2.9489,-2.8903,-2.9023,-2.8334,-2.7661,-2.7351,-2.7072,-2.682,-2.664,-2.623,-2.6126,-2.6557,-2.6561,-2.6733,-2.7247,-2.7218,-2.7217,-2.7308,-2.7582,-2.7858,-2.812,-2.8347,-2.8482,-2.8482,-2.8482,-2.8412,-2.8308,-2.8308,-2.8106,-2.7701,-2.7701,-2.7554,-2.7299,-2.7299,-2.7299,-2.7299,-2.7299,-2.7299,-2.7283,-2.7056,-2.6607,-2.6052,-2.567,-2.5307,-2.5065,-2.574,-2.6425,-2.707,-2.7746,-2.8409,-2.8873,-2.8527,-2.8207,-2.7938,-2.7735,-2.7246,-2.6712,-2.6517,-2.5175,-2.3505,-2.2281,-2.1973,-2.1926,-2.1769,-2.1664,-2.1616,-2.1712,-2.1664,-2.1458,-2.1104,-2.1111,-2.1066,-2.0763,-2.0548,-2.0523,-2.0673,-2.0681,-2.0629,-2.0577,-2.0697,-2.0702,-2.055,-2.0531,-2.0528,-2.0598,-2.0598,-2.073,-2.1055,-2.1284,-2.1548,-2.1849,-2.1861,-2.1969,-2.2185,-2.1981,-2.1596,-2.1079,-2.1079,-2.0681,-1.9912,-1.9091,-1.8635,-2.8708,-2.8642,-2.8696,-2.9455,-2.9144,0.0,-2.9265,-2.8937,-2.8678,-2.9265,-2.9317,-2.9075,-2.8506,-2.8334,-2.8058,-2.7402,-2.7368,-2.742,-2.742,-2.7351,-2.7333,-2.7402,-2.7235,-2.7168,-2.7282,-2.7138,-2.7185,-2.7542,-2.7786,-2.8215,-2.8881,-2.8964,-2.9005,-2.9005,-2.9005,-2.8881,-2.8657,-2.8639,-2.8352,-2.7786,-2.7757,-2.7615,-2.7345,-2.7297,-2.7299,-2.7299,-2.7299,-2.7299,-2.7299,-2.7299,-2.6825,-2.6052,-2.5707,-2.5346,-2.5065,-2.5661,-2.6356,-2.7067,-2.7652,-2.8316,-2.8893,-2.8956,-2.8599,-2.8139,-2.8379,-2.7817,-2.6954,-2.6298,-2.4893,-2.334,-2.2456,-2.2254,-2.2254,-2.2208,-2.202,-2.1926,-2.2161,-2.202,-2.1769,-2.1544,-2.1496,-2.1496,-2.1496,-2.1177,-2.108,-2.1447,-2.0871,-2.051,-2.0795,-2.0535,-2.0335,-2.0368,-2.0391,-2.0412,-2.0479,-2.0487,-2.0511,-2.0571,-2.1017,-2.1336,-2.1426,-2.1397,-2.1584,-2.2097,-2.1518,-2.0995,-2.0526,-2.0526,-1.9857,-1.8587,-1.829,-1.8202,-3.0128,-2.9799,-2.9489,-3.0265,-3.0369,0.0,-2.8868,-2.8972,-2.9161,-2.8713,-2.8144,-2.7868,-2.8316,-2.7902,-2.7471,-2.7316,-2.7799,-2.8178,-2.8178,-2.7661,-2.7523,-2.8109,-2.7628,-2.7266,-2.7299,-2.725,-2.7266,-2.7345,-2.78,-2.8334,-2.894,-2.8994,-2.9005,-2.9005,-2.9005,-2.8964,-2.8917,-2.8917,-2.8755,-2.8422,-2.8161,-2.7883,-2.7597,-2.739,-2.7299,-2.7299,-2.7299,-2.7299,-2.7299,-2.7299,-2.6825,-2.6087,-2.6016,-2.5591,-2.5021,-2.5144,-2.5614,-2.623,-2.6356,-2.6878,-2.7589,-2.8126,-2.8217,-2.8104,-2.8171,-2.7651,-2.6657,-2.4884,-2.4103,-2.3614,-2.2749,-2.2509,-2.2463,-2.2254,-2.2161,-2.2137,-2.2184,-2.2161,-2.2114,-2.2067,-2.2044,-2.2044,-2.2044,-2.1983,-2.1959,-2.2044,-2.1912,-2.1636,-2.1188,-2.1066,-2.0823,-2.0297,-2.0233,-2.0128,-1.9821,-1.9807,-1.9966,-2.0409,-2.0533,-2.0918,-2.1703,-2.1405,-2.1284,-2.1395,-2.0556,-2.0045,-1.9965,-1.9965,-1.9502,-1.8587,-1.8533,-1.8266,-3.0316,-2.9954,-2.9712,-3.011,-2.9868,0.0,0.0,-2.8403,-2.8456,-2.863,-2.8235,-2.8026,-2.8545,-2.8218,-2.773,-2.7351,-2.7609,-2.7971,-2.8351,-2.8403,-2.8523,-2.8903,-2.8627,-2.8403,-2.8403,-2.8403,-2.8376,-2.8303,-2.8167,-2.8355,-2.897,-2.9005,-2.9005,-2.9005,-2.9005,-2.9005,-2.9005,-2.9005,-2.887,-2.8589,-2.8268,-2.795,-2.7701,-2.7421,-2.7299,-2.7299,-2.7299,-2.7299,-2.7299,-2.7299,-2.6924,-2.6367,-2.6192,-2.576,-2.5259,-2.5445,-2.5708,-2.6056,-2.6419,-2.6799,-2.7162,-2.7494,-2.7604,-2.7604,-2.7604,-2.6851,-2.5788,-2.4738,-2.3944,-2.3293,-2.2861,-2.2752,-2.2729,-2.2578,-2.2463,-2.2417,-2.2532,-2.2463,-2.2417,-2.2532,-2.2555,-2.2463,-2.2254,-2.2208,-2.2208,-2.2208,-2.2208,-2.2077,-2.1756,-2.1708,-2.1431,-2.0771,-2.0709,-2.0485,-1.9939,-1.972,-1.9702,-1.9975,-2.0248,-2.0603,-2.1069,-2.1108,-2.0999,-2.0806,-2.0134,-1.9808,-1.9808,-1.9543,-1.9198,-1.8801,-1.8667,-1.8425,-3.0502,-3.0245,-3.0092,-2.9796,-2.9296,-2.8746,0.0,0.0,0.0,-2.8404,-2.8254,-2.8134,-2.8523,-2.8305,-2.7873,-2.7272,-2.7371,-2.7697,-2.8217,-2.899,-2.9506,-2.9506,-2.9368,-2.9351,-2.9489,-2.9368,-2.9357,-2.9511,-2.8637,-2.8499,-2.9404,-2.917,-2.9078,-2.9225,-2.9078,-2.9005,-2.9005,-2.9005,-2.8893,-2.8663,-2.8347,-2.8051,-2.7771,-2.7496,-2.7345,-2.7299,-2.7299,-2.7299,-2.7299,-2.7299,-2.7105,-2.6775,-2.6367,-2.5926,-2.553,-2.5791,-2.5849,-2.5882,-2.6483,-2.6688,-2.672,-2.6846,-2.6893,-2.6872,-2.6808,-2.5905,-2.4874,-2.4728,-2.3874,-2.2978,-2.2925,-2.2888,-2.2888,-2.2888,-2.2775,-2.2706,-2.2865,-2.2775,-2.2706,-2.2865,-2.2888,-2.2775,-2.2394,-2.2324,-2.2324,-2.2324,-2.2324,-2.2324,-2.2278,-2.2278,-2.2053,-2.1455,-2.1382,-2.1115,-2.0447,-2.0093,-1.9875,-1.9824,-2.0225,-2.0503,-2.0583,-2.0754,-2.0675,-2.0236,-1.9843,-1.9652,-1.9624,-1.9218,-1.8987,-1.8987,-1.8774,-1.864,-3.1899,-3.1829,-3.1498,-3.0124,-3.0212,-3.0023,-2.7768,0.0,-2.7927,-2.7349,0.0,-2.6792,-2.7378,0.0,0.0,-2.6775,-2.762,-2.8183,-2.7912,-2.8819,-2.9506,-2.9506,-2.892,-2.8782,-2.9455,-2.892,-2.9042,-3.0273,-2.8959,-2.8981,-3.1011,-2.9757,-2.9335,-3.0044,-2.9372,-2.9005,-2.9005,-2.9005,-2.8975,-2.894,-2.8663,-2.836,-2.8047,-2.7771,-2.7509,-2.7299,-2.7299,-2.7299,-2.7299,-2.7299,-2.7266,-2.7202,-2.6792,-2.6175,-2.5503,-2.5543,-2.5378,-2.5128,-2.5207,-2.5238,-2.5333,-2.593,-2.6119,-2.6057,-2.5768,-2.5154,-2.442,-2.3779,-2.3466,-2.3268,-2.2978,-2.2888,-2.2888,-2.2888,-2.2865,-2.2865,-2.2888,-2.2865,-2.2865,-2.2888,-2.2888,-2.2865,-2.282,-2.282,-2.282,-2.282,-2.282,-2.2752,-2.2578,-2.2555,-2.244,-2.2123,-2.2077,-2.1803,-2.1126,-2.1028,-2.0919,-2.0671,-2.0712,-2.0901,-2.1274,-2.0652,-2.0092,-1.9703,-1.9283,-1.9083,-1.9083,-1.9023,-1.8987,-1.8987,-1.896,-1.8827,-3.2267,-3.1899,-3.1359,-3.073,-3.007,-2.9241,-2.8027,-2.7652,-2.7485,-2.7178,0.0,0.0,0.0,0.0,0.0,0.0,-2.6757,-2.701,-2.6853,-2.7227,-2.8201,-2.9971,-2.9506,-2.9351,-3.011,-2.9489,-2.9634,-3.1024,-2.969,-2.9557,-3.1317,-3.076,-3.0558,-3.0889,-3.0577,-3.0173,-2.9702,-2.9702,-2.9464,-2.8994,-2.8731,-2.843,-2.8102,-2.7811,-2.7539,-2.7299,-2.7299,-2.7299,-2.7299,-2.7299,-2.7299,-2.725,-2.6858,-2.635,-2.5799,-2.5365,-2.5127,-2.5005,-2.5005,-2.5005,-2.5049,-2.5333,-2.5428,-2.5388,-2.5251,-2.4879,-2.438,-2.3903,-2.3573,-2.3334,-2.3,-2.2888,-2.2888,-2.2888,-2.2888,-2.2888,-2.2888,-2.2888,-2.2888,-2.2888,-2.2888,-2.2888,-2.2888,-2.2888,-2.2888,-2.2888,-2.2888,-2.2865,-2.2775,-2.2775,-2.2684,-2.2463,-2.2417,-2.2263,-2.1827,-2.1565,-2.1323,-2.1066,-2.0894,-2.0883,-2.1031,-2.0734,-2.0459,-2.0308,-1.9682,-1.9356,-1.9356,-1.9119,-1.8987,-1.8987,-1.8987,-1.8934,-3.2335,-3.1775,-3.1077,-3.0867,-2.9908,-2.8836,-2.8143,-2.7513,-2.706,-2.7015,-2.6733,0.0,0.0,0.0,-2.6191,-2.605,0.0,-2.6052,-2.5944,-2.6034,-2.7037,-2.9589,-2.9679,-2.973,-3.03,-2.9661,-2.9846,-3.1363,-3.0041,-2.9972,-3.183,-3.1508,-3.1419,-3.1715,-3.1513,-3.1109,-3.0522,-3.0344,-2.9921,-2.934,-2.8889,-2.8469,-2.8116,-2.7858,-2.7569,-2.7299,-2.7299,-2.7299,-2.7299,-2.7299,-2.7234,-2.7088,-2.6691,-2.628,-2.5872,-2.5326,-2.5068,-2.5005,-2.5005,-2.5005,-2.5005,-2.5005,-2.5005,-2.5005,-2.5005,-2.4826,-2.458,-2.4234,-2.3925,-2.3616,-2.3275,-2.3135,-2.3031,-2.3031,-2.2978,-2.2888,-2.2888,-2.2888,-2.2888,-2.2888,-2.2888,-2.2888,-2.2888,-2.2888,-2.2888,-2.2888,-2.2888,-2.2888,-2.2888,-2.2888,-2.2843,-2.2706,-2.2684,-2.2578,-2.2324,-2.2044,-2.1722,-2.1382,-2.1177,-2.1006,-2.0795,-2.0795,-2.0759,-2.0635,-1.9965,-1.9617,-1.9617,-1.9198,-1.8987,-1.8987,-1.8987,-1.8987,-3.2177,-3.1809,-3.1036,-3.0301,-3.009,-2.9588,-2.7832,-2.7217,-2.6907,-2.659,-2.619,-2.6026,-2.6365,-2.6101,-2.5815,-2.5815,-2.5979,0.0,0.0,-2.5854,-2.6546,-2.7757,-2.8836,-2.9523,-2.9541,-2.8868,-2.9207,-3.1072,-2.972,-3.0118,-3.3092,-3.1767,-3.1433,-3.2528,-3.1806,-3.1397,-3.136,-3.0649,-3.0268,-3.0249,-2.9265,-2.8583,-2.8183,-2.7929,-2.7615,-2.7299,-2.7299,-2.7299,-2.7299,-2.7299,-2.7072,-2.6674,-2.628,-2.5872,-2.5521,-2.5503,-2.5269,-2.5005,-2.5005,-2.5005,-2.5005,-2.5005,-2.5005,-2.5005,-2.5005,-2.4985,-2.4906,-2.458,-2.4477,-2.4395,-2.4046,-2.3674,-2.3384,-2.3384,-2.3127,-2.2888,-2.2888,-2.2888,-2.2888,-2.2888,-2.2888,-2.2888,-2.2888,-2.2888,-2.2888,-2.2888,-2.2888,-2.2888,-2.2888,-2.2888,-2.2888,-2.2888,-2.2888,-2.2797,-2.2615,-2.2578,-2.2347,-2.1817,-2.1769,-2.1482,-2.0833,-2.0795,-2.061,-2.0233,-1.9811,-1.9617,-1.9617,-1.9198,-1.8987,-1.8987,-1.8987,-1.8987,-3.0808,-3.0299,-2.9755,-3.0036,-2.9299,-2.8448,-2.8197,-2.7544,-2.6924,-2.6624,-2.6329,-2.6079,-2.6081,-2.5956,-2.5772,-2.5511,-2.553,-2.5492,0.0,-2.5481,-2.5844,-2.6237,-2.8003,-2.897,-2.8424,-2.839,-2.9173,-3.1055,-3.0194,-3.0576,-3.2847,-3.2664,-3.2661,-3.3051,-3.3057,-3.2801,-3.2274,-3.2054,-3.1323,-3.0113,-2.9765,-2.9021,-2.801,-2.7897,-2.7716,-2.7436,-2.7392,-2.7378,-2.736,-2.733,-2.7072,-2.6657,-2.6263,-2.5854,-2.5465,-2.525,-2.5107,-2.5005,-2.5005,-2.5005,-2.5005,-2.5005,-2.5005,-2.5005,-2.5005,-2.5005,-2.4926,-2.46,-2.4498,-2.4416,-2.4088,-2.3903,-2.3797,-2.3797,-2.3711,-2.356,-2.3282,-2.3238,-2.3172,-2.2933,-2.2888,-2.2888,-2.2888,-2.2888,-2.2888,-2.2888,-2.2888,-2.2888,-2.2888,-2.2888,-2.2888,-2.2888,-2.2888,-2.2865,-2.2797,-2.2684,-2.2417,-2.1973,-2.1841,-2.1565,-2.1091,-2.1153,-2.1142,-2.0995,-2.0346,-2.0003,-2.0003,-1.933,-1.8987,-1.8987,-1.8987,-1.8987,-3.0036,-2.9509,-2.9018,-2.9544,-2.8895,-2.813,-2.8186,-2.7654,-2.707,-2.6825,-2.6555,-2.6311,-2.6189,-2.6026,-2.5844,-2.568,-2.5451,-2.5236,0.0,-2.5188,-2.531,-2.531,-2.6877,-2.782,-2.7435,-2.764,-2.8576,-3.0435,-3.012,-3.0634,-3.2563,-3.2968,-3.3229,-3.3412,-3.3762,-3.3694,-3.3178,-3.2845,-3.1929,-3.0472,-2.9971,-2.9121,-2.7926,-2.7844,-2.7686,-2.7496,-2.7452,-2.7438,-2.7405,-2.7217,-2.6891,-2.6471,-2.6052,-2.5668,-2.5307,-2.5068,-2.5005,-2.5005,-2.5005,-2.5005,-2.5005,-2.5005,-2.5005,-2.5005,-2.5005,-2.5005,-2.4946,-2.4742,-2.4681,-2.4641,-2.4421,-2.4276,-2.4187,-2.4187,-2.3982,-2.3717,-2.345,-2.3312,-2.315,-2.2933,-2.3099,-2.3258,-2.3258,-2.3432,-2.3409,-2.296,-2.2888,-2.2888,-2.2888,-2.2888,-2.2888,-2.2888,-2.2888,-2.2888,-2.2888,-2.2775,-2.2555,-2.2231,-2.2137,-2.1803,-2.1224,-2.142,-2.1434,-2.1191,-2.0698,-2.0422,-2.0422,-1.9604,-1.9225,-1.9198,-1.9066,-1.8987]},{"header":{"parameterUnit":"m.s-1","parameterCategory":1,"la1":30.6,"la2":29.2853,"lo1":-89.7004,"lo2":-87.6739,"dy":0.0162,"dx":0.0183,"nx":112,"ny":82,"refTime":"2025-07-07T00:00:00:Z","depth":0,"parameterNumber":3,"parameterNumberName":"V-component_of_WINDS"},"data":[0.0,0.0,0.0,0.0,0.0,0.0,0.0,0.0,0.0,0.0,0.0,0.0,0.0,0.0,0.0,0.0,0.0,0.0,0.0,0.0,0.0,0.0,0.0,0.0,0.0,0.0,0.0,0.0,0.0,0.0,0.0,0.0,0.0,0.0,0.0,0.0,0.0,0.0,0.0,0.0,0.0,0.0,0.0,0.0,0.0,0.0,0.0,0.0,0.0,0.0,0.0,0.0,0.0,0.0,0.0,0.0,0.0,0.0,0.0,0.0,0.0,0.0,0.0,0.0,0.0,0.0,0.0,0.0,0.0,0.0,0.0,0.0,0.0,0.0,0.0,0.0,0.0,0.0,0.0,0.0,0.0,0.0,0.0,0.0,0.0,0.0,0.0,0.0,0.0,0.0,-1.9519,-1.9035,-1.8987,-1.8987,-1.8987,-2.0016,-2.0696,-2.0795,0.0,0.0,0.0,0.0,0.0,0.0,0.0,0.0,0.0,0.0,0.0,0.0,0.0,0.0,0.0,0.0,0.0,0.0,0.0,0.0,0.0,0.0,0.0,0.0,0.0,0.0,0.0,0.0,0.0,0.0,0.0,0.0,0.0,0.0,0.0,0.0,0.0,0.0,0.0,0.0,0.0,0.0,0.0,0.0,0.0,0.0,0.0,0.0,0.0,0.0,0.0,0.0,0.0,0.0,0.0,0.0,0.0,0.0,0.0,0.0,0.0,0.0,0.0,0.0,0.0,0.0,0.0,0.0,0.0,0.0,0.0,0.0,0.0,0.0,0.0,0.0,0.0,0.0,0.0,0.0,0.0,0.0,0.0,0.0,0.0,0.0,0.0,0.0,0.0,0.0,0.0,0.0,0.0,0.0,0.0,0.0,0.0,0.0,0.0,0.0,0.0,0.0,0.0,0.0,-1.9083,-1.8999,-1.8987,-1.8987,-1.8987,-1.9695,-2.0321,-2.0771,0.0,0.0,0.0,0.0,0.0,0.0,0.0,0.0,0.0,0.0,0.0,0.0,0.0,0.0,0.0,0.0,0.0,0.0,0.0,0.0,0.0,0.0,0.0,0.0,0.0,0.0,0.0,0.0,0.0,0.0,0.0,0.0,0.0,0.0,0.0,0.0,0.0,0.0,0.0,0.0,0.0,0.0,0.0,0.0,0.0,0.0,0.0,0.0,0.0,0.0,0.0,0.0,0.0,0.0,0.0,0.0,0.0,0.0,0.0,0.0,0.0,0.0,0.0,0.0,0.0,0.0,0.0,0.0,0.0,0.0,0.0,0.0,0.0,0.0,0.0,0.0,0.0,0.0,0.0,0.0,0.0,0.0,0.0,0.0,0.0,0.0,0.0,0.0,0.0,0.0,0.0,0.0,0.0,0.0,0.0,0.0,0.0,0.0,0.0,0.0,0.0,0.0,0.0,-1.8987,-1.8987,-1.8987,-1.9078,-1.9117,-1.9117,-2.0055,-2.0758,-2.0993,-2.217,0.0,0.0,0.0,0.0,0.0,0.0,0.0,0.0,0.0,0.0,0.0,0.0,0.0,0.0,0.0,0.0,0.0,0.0,0.0,0.0,0.0,0.0,0.0,0.0,0.0,0.0,0.0,0.0,0.0,0.0,0.0,0.0,0.0,0.0,0.0,0.0,0.0,0.0,0.0,0.0,0.0,0.0,0.0,0.0,0.0,0.0,0.0,0.0,0.0,0.0,0.0,0.0,0.0,0.0,0.0,0.0,0.0,0.0,0.0,0.0,0.0,0.0,0.0,0.0,0.0,0.0,0.0,0.0,0.0,0.0,0.0,0.0,0.0,0.0,0.0,0.0,0.0,0.0,0.0,0.0,0.0,0.0,0.0,0.0,0.0,0.0,0.0,0.0,0.0,0.0,0.0,0.0,0.0,0.0,0.0,0.0,0.0,0.0,0.0,0.0,0.0,0.0,-1.8987,-1.9013,-1.9052,-1.9143,-1.9249,-1.942,-2.0522,-2.1248,-2.1382,-2.2333,0.0,0.0,0.0,0.0,0.0,0.0,0.0,0.0,0.0,0.0,0.0,0.0,0.0,0.0,0.0,0.0,0.0,0.0,0.0,0.0,0.0,0.0,0.0,0.0,0.0,0.0,0.0,0.0,0.0,0.0,0.0,0.0,0.0,0.0,0.0,0.0,0.0,0.0,0.0,0.0,0.0,0.0,0.0,0.0,0.0,0.0,0.0,0.0,0.0,0.0,0.0,0.0,0.0,0.0,0.0,0.0,0.0,0.0,0.0,0.0,0.0,0.0,0.0,0.0,0.0,0.0,0.0,0.0,0.0,0.0,0.0,0.0,0.0,0.0,0.0,0.0,0.0,0.0,0.0,0.0,0.0,0.0,0.0,0.0,0.0,0.0,0.0,0.0,0.0,0.0,0.0,0.0,0.0,0.0,0.0,0.0,0.0,0.0,0.0,0.0,0.0,0.0,-1.8987,-1.9052,-1.917,-1.9196,-1.9447,-2.0093,-2.0782,-2.1407,-2.1912,-2.2555,0.0,0.0,0.0,0.0,0.0,0.0,0.0,0.0,0.0,0.0,0.0,0.0,0.0,0.0,0.0,0.0,0.0,0.0,0.0,0.0,0.0,0.0,0.0,0.0,0.0,0.0,0.0,0.0,0.0,0.0,0.0,0.0,0.0,0.0,0.0,0.0,0.0,0.0,0.0,0.0,0.0,0.0,0.0,0.0,0.0,0.0,0.0,0.0,0.0,0.0,0.0,0.0,0.0,0.0,0.0,0.0,0.0,0.0,0.0,0.0,0.0,0.0,0.0,0.0,0.0,0.0,0.0,0.0,0.0,0.0,0.0,0.0,0.0,0.0,0.0,0.0,0.0,0.0,0.0,0.0,0.0,0.0,0.0,0.0,0.0,0.0,0.0,0.0,0.0,0.0,0.0,0.0,0.0,0.0,0.0,0.0,0.0,0.0,0.0,0.0,0.0,0.0,-1.9263,-1.9408,-1.9773,-1.9888,-2.0195,-2.0782,-2.1431,-2.1898,-2.2114,0.0,0.0,0.0,0.0,0.0,0.0,0.0,0.0,0.0,0.0,0.0,0.0,0.0,0.0,0.0,0.0,0.0,0.0,0.0,0.0,0.0,0.0,0.0,0.0,0.0,0.0,0.0,0.0,0.0,0.0,0.0,0.0,0.0,0.0,0.0,0.0,0.0,0.0,0.0,0.0,0.0,0.0,0.0,0.0,0.0,0.0,0.0,0.0,0.0,0.0,0.0,0.0,0.0,0.0,0.0,0.0,0.0,0.0,0.0,0.0,0.0,0.0,0.0,0.0,0.0,0.0,0.0,0.0,0.0,0.0,0.0,0.0,0.0,0.0,0.0,0.0,0.0,0.0,0.0,0.0,0.0,0.0,0.0,0.0,0.0,0.0,0.0,0.0,0.0,0.0,0.0,0.0,0.0,0.0,0.0,0.0,0.0,0.0,0.0,0.0,0.0,0.0,-1.9863,-1.9914,-2.0055,-2.0459,-2.0597,-2.0894,-2.1479,-2.1935,-2.2193,-2.2133,0.0,0.0,0.0,0.0,0.0,0.0,0.0,0.0,0.0,0.0,0.0,0.0,0.0,0.0,0.0,0.0,0.0,0.0,0.0,0.0,0.0,0.0,0.0,0.0,0.0,0.0,0.0,0.0,0.0,0.0,0.0,0.0,0.0,0.0,0.0,0.0,0.0,0.0,0.0,0.0,0.0,0.0,0.0,0.0,0.0,0.0,0.0,0.0,0.0,0.0,0.0,0.0,0.0,0.0,0.0,0.0,0.0,0.0,0.0,0.0,0.0,0.0,0.0,0.0,0.0,0.0,0.0,0.0,0.0,0.0,0.0,0.0,0.0,0.0,0.0,0.0,0.0,0.0,0.0,0.0,0.0,0.0,0.0,0.0,0.0,0.0,0.0,0.0,0.0,0.0,0.0,0.0,0.0,0.0,0.0,0.0,0.0,0.0,0.0,0.0,0.0,0.0,-2.0913,-2.0993,-2.1066,-2.1199,-2.1199,-2.1479,-2.2147,-2.2208,-2.2161,0.0,0.0,0.0,0.0,0.0,0.0,0.0,0.0,0.0,0.0,0.0,0.0,0.0,0.0,0.0,0.0,0.0,0.0,0.0,0.0,0.0,0.0,0.0,0.0,0.0,0.0,0.0,0.0,0.0,0.0,0.0,0.0,0.0,0.0,0.0,0.0,0.0,0.0,0.0,0.0,0.0,0.0,0.0,0.0,0.0,0.0,0.0,0.0,0.0,0.0,0.0,0.0,0.0,0.0,0.0,0.0,0.0,0.0,0.0,0.0,0.0,0.0,0.0,0.0,0.0,0.0,0.0,0.0,0.0,0.0,0.0,0.0,0.0,0.0,0.0,0.0,0.0,0.0,0.0,0.0,0.0,0.0,0.0,0.0,0.0,0.0,0.0,0.0,0.0,0.0,0.0,0.0,0.0,0.0,0.0,0.0,0.0,0.0,0.0,0.0,0.0,0.0,0.0,-2.1167,-2.1272,-2.1455,-2.1851,-2.1912,-2.2123,-2.2661,-2.2684,-2.268,-2.2649,0.0,0.0,0.0,0.0,0.0,0.0,0.0,0.0,0.0,0.0,0.0,0.0,0.0,0.0,0.0,0.0,0.0,0.0,0.0,0.0,0.0,0.0,0.0,0.0,0.0,0.0,0.0,0.0,0.0,0.0,0.0,0.0,0.0,0.0,0.0,0.0,0.0,0.0,0.0,0.0,0.0,0.0,0.0,0.0,0.0,0.0,0.0,0.0,0.0,0.0,0.0,0.0,0.0,0.0,0.0,0.0,0.0,0.0,0.0,0.0,0.0,0.0,0.0,0.0,0.0,0.0,0.0,0.0,0.0,0.0,0.0,0.0,0.0,0.0,0.0,0.0,0.0,0.0,0.0,0.0,0.0,0.0,0.0,0.0,0.0,0.0,0.0,0.0,0.0,0.0,0.0,0.0,0.0,0.0,0.0,0.0,0.0,0.0,0.0,0.0,0.0,0.0,-2.1867,-2.2002,-2.2133,-2.244,-2.2486,-2.2592,-2.2865,-2.2888,-2.2786,-2.2562,0.0,0.0,0.0,0.0,0.0,0.0,0.0,0.0,0.0,0.0,0.0,0.0,0.0,0.0,0.0,0.0,0.0,0.0,0.0,0.0,0.0,0.0,0.0,0.0,0.0,0.0,0.0,0.0,0.0,0.0,0.0,0.0,0.0,0.0,0.0,0.0,0.0,0.0,0.0,0.0,0.0,0.0,0.0,0.0,0.0,0.0,0.0,0.0,0.0,0.0,0.0,0.0,0.0,0.0,0.0,0.0,0.0,0.0,0.0,0.0,0.0,0.0,0.0,0.0,0.0,0.0,0.0,0.0,0.0,0.0,0.0,0.0,0.0,0.0,0.0,0.0,0.0,0.0,0.0,0.0,0.0,0.0,0.0,0.0,0.0,0.0,0.0,0.0,0.0,0.0,0.0,0.0,0.0,0.0,0.0,0.0,0.0,0.0,0.0,0.0,0.0,0.0,-2.2838,-2.2975,-2.2975,-2.2975,-2.2975,-2.2983,-2.2902,-2.2888,-2.2701,-2.2185,0.0,0.0,0.0,0.0,0.0,0.0,0.0,0.0,0.0,0.0,0.0,0.0,0.0,0.0,0.0,0.0,0.0,0.0,0.0,0.0,0.0,0.0,0.0,0.0,0.0,0.0,0.0,0.0,0.0,0.0,0.0,0.0,0.0,0.0,0.0,0.0,0.0,0.0,0.0,0.0,0.0,0.0,0.0,0.0,0.0,0.0,0.0,0.0,0.0,0.0,0.0,0.0,0.0,0.0,0.0,0.0,0.0,0.0,0.0,0.0,-1.9682,-1.9708,0.0,0.0,0.0,0.0,0.0,0.0,0.0,0.0,0.0,0.0,0.0,0.0,0.0,0.0,0.0,0.0,0.0,0.0,0.0,0.0,0.0,0.0,0.0,0.0,0.0,0.0,0.0,0.0,0.0,0.0,0.0,0.0,0.0,0.0,0.0,0.0,0.0,0.0,0.0,0.0,-2.3528,-2.3688,-2.3688,-2.3688,-2.3688,-2.3461,-2.2931,-2.2888,-2.2995,-2.3243,-2.2835,0.0,0.0,0.0,0.0,0.0,0.0,0.0,0.0,0.0,0.0,0.0,0.0,0.0,0.0,0.0,0.0,0.0,0.0,0.0,0.0,0.0,0.0,0.0,0.0,0.0,0.0,0.0,0.0,0.0,0.0,0.0,0.0,0.0,0.0,0.0,0.0,0.0,0.0,0.0,0.0,0.0,0.0,0.0,0.0,0.0,0.0,0.0,0.0,0.0,0.0,0.0,0.0,0.0,0.0,0.0,0.0,0.0,0.0,0.0,-2.0173,-2.001,0.0,0.0,0.0,0.0,0.0,0.0,0.0,0.0,0.0,0.0,0.0,0.0,0.0,0.0,0.0,0.0,0.0,0.0,0.0,0.0,0.0,0.0,0.0,0.0,0.0,0.0,0.0,0.0,0.0,0.0,0.0,0.0,0.0,0.0,0.0,0.0,0.0,0.0,0.0,0.0,-2.376,-2.4167,-2.4254,-2.392,-2.3891,-2.3722,-2.3253,-2.3231,-2.3436,-2.3909,-2.3483,0.0,0.0,0.0,0.0,0.0,0.0,0.0,0.0,0.0,0.0,0.0,0.0,0.0,0.0,0.0,0.0,0.0,0.0,0.0,0.0,0.0,0.0,0.0,0.0,0.0,0.0,0.0,0.0,0.0,0.0,0.0,0.0,0.0,0.0,0.0,0.0,0.0,0.0,0.0,0.0,0.0,0.0,0.0,0.0,0.0,0.0,0.0,0.0,0.0,0.0,0.0,0.0,0.0,-2.1506,-2.1732,-2.1619,-2.1182,-2.088,-2.0704,-2.0792,-2.0503,-1.9999,-2.0603,0.0,0.0,0.0,0.0,0.0,0.0,0.0,0.0,0.0,0.0,0.0,0.0,0.0,0.0,0.0,0.0,0.0,0.0,0.0,0.0,0.0,0.0,-2.396,-2.3775,-2.3731,-2.3395,-2.2249,0.0,0.0,0.0,0.0,0.0,0.0,0.0,0.0,0.0,0.0,0.0,-2.3978,-2.4631,-2.4791,-2.4123,-2.3949,-2.3823,-2.3611,-2.349,-2.371,-2.4369,-2.4198,-2.4116,0.0,0.0,0.0,0.0,0.0,0.0,0.0,0.0,0.0,0.0,0.0,0.0,0.0,0.0,0.0,0.0,0.0,0.0,0.0,0.0,0.0,0.0,0.0,0.0,0.0,0.0,0.0,0.0,0.0,0.0,0.0,0.0,-1.4922,-1.4976,0.0,0.0,0.0,0.0,0.0,0.0,0.0,0.0,0.0,0.0,0.0,0.0,0.0,-2.0385,-2.0578,-2.1644,-2.2171,-2.2096,-2.2631,-2.2644,-2.2196,-2.2133,-2.1568,-2.0717,-2.1207,0.0,-2.0616,-2.1182,0.0,0.0,0.0,0.0,0.0,0.0,0.0,0.0,0.0,0.0,0.0,0.0,0.0,0.0,0.0,0.0,0.0,0.0,0.0,0.0,0.0,0.0,-2.4191,-2.3247,-2.2987,-2.2913,-2.2793,-2.3229,-2.3615,-2.3528,-2.3586,-2.3441,0.0,0.0,0.0,0.0,0.0,0.0,-2.4607,-2.527,-2.5415,-2.4752,-2.421,-2.3823,-2.3611,-2.3077,-2.3325,-2.4732,-2.4784,-2.4948,-2.5357,-2.482,0.0,0.0,0.0,0.0,0.0,0.0,0.0,0.0,0.0,0.0,0.0,0.0,0.0,0.0,0.0,0.0,0.0,0.0,0.0,0.0,0.0,0.0,0.0,0.0,0.0,0.0,0.0,0.0,0.0,-1.4942,-1.51,-1.5201,-1.5046,-1.4858,0.0,0.0,0.0,0.0,0.0,0.0,0.0,0.0,0.0,-1.8255,-1.941,-2.0192,-2.0569,-2.1741,-2.2309,-2.2322,-2.2844,-2.2982,-2.2732,-2.2447,-2.2046,-2.1606,-2.1845,-2.182,-2.1581,-2.1546,-2.1343,-2.1119,0.0,0.0,0.0,0.0,-2.1033,-2.1118,-2.1618,-2.161,-2.1441,-2.1742,0.0,0.0,0.0,0.0,0.0,0.0,0.0,-2.3696,-2.3853,-2.4023,-2.4024,-2.3569,-2.3438,-2.3415,-2.3461,-2.3688,-2.3789,-2.3403,-2.3911,-2.4085,-2.3062,-2.3519,0.0,0.0,0.0,-2.5052,-2.5342,-2.5937,-2.6097,-2.5429,-2.5018,-2.4573,-2.4,-2.3917,-2.4123,-2.4639,-2.5061,-2.5394,-2.5597,-2.5292,-2.492,0.0,0.0,0.0,0.0,0.0,0.0,0.0,0.0,0.0,0.0,0.0,0.0,0.0,0.0,0.0,0.0,0.0,0.0,0.0,0.0,0.0,0.0,0.0,0.0,0.0,0.0,0.0,0.0,-1.5213,-1.5141,-1.5479,-1.5233,-1.5081,0.0,0.0,0.0,0.0,0.0,0.0,-1.6786,-1.7309,-1.7979,-1.8895,-1.9817,-2.0514,-2.0966,-2.1988,-2.2493,-2.2493,-2.2907,-2.3108,-2.3095,-2.2681,-2.2447,-2.2309,-2.2309,-2.2309,-2.2284,-2.202,-2.1832,-2.1685,-2.1435,-2.1479,-2.1642,-2.1702,-2.1891,-2.2127,-2.2425,-2.2394,-2.2356,-2.2743,-2.2876,-2.2918,-2.3086,0.0,0.0,0.0,0.0,-2.3273,-2.3775,-2.3867,-2.38,-2.3656,-2.3612,-2.3612,-2.3612,-2.3635,-2.3557,-2.3229,-2.3925,-2.4273,-2.3316,-2.3992,0.0,-2.4219,-2.5081,-2.5803,-2.5803,-2.6487,-2.6737,-2.6063,-2.5839,-2.5455,-2.4724,-2.4813,-2.4891,-2.4788,-2.5308,-2.5597,-2.5597,-2.5597,-2.5341,-2.479,0.0,0.0,0.0,0.0,0.0,0.0,0.0,0.0,0.0,0.0,0.0,0.0,0.0,0.0,0.0,0.0,0.0,0.0,0.0,0.0,0.0,0.0,0.0,0.0,0.0,0.0,0.0,0.0,0.0,-1.5965,-1.5806,0.0,0.0,0.0,0.0,-1.5252,-1.6259,-1.6933,-1.6983,-1.8675,-1.9689,-1.9744,-2.1317,-2.2176,-2.2205,-2.2769,-2.3058,-2.3058,-2.3095,-2.3108,-2.3108,-2.3083,-2.2782,-2.2309,-2.2309,-2.2309,-2.2347,-2.2819,-2.2706,-2.2317,-2.2853,-2.2781,-2.255,-2.4181,-2.4444,-2.4137,-2.5189,-2.5166,-2.4635,-2.466,-2.4713,-2.465,-2.4036,-2.3847,0.0,0.0,-2.3847,-2.3847,-2.3876,-2.382,-2.3582,-2.2982,-2.2853,-2.2853,-2.2853,-2.2915,-2.3128,-2.3731,-2.3891,-2.392,-2.3847,0.0,-2.4138,-2.4747,-2.5386,-2.5803,-2.5803,-2.6775,-2.7235,-2.6626,-2.6436,-2.6237,-2.592,-2.5338,-2.5153,-2.5513,-2.5581,-2.5597,-2.5597,-2.5597,-2.5581,-2.5549,-2.4887,0.0,0.0,0.0,0.0,0.0,0.0,0.0,0.0,0.0,0.0,0.0,0.0,0.0,0.0,0.0,0.0,0.0,0.0,0.0,0.0,0.0,0.0,0.0,0.0,0.0,0.0,0.0,0.0,-1.6472,-1.5941,0.0,-1.6182,-1.5957,-1.5891,-1.6217,-1.6956,-1.7739,-1.8514,-1.9507,-2.0241,-2.062,-2.1312,-2.1815,-2.2176,-2.2451,-2.2757,-2.3108,-2.3108,-2.3108,-2.3108,-2.3108,-2.2995,-2.2807,-2.2807,-2.2807,-2.2849,-2.3483,-2.3621,-2.3431,-2.3271,-2.3538,-2.4035,-2.4327,-2.45,-2.4671,-2.5022,-2.4998,-2.481,-2.4839,-2.4878,-2.4849,-2.4549,-2.4476,-2.4476,-2.453,-2.453,-2.453,-2.4476,-2.4148,-2.3786,-2.3569,-2.3184,-2.2857,-2.2857,-2.288,-2.3113,-2.3775,-2.421,-2.4346,-2.3963,-2.4946,-2.5716,-2.5527,-2.6036,-2.6531,-2.6859,-2.7239,-2.755,-2.7677,-2.7542,-2.7193,-2.663,-2.6274,-2.595,-2.5629,-2.5597,-2.5597,-2.5597,-2.5597,-2.5597,-2.5597,-2.5341,-2.4968,0.0,0.0,0.0,0.0,0.0,0.0,0.0,0.0,0.0,0.0,0.0,0.0,0.0,0.0,0.0,0.0,0.0,0.0,0.0,0.0,0.0,0.0,0.0,0.0,0.0,-1.651,-1.6407,-1.6747,-1.6161,-1.6065,-1.7022,-1.6592,-1.6589,-1.7312,-1.8092,-1.889,-1.9696,-2.0481,-2.1099,-2.1497,-2.177,-2.2089,-2.2421,-2.2539,-2.2744,-2.3108,-2.3108,-2.3108,-2.3108,-2.3108,-2.3108,-2.3108,-2.3335,-2.3424,-2.3484,-2.4147,-2.4523,-2.4682,-2.428,-2.4559,-2.5205,-2.5071,-2.525,-2.5517,-2.5502,-2.5462,-2.5462,-2.5517,-2.5556,-2.5487,-2.5226,-2.5129,-2.5085,-2.4921,-2.4878,-2.4863,-2.481,-2.4481,-2.4119,-2.3902,-2.3502,-2.3161,-2.3161,-2.3221,-2.3487,-2.43,-2.4489,-2.4515,-2.453,-2.5614,-2.6436,-2.6381,-2.6744,-2.7214,-2.7715,-2.7938,-2.8183,-2.8543,-2.8602,-2.8331,-2.7593,-2.723,-2.6733,-2.6037,-2.5726,-2.5597,-2.5597,-2.5597,-2.5597,-2.5597,-2.5597,-2.5243,-2.45,0.0,0.0,0.0,0.0,0.0,0.0,0.0,0.0,0.0,0.0,0.0,0.0,0.0,0.0,0.0,0.0,0.0,0.0,0.0,0.0,0.0,0.0,0.0,-1.6904,-1.7131,-1.7279,-1.6892,-1.6521,-1.668,-1.765,-1.7535,-1.7719,-1.8503,-1.972,-2.0418,-2.0447,-2.1646,-2.2305,-2.2305,-2.2832,-2.3108,-2.3108,-2.3108,-2.3108,-2.3108,-2.3108,-2.3108,-2.3108,-2.3108,-2.3108,-2.3168,-2.3839,-2.4102,-2.4176,-2.4794,-2.537,-2.5893,-2.5893,-2.5921,-2.6002,-2.6594,-2.6806,-2.6806,-2.6806,-2.6806,-2.6806,-2.6806,-2.6806,-2.6689,-2.6036,-2.5847,-2.5691,-2.5042,-2.4868,-2.4868,-2.4868,-2.4809,-2.4576,-2.3928,-2.374,-2.3712,-2.3712,-2.3829,-2.4253,-2.5412,-2.4766,-2.4412,-2.565,-2.5868,-2.6264,-2.7375,-2.7515,0.0,-2.8255,-2.8779,-2.9097,-2.912,-2.9598,-2.9605,-2.8908,-2.8142,-2.7429,-2.6766,-2.6037,-2.5613,-2.5629,-2.5613,-2.5597,-2.5597,-2.5597,-2.526,-2.4533,0.0,0.0,0.0,0.0,0.0,0.0,0.0,0.0,0.0,0.0,0.0,0.0,0.0,0.0,0.0,0.0,0.0,0.0,0.0,0.0,0.0,-1.8698,-1.8797,-1.7963,-1.7877,-1.7875,-1.7749,-1.7028,-1.7101,-1.8558,-1.8105,-1.825,-1.9558,-2.0482,-2.1186,-2.1621,-2.2315,-2.2775,-2.2882,-2.302,-2.3108,-2.3108,-2.3108,-2.3108,-2.3108,-2.3108,-2.3108,-2.3108,-2.3108,-2.3365,-2.3839,-2.4002,-2.435,-2.4794,-2.5398,-2.5743,-2.5893,-2.5893,-2.6179,-2.6568,-2.6727,-2.6806,-2.6806,-2.6806,-2.6806,-2.6806,-2.6806,-2.6806,-2.6777,-2.6588,-2.6544,-2.65,-2.63,-2.6242,-2.6242,-2.6242,-2.5868,-2.5462,-2.5264,-2.451,-2.3938,-2.4286,-2.4431,-2.4799,-2.5902,-2.6275,-2.6556,-2.6896,-2.7321,-2.7725,-2.8015,-2.807,-2.8264,-2.8803,-2.9005,-2.925,-2.9643,-2.9814,-2.9815,-2.9605,-2.8433,-2.7624,-2.7446,-2.6277,-2.5824,-2.6377,-2.5872,-2.5597,-2.5597,-2.5597,-2.55,0.0,0.0,0.0,0.0,0.0,0.0,0.0,0.0,0.0,0.0,0.0,0.0,0.0,0.0,0.0,0.0,0.0,0.0,0.0,0.0,0.0,0.0,-1.8925,-1.9093,-1.8667,-1.8575,-1.8467,-1.8213,-1.7874,-1.8182,-1.9543,-1.9402,-1.9714,-2.0938,-2.1635,-2.2161,-2.2483,-2.2812,-2.3017,-2.3108,-2.3108,-2.3108,-2.3108,-2.3108,-2.3108,-2.3108,-2.3108,-2.3258,-2.3514,-2.3514,-2.3884,-2.4481,-2.4751,-2.5062,-2.5425,-2.6029,-2.6286,-2.6286,0.0,0.0,0.0,0.0,-2.6806,-2.6806,-2.6806,-2.6806,-2.6806,-2.6806,-2.6806,-2.6806,-2.6806,-2.6806,-2.6806,-2.6806,-2.6806,-2.6806,-2.6806,-2.6515,-2.6203,-2.6138,-2.5335,-2.479,-2.5606,-2.5561,-2.5779,-2.72,-2.782,0.0,-2.8415,-2.8365,-2.8376,-2.8614,-2.8638,-2.8842,-2.938,-2.9448,-2.9538,-2.9874,-2.9896,-2.9896,-2.9896,-2.8843,0.0,0.0,0.0,-2.6555,-2.6685,-2.6296,0.0,0.0,0.0,0.0,0.0,0.0,0.0,0.0,-2.5616,-2.5875,0.0,0.0,0.0,0.0,0.0,0.0,0.0,0.0,0.0,0.0,0.0,0.0,0.0,0.0,0.0,0.0,-1.8987,-1.9025,-1.9025,-1.9117,-1.9011,-1.8479,-1.8845,-1.9535,-2.0494,-2.0969,-2.1517,-2.231,-2.2802,-2.3047,-2.3078,-2.3078,0.0,0.0,0.0,-2.3108,-2.3108,-2.3108,-2.3108,-2.3108,-2.3108,-2.3395,-2.3985,-2.4073,-2.4423,-2.5035,-2.5633,-2.5948,-2.6029,-2.6594,-2.6806,-2.6806,-2.6806,-2.6806,-2.6806,-2.6806,-2.6806,-2.6806,-2.6806,0.0,0.0,-2.6806,-2.6806,-2.6806,-2.6806,-2.6806,-2.6806,-2.6806,-2.6832,-2.6884,-2.6806,-2.6832,-2.6854,-2.6723,-2.6138,-2.5965,-2.7196,-2.6956,-2.702,-2.8726,-2.9118,-2.9341,-2.9814,-2.9097,-2.8638,-2.9136,-2.9182,-2.9364,-2.9836,-2.9896,-2.9896,-2.9896,-2.9896,0.0,-2.9896,-2.9216,-2.8811,-2.8811,-2.819,-2.7527,-2.683,-2.6879,-2.6587,-2.584,-2.649,-2.6814,-2.6814,-2.7332,-2.7284,-2.6701,-2.6701,-2.6652,0.0,0.0,0.0,0.0,0.0,0.0,0.0,0.0,0.0,0.0,0.0,0.0,0.0,0.0,0.0,-1.8975,-1.8987,-1.9052,-1.9143,-1.917,-1.9155,-1.9037,-1.9308,-1.9925,-2.1055,-2.1187,-2.1644,-2.271,-2.2768,-2.283,-2.2939,-2.2939,-2.2987,-2.3108,-2.3108,-2.3108,-2.3108,-2.3108,-2.3108,-2.3108,-2.3108,0.0,-2.3305,-2.3855,-2.4423,-2.5035,-2.5633,-2.6179,-2.6621,-2.6753,-2.6806,-2.6806,-2.6806,-2.6806,-2.6806,-2.6806,-2.6806,-2.6806,-2.6806,-2.6806,-2.6806,-2.6806,-2.6806,-2.6806,-2.6806,-2.6806,0.0,-2.6806,-2.7074,-2.7291,-2.6896,-2.7089,-2.7373,-2.7325,-2.6851,-2.6665,-2.7663,-2.7809,-2.7965,-2.8705,-2.9345,-2.9792,-2.988,-2.9726,-2.9621,-2.9732,-2.9748,-2.9792,-2.9896,-2.9896,-2.9896,-2.9896,-2.9896,-2.9896,-2.9896,-2.9216,-2.8811,-2.8811,-2.8681,-2.8255,-2.7543,-2.8077,-2.8045,-2.7316,-2.7446,-2.751,-2.751,-2.7089,-2.683,-2.6701,-2.6701,-2.6377,0.0,0.0,0.0,0.0,0.0,0.0,0.0,0.0,0.0,0.0,0.0,-1.8674,-1.8939,0.0,-1.8987,-1.8987,-1.9052,-1.9117,-1.9196,-1.9328,-1.9394,-1.9394,-1.978,-2.0413,-2.1303,-2.1597,-2.211,-2.295,-2.2939,-2.2939,-2.2987,-2.2987,-2.3017,-2.3108,-2.3108,-2.3108,-2.3108,-2.3108,-2.3108,-2.3108,-2.3108,-2.3442,-2.4076,-2.4394,-2.5049,-2.592,-2.6218,-2.6527,-2.6806,-2.6806,-2.6806,-2.6806,-2.6806,-2.6806,-2.6806,-2.6806,-2.6806,-2.6806,-2.6806,-2.6806,-2.6806,-2.6806,-2.6806,-2.6806,-2.6806,-2.6806,-2.6806,-2.6806,-2.6974,-2.7152,-2.7152,-2.7327,-2.764,-2.8167,-2.778,-2.7589,-2.8713,-2.8692,-2.8635,-2.9221,-2.9637,-2.9896,-2.9896,-2.9896,-2.9896,-2.9896,-2.9896,-2.9896,-2.9896,-2.9896,-2.9896,-2.9896,-2.9896,-2.9896,-2.9896,-2.9556,-2.9345,-2.9345,-2.9345,-2.9021,-2.8271,-2.8595,-2.845,-2.7721,-2.8061,-2.8255,-2.8255,-2.7899,-2.7559,-2.7187,-2.6863,-2.649,0.0,0.0,0.0,0.0,0.0,0.0,0.0,0.0,-1.989,-1.984,-1.9384,-1.8998,-1.9001,-1.9025,-1.9052,-1.9052,-1.9158,-1.9249,-1.9275,-1.9473,-1.9617,-1.963,-2.0167,-2.0744,-2.128,-2.1892,-2.2439,-2.2907,-2.3015,-2.3078,-2.3108,-2.3108,-2.3108,-2.3108,-2.3108,-2.3108,-2.3108,-2.3108,-2.3168,-2.3275,-2.3275,-2.3901,-2.5007,-2.5133,-2.5701,-2.6621,-2.6753,-2.6806,-2.6806,-2.6806,-2.6806,-2.6806,-2.6806,-2.6806,-2.6806,-2.6806,-2.6806,-2.6806,-2.6806,-2.6806,-2.6806,-2.6806,-2.6806,-2.6806,-2.6806,-2.6858,-2.6948,-2.6948,-2.7104,-2.7306,-2.759,-2.7725,-2.8021,-2.8889,-2.8647,-2.8529,-2.9663,-2.9426,-2.92,-2.9783,-2.9896,-2.9896,-2.9896,-2.9896,-2.9896,-2.9896,-2.9896,-2.9896,-2.9896,-2.9896,-2.9896,-2.9896,-2.9896,-2.9896,-2.9896,-2.9896,-2.9896,-2.9896,-2.9896,-2.9621,-2.9038,-2.9021,-2.8725,-2.8142,-2.8713,-2.894,-2.8811,-2.8644,-2.8207,-2.7494,-2.6798,-2.649,-2.2443,-2.1724,-2.1085,-2.1621,-2.1678,-2.1418,0.0,0.0,-2.0514,-2.0009,-1.9413,-1.8995,-1.9008,-1.9105,-1.917,-1.917,-1.9302,-1.942,-1.9539,-1.9591,-1.963,-1.9759,-2.0313,-2.0717,-2.0779,-2.1594,-2.2201,-2.238,-2.2713,-2.2969,-2.3078,-2.3108,-2.3108,-2.3108,-2.3108,-2.3108,-2.3108,-2.3108,-2.3395,-2.3985,-2.3985,-2.4337,-2.5007,-2.5536,-2.5866,-2.6029,-2.6568,-2.6806,-2.6806,-2.6806,-2.6806,-2.6806,-2.6806,-2.6806,-2.6806,-2.6806,-2.6806,-2.6806,-2.6806,-2.6806,-2.6806,-2.6806,-2.6806,-2.6806,-2.6806,-2.7074,-2.7414,-2.7414,-2.811,-2.8748,-2.8328,-2.8567,-2.8958,-2.9074,-2.905,-2.9155,-2.9776,-2.9832,-2.9799,-2.988,-2.9896,-2.9896,-2.9896,-2.9896,-2.9896,-2.9896,-2.9896,-2.9896,-2.9896,-2.9896,-2.9896,-2.9896,-2.9896,-2.9896,-2.9896,-2.9896,-2.9896,-2.9896,-2.9896,-2.9848,-2.9767,-2.9767,-2.9734,-2.9653,-2.9718,-2.9459,-2.8811,-2.8142,-2.7478,-2.6798,-2.605,-2.571,-2.085,-2.1321,-2.1783,0.0,-2.147,-2.1555,-2.0942,-2.0801,-2.0662,-2.0174,-1.9874,-1.9712,-1.9697,-1.9486,-1.9328,-1.9328,-1.942,-1.9539,-1.9591,-1.9656,-1.9734,-1.9798,-2.0339,-2.0817,-2.1144,-2.1512,-2.2038,-2.2706,-2.2922,-2.3047,-2.3108,-2.3108,-2.3108,-2.3108,-2.3108,-2.3275,-2.3691,-2.3691,-2.4002,-2.4624,-2.4624,-2.4936,-2.5536,-2.577,-2.6084,-2.6447,-2.67,-2.6806,-2.6806,-2.6806,-2.6806,-2.6806,-2.6806,-2.6806,-2.6806,-2.6806,-2.6806,-2.6806,-2.6806,-2.6806,-2.6806,-2.6806,-2.6806,-2.6806,-2.6806,-2.6948,-2.7152,-2.7414,-2.7824,-2.8264,-2.8662,-2.8935,-2.9182,-2.9493,-2.9576,-2.9621,-2.9836,-2.9896,-2.9767,-2.9345,-2.9264,-2.9264,-2.9264,-2.9264,-2.941,-2.9832,-2.9896,-2.9896,-2.9896,-2.9896,-2.9896,-2.9896,-2.9896,-2.9896,-2.9896,-2.9896,-2.9896,-2.9896,-2.9896,-2.9896,-2.9896,-2.9896,-2.9973,-3.0113,-3.0135,-2.9875,-2.9316,-2.8573,-2.7964,-2.7509,-2.679,-2.6596,-2.0104,0.0,0.0,-2.1058,-2.1116,-2.1262,-2.1,-2.1013,-2.09,-2.0324,-2.0314,-2.0333,-2.0042,-1.9682,-1.9473,-1.9473,-1.9565,-1.9656,-1.9656,-1.9734,-1.9861,-2.0024,-2.0427,-2.0968,-2.1644,-2.1719,-2.2046,-2.2819,-2.302,-2.3108,-2.3108,-2.3108,-2.3108,-2.3108,-2.3108,-2.3424,-2.4102,-2.4102,-2.4494,-2.5245,-2.5245,-2.5564,-2.6138,-2.6138,-2.6394,-2.6806,-2.6806,-2.6806,-2.6806,-2.6806,-2.6806,-2.6806,-2.6806,-2.6806,-2.6806,-2.6806,-2.6806,-2.6806,-2.6806,-2.6806,-2.6806,-2.6806,-2.6896,-2.6985,-2.6985,-2.7192,-2.7509,-2.7839,-2.8061,-2.8336,-2.9136,-2.9319,-2.9425,-2.9814,-2.9896,-2.9896,-2.9896,-2.9896,-2.9734,-2.9216,-2.9102,-2.9102,-2.9102,-2.9102,-2.9281,-2.9815,-2.9896,-2.9896,-2.9896,-2.9896,-2.9896,-2.9896,-2.9896,-2.9896,-2.9896,-2.9896,-2.9896,-2.9896,-2.9896,-2.9896,-2.9896,-2.9896,-3.0038,-3.0293,-3.0293,-3.0112,-2.9733,-2.918,-2.8698,-2.8252,-2.7774,-2.7709,0.0,0.0,-2.0023,-2.096,-2.0662,-2.0266,-2.0701,-2.1298,-2.1458,-2.0431,-2.0604,-2.0646,-1.9617,-1.9512,-1.9591,-1.9591,-1.9708,-1.9798,-1.9798,-1.9798,-2.0012,-2.0591,-2.0679,-2.1119,-2.2184,-2.2284,-2.2297,-2.2305,-2.2807,-2.3108,-2.3108,-2.3108,-2.3108,-2.3108,-2.3108,-2.3424,-2.4102,-2.4102,-2.4694,-2.5866,-2.5866,-2.6206,-2.6779,-2.6779,-2.6779,-2.6806,-2.6806,-2.6806,-2.6806,-2.6806,-2.6806,-2.6806,-2.6806,-2.6806,-2.6806,-2.6806,-2.6806,-2.6806,-2.6806,-2.6806,-2.6806,-2.6806,-2.71,-2.7489,-2.7489,-2.8207,-2.9028,-2.9051,-2.9425,-2.9836,-2.9874,-2.9896,-2.9896,-2.9896,-2.9896,-2.9896,-2.9896,-2.9896,-2.988,-2.9864,-2.9864,-2.9864,-2.9864,-2.9864,-2.9864,-2.9896,-2.9896,-2.9896,-2.9896,-2.9896,-2.9896,-2.9896,-2.9896,-2.9896,-2.9896,-2.9896,-2.9896,-2.9896,-2.9896,-2.9896,-2.9896,-2.9896,-3.0038,-3.0293,-3.0293,-3.0129,-2.9789,-2.9772,-2.9386,-2.8665,-2.8667,-2.8649,-1.9332,0.0,-1.983,-1.9545,-1.9801,-2.0047,-1.9841,-2.0554,-2.1069,-2.0384,-2.0461,-2.0478,-2.0118,-1.9876,-1.9734,-1.9734,-1.9773,-1.9798,-1.9798,-2.0125,-2.0478,-2.0666,-2.1345,-2.1895,-2.2243,-2.2309,-2.246,-2.2794,-2.2995,-2.3108,-2.3108,-2.3108,-2.3108,-2.3108,-2.3108,-2.3424,-2.4102,-2.4102,-2.4694,-2.5893,-2.6313,-2.6594,-2.6806,-2.6806,-2.6806,-2.6806,-2.6806,-2.6806,-2.6806,-2.6806,-2.6806,-2.6806,-2.6806,-2.6806,-2.6806,-2.6806,-2.6806,-2.6806,-2.6806,-2.6806,-2.6806,-2.6806,-2.6896,-2.7037,-2.7037,-2.7519,-2.8119,-2.8472,-2.8958,-2.9448,-2.9814,-2.9896,-2.9896,-2.9896,-2.9896,-2.9896,-2.9896,-2.9896,-2.9751,-2.9264,-2.9167,-2.9167,-2.9167,-2.9167,-2.9345,-2.9815,-2.9896,-2.9896,-2.9896,-2.9896,-2.9896,-2.9896,-2.9896,-2.9896,-2.9896,-2.9896,-2.9896,-2.9896,-2.9896,-2.9896,-2.9896,-2.9896,-3.0038,-3.0293,-3.0522,-3.0436,-3.0076,-3.0299,-3.0162,-2.9704,-2.9704,-2.9827,-1.8439,-1.8804,-1.924,-1.8433,-1.8741,-1.9157,-1.8954,-1.964,-2.031,-2.0302,-2.0364,-2.0415,-2.0465,-2.0101,-1.9874,-2.0075,-2.0112,-2.0175,-2.0376,-2.0727,-2.1069,-2.1257,-2.1882,-2.2385,-2.2556,-2.2581,-2.2732,-2.3083,-2.3108,-2.3108,-2.3108,-2.3108,-2.3108,-2.3108,-2.3108,-2.3424,-2.4102,-2.4102,-2.4694,-2.5893,-2.6286,-2.6594,-2.6806,-2.6806,-2.6806,-2.6806,-2.6806,-2.6806,-2.6806,-2.6806,-2.6806,-2.6806,-2.6806,-2.6806,-2.6806,-2.6806,-2.6806,-2.6806,-2.6806,-2.6806,-2.6806,-2.6806,-2.6896,-2.7089,-2.728,-2.768,-2.8167,-2.8709,-2.9136,-2.947,-2.9814,-2.9896,-2.9896,-2.9896,-2.9896,-2.9896,-2.9896,-2.9896,-2.9751,-2.9297,-2.92,-2.92,-2.92,-2.92,-2.9345,-2.9815,-2.9896,-2.9896,-2.9896,-2.9896,-2.9896,-2.9896,-2.9896,-2.9896,-2.9896,-2.9896,-2.9896,-2.9896,-2.9896,-2.9896,-2.9896,-2.9896,-3.0038,-3.0293,-3.0625,-3.0729,-3.0598,-3.093,-3.0985,-3.0784,-3.0784,-3.091,-1.8253,-1.8223,-1.8207,-1.7676,-1.7547,-1.764,-1.8072,-1.8637,-1.933,-2.0091,-2.0337,-2.0429,0.0,0.0,-2.0024,-2.0603,-2.0717,-2.0918,-2.1446,-2.1506,-2.1732,-2.2246,-2.2305,-2.2502,-2.3058,-2.3078,-2.3078,-2.3108,-2.3108,-2.3108,-2.3108,-2.3108,-2.3108,-2.3108,-2.3108,-2.3395,-2.4031,-2.4073,-2.4666,-2.5811,-2.5839,-2.6179,-2.6753,-2.6753,-2.6779,-2.6806,-2.6806,-2.6806,-2.6806,-2.6806,-2.6806,-2.6806,-2.6806,-2.6806,-2.6806,-2.6806,-2.6806,-2.6806,-2.6806,-2.6806,-2.6806,-2.6806,-2.7126,-2.7575,-2.8094,-2.8662,-2.9205,-2.9726,-2.9896,-2.9896,-2.988,-2.988,-2.9896,-2.988,-2.988,-2.9896,-2.9896,-2.9896,-2.9896,-2.9896,-2.9896,-2.9896,-2.9896,-2.9896,-2.9896,-2.9896,-2.9896,-2.9896,-2.9896,-2.9896,-2.9896,-2.9896,-2.9896,-2.9896,-2.9896,-2.9896,-2.9896,-2.9896,-2.9896,-2.9896,-2.9896,-2.9896,-3.0038,-3.0293,-3.0625,-3.0965,-3.1295,-3.1634,-3.18,-3.18,-3.18,-3.18,-1.722,-1.7169,-1.7285,-1.6935,-1.6713,-1.6781,-1.756,-1.8449,-1.9185,-1.9493,-2.0012,-2.0308,0.0,-2.0233,-2.0515,-2.0666,-2.1043,-2.1358,-2.1468,-2.1845,-2.2159,-2.2297,-2.2204,-2.2408,-2.3035,-2.2659,-2.2555,-2.3078,-2.3108,-2.3108,-2.3108,-2.3108,-2.3108,-2.3108,-2.3108,-2.3198,-2.3335,-2.3855,-2.4263,-2.4551,-2.5021,-2.5536,-2.6111,-2.6111,-2.6367,-2.6806,-2.6806,-2.6806,-2.6806,-2.6806,-2.6806,-2.6806,-2.6806,-2.6806,-2.6806,-2.6806,-2.6806,-2.6806,-2.6806,-2.6806,-2.6806,-2.6806,-2.7126,-2.754,-2.7665,-2.8376,-2.912,-2.9273,-2.9598,-2.9836,-2.9643,-2.9748,-2.9836,-2.9643,-2.9732,-2.9896,-2.9896,-2.9896,-2.9896,-2.9896,-2.9896,-2.9896,-2.9896,-2.9896,-2.9896,-2.9896,-2.9896,-2.9896,-2.9896,-2.9896,-2.9896,-2.9896,-2.9896,-2.9896,-2.9896,-2.9896,-2.9896,-2.9896,-2.9896,-2.9896,-2.9896,-2.9896,-3.0038,-3.0293,-3.0625,-3.0965,-3.1295,-3.1634,-3.18,-3.18,-3.18,-3.18,-1.6757,-1.6716,-1.6764,-1.6487,-1.6424,-1.6594,-1.7274,-1.8104,-1.8944,-1.9607,-1.9939,0.0,-1.9755,-2.0016,-2.0385,-2.0615,-2.1129,0.0,-2.1745,-2.2007,-2.2114,0.0,-2.173,-2.1803,-2.2187,-2.1877,-2.1928,-2.2616,-2.2944,-2.3108,-2.3108,-2.3108,-2.3108,-2.3108,-2.3108,-2.3108,-2.3108,-2.3484,-2.3809,-2.4102,-2.4423,-2.4908,-2.5508,-2.5784,-2.6084,-2.642,-2.67,-2.6806,-2.6806,-2.6806,-2.6806,-2.6806,-2.6806,-2.6806,-2.6806,-2.6806,-2.6806,-2.6806,-2.6806,-2.6806,-2.6806,-2.6806,-2.7126,-2.754,-2.7775,-2.8448,-2.9159,-2.9364,-2.9665,-2.9874,-2.971,-2.9792,-2.9836,-2.956,-2.9621,-2.9704,-2.9554,-2.9643,-2.977,-2.9896,-2.9896,-2.9896,-2.9896,-2.9896,-2.9896,-2.9896,-2.9896,-2.9946,-3.0044,-2.9973,-2.9896,-2.9896,-2.9896,-2.9896,-2.9896,-3.0017,-3.0065,-3.0065,-3.0215,-3.03,-3.03,-3.03,-3.0368,-3.0522,-3.0865,-3.1103,-3.1295,-3.1634,-3.18,-3.18,-3.18,-3.18,-1.6541,-1.6477,-1.6394,-1.6244,-1.6425,-1.672,-1.709,-1.7831,-1.8751,-1.9857,0.0,-1.9679,-1.9622,-1.9606,-1.9807,-2.0487,0.0,-2.1486,-2.2018,-2.2009,-2.1741,-2.1155,-2.1028,-2.0996,-2.1092,-2.1028,-2.125,-2.1928,-2.2506,-2.2914,-2.3078,-2.3108,-2.3108,-2.3108,-2.3108,-2.3108,-2.3108,-2.3108,-2.3395,-2.3985,-2.4073,-2.4436,-2.5007,-2.5619,-2.5948,-2.6056,-2.6568,-2.6806,-2.6806,-2.6806,-2.6806,-2.6806,-2.6806,-2.6806,-2.6806,-2.6806,-2.6806,-2.6806,-2.6806,-2.6806,-2.6806,-2.6806,-2.7178,-2.7675,-2.8143,-2.8709,-2.9296,-2.977,-2.9896,-2.988,-2.9858,-2.9858,-2.9814,-2.9531,-2.947,-2.9441,-2.9167,-2.9282,-2.9531,-2.9792,-2.9852,-2.9858,-2.988,-2.9896,-2.9896,-2.9896,-2.9896,-2.9973,-3.022,-3.0065,-2.9968,-3.0011,-3.0033,-3.0033,-3.0033,-3.0241,-3.0356,-3.0356,-3.0625,-3.0804,-3.0804,-3.0804,-3.0825,-3.0865,-3.1142,-3.1315,-3.1372,-3.1653,-3.18,-3.18,-3.18,-3.18,-1.591,-1.5782,-1.5696,-1.6107,-1.6233,-1.6421,-1.6932,-1.8111,0.0,0.0,-1.9407,-1.9571,-1.9176,-1.8765,-1.8924,-2.0374,-2.032,-2.057,-2.1896,-2.1616,-2.1219,0.0,-2.0613,-2.0484,-2.104,-2.0613,-2.0549,-2.1219,-2.1376,-2.1939,-2.3035,-2.3108,-2.3108,-2.3108,-2.3108,-2.3108,-2.3108,-2.3108,-2.3168,-2.3275,-2.3839,-2.4436,-2.5007,-2.5619,-2.6179,-2.6647,-2.6753,-2.6806,-2.6806,-2.6806,-2.6806,-2.6806,-2.6806,-2.6806,-2.6806,-2.6806,-2.6806,-2.6806,-2.6806,-2.6806,-2.6806,-2.6806,-2.7418,-2.8167,-2.8264,-2.8982,-2.9792,-2.9858,-2.9896,-2.9836,-2.9621,-2.9732,-2.977,-2.9282,-2.935,-2.9441,-2.9167,-2.9137,-2.9259,-2.9531,-2.9576,-2.9643,-2.9858,-2.9896,-2.9896,-2.9896,-2.9896,-2.9918,-2.9951,-3.013,-3.033,-3.0621,-3.0642,-3.0642,-3.0642,-3.0703,-3.0707,-3.0707,-3.0784,-3.0804,-3.0804,-3.0804,-3.0925,-3.1218,-3.1276,-3.1447,-3.1709,-3.1781,-3.18,-3.18,-3.18,-3.18,-1.5725,-1.5595,-1.5522,-1.581,-1.6275,-1.6694,-1.6778,0.0,0.0,0.0,-1.9094,-1.9176,-1.8617,-1.8309,0.0,-1.8836,-1.935,-1.984,-2.027,-2.0466,-2.0452,-2.0096,-1.9781,-1.9715,-2.0042,-1.9682,-1.9737,-2.0516,-2.0484,-2.1049,-2.2494,-2.2914,-2.3108,-2.3108,-2.3108,-2.3108,-2.3108,-2.3108,-2.3108,-2.3108,-2.3424,-2.3914,-2.4538,-2.5175,-2.577,-2.634,-2.6674,-2.6806,-2.6806,-2.6806,-2.6806,-2.6806,-2.6806,-2.6806,-2.6806,-2.6806,-2.6806,-2.6806,-2.6806,-2.6806,-2.6832,-2.7074,-2.768,-2.8336,-2.8638,-2.9273,-2.9874,-2.9732,-2.9687,-2.9621,-2.9373,-2.9396,-2.9373,-2.8982,-2.8912,-2.8912,-2.8889,-2.8889,-2.9013,-2.9425,-2.9493,-2.9598,-2.9836,-2.9896,-2.9896,-2.9896,-2.9896,-2.9946,-3.0087,-3.0225,-3.0356,-3.0522,-3.0543,-3.0605,-3.0804,-3.0965,-3.1064,-3.1064,-3.1237,-3.1315,-3.1315,-3.1315,-3.1408,-3.156,-3.156,-3.1634,-3.18,-3.18,-3.18,-3.18,-3.18,-3.18,-1.5728,-1.5566,-1.5433,-1.5654,-1.6409,-1.7024,-1.6732,-1.8016,0.0,0.0,-1.8598,-1.8445,-1.8108,0.0,-1.7572,0.0,-1.8336,-1.8877,-1.8997,-1.9402,-1.9543,-1.9088,-1.9075,-1.9065,-1.9042,-1.8875,-1.9065,-1.9781,-1.9813,-2.0462,-2.2009,-2.275,-2.3108,-2.3108,-2.3108,-2.3108,-2.3108,-2.3108,-2.3108,-2.3108,-2.3258,-2.3603,-2.4118,-2.4851,-2.5453,-2.5921,-2.6527,-2.6806,-2.6806,-2.6806,-2.6806,-2.6806,-2.6806,-2.6806,-2.6806,-2.6806,-2.6806,-2.6806,-2.6806,-2.6858,-2.7037,-2.7515,-2.7947,-2.8384,-2.8935,-2.9425,-2.977,-2.9576,-2.9448,-2.9373,-2.9144,-2.9098,-2.9029,-2.8756,-2.8549,-2.8444,-2.8605,-2.8629,-2.8756,-2.9243,-2.9335,-2.9425,-2.977,-2.9814,-2.9836,-2.988,-2.9896,-2.9989,-3.0199,-3.0267,-3.033,-3.0398,-3.0398,-3.0543,-3.0885,-3.1083,-3.1257,-3.1408,-3.1596,-3.1744,-3.18,-3.18,-3.18,-3.18,-3.18,-3.18,-3.18,-3.18,-3.18,-3.18,-3.18,-3.18,-1.5846,-1.5434,-1.5122,-1.5867,-1.6579,-1.7052,-1.6912,0.0,0.0,-1.816,-1.7557,-1.7273,-1.7818,-1.6672,0.0,0.0,0.0,-1.7244,-1.9629,-1.905,-1.8489,-1.88,0.0,-1.9042,-1.8841,-1.8808,-1.8841,-1.8908,-1.9485,-2.0462,-2.2009,-2.275,-2.3108,-2.3108,-2.3108,-2.3108,-2.3108,-2.3108,-2.3108,-2.3108,-2.3721,-2.4031,-2.4147,-2.5286,-2.5839,-2.5921,-2.6527,-2.6806,-2.6806,-2.6806,-2.6806,-2.6806,-2.6806,-2.6806,-2.6806,-2.6806,-2.6806,-2.6806,-2.6806,-2.7089,-2.7515,-2.8046,-2.8264,-2.8384,-2.8935,-2.9296,-2.9515,-2.9515,-2.9312,-2.9121,-2.9098,-2.9098,-2.9029,-2.8756,-2.8549,-2.8411,-2.842,-2.842,-2.8517,-2.8732,-2.8779,-2.8943,-2.9448,-2.9538,-2.9621,-2.9858,-2.9896,-2.9902,-2.9924,-3.0156,-3.0418,-3.0707,-3.0747,-3.0885,-3.1237,-3.1004,-3.1103,-3.1726,-3.1504,-3.1485,-3.18,-3.18,-3.18,-3.18,-3.18,-3.18,-3.18,-3.18,-3.18,-3.18,-3.18,-3.18,-1.6377,-1.6194,-1.6072,-1.6467,-1.6838,-1.7038,-1.6826,0.0,-1.8234,-1.7496,-1.7361,-1.735,-1.7274,-1.6413,-1.5975,0.0,0.0,0.0,-1.8207,-1.7994,-1.7951,-1.8553,-1.8317,-1.8206,-1.8573,-1.8549,-1.8506,-1.8506,-1.932,-2.0115,-2.0796,-2.1902,-2.2689,-2.3078,-2.3108,-2.3108,-2.3108,-2.3108,-2.3108,-2.3108,-2.3365,-2.3721,-2.4118,-2.4609,-2.5203,-2.5921,-2.6138,-2.6447,-2.6806,-2.6806,-2.6806,-2.6806,-2.6806,-2.6806,-2.6806,-2.6806,-2.6806,-2.6806,-2.6806,-2.71,-2.7565,-2.7923,-2.828,-2.8638,-2.9182,-2.9425,-2.9425,-2.9106,-2.8943,-2.8842,-2.8716,-2.8668,-2.8645,-2.8549,-2.8468,-2.8411,-2.8411,-2.8411,-2.8468,-2.8653,-2.8708,-2.8826,-2.919,-2.938,-2.9538,-2.9643,-2.9792,-2.9968,-3.013,-3.0087,-3.0156,-3.0477,-3.0865,-3.1237,-3.156,-3.1485,-3.1523,-3.1781,-3.1671,-3.1671,-3.18,-3.18,-3.18,-3.18,-3.18,-3.18,-3.18,-3.18,-3.18,-3.18,-3.18,-3.18,-1.6764,-1.6729,-1.6772,-1.7068,-1.7116,-1.7104,0.0,-1.754,-1.7707,-1.7199,-1.7055,-1.6994,-1.6771,-1.6239,-1.5896,0.0,0.0,-1.6715,-1.7024,-1.693,-1.7067,-1.7687,-1.7345,-1.7345,-1.8022,-1.8236,-1.8303,-1.8303,-1.8954,-1.9458,-1.9676,-2.08,-2.1873,-2.2827,-2.2857,-2.2945,-2.3108,-2.3108,-2.3108,-2.3108,-2.3108,-2.3335,-2.3809,-2.4015,-2.4666,-2.5633,-2.5839,-2.6233,-2.6806,-2.6806,-2.6806,-2.6806,-2.6806,-2.6806,-2.6806,-2.6806,-2.6806,-2.6806,-2.6806,-2.7152,-2.765,-2.7839,-2.8328,-2.8865,-2.9159,-2.9266,-2.9198,-2.8803,-2.8653,-2.8597,-2.8444,-2.8411,-2.8411,-2.8411,-2.8411,-2.8411,-2.8411,-2.8411,-2.8444,-2.8581,-2.8605,-2.87,-2.8936,-2.9266,-2.9499,-2.9582,-2.9908,-3.021,-3.0372,-3.0363,-3.0384,-3.058,-3.1103,-3.1411,-3.1353,-3.1293,-3.1351,-3.1634,-3.156,-3.1579,-3.18,-3.18,-3.18,-3.18,-3.18,-3.18,-3.18,-3.18,-3.18,-3.18,-3.18,-3.18,-1.6908,-1.6798,-1.6853,-1.7535,-1.7399,-1.7316,-1.8102,-1.7409,-1.6799,-1.7371,-1.6438,-1.5756,-1.6458,-1.6095,-1.5899,-1.6497,0.0,0.0,-1.6642,-1.6023,-1.5591,-1.5992,-1.6193,-1.6515,-1.7079,-1.7842,-1.8303,-1.8303,-1.8303,-1.8494,-1.8881,-1.9478,-2.0598,-2.2264,-2.2322,-2.2556,-2.3095,-2.3108,-2.3108,-2.3108,-2.3108,-2.3108,-2.3138,-2.3809,-2.4423,-2.5035,-2.5633,-2.6233,-2.6806,-2.6806,-2.6806,-2.6806,-2.6806,-2.6806,-2.6806,-2.6806,-2.6806,-2.6806,-2.6806,-2.728,-2.7898,-2.7898,-2.8439,-2.9052,-2.8779,-2.8708,-2.8708,-2.8708,-2.8549,-2.8411,-2.8411,-2.8411,-2.8411,-2.8411,-2.8411,-2.8411,-2.8411,-2.8411,-2.8411,-2.8411,-2.8396,-2.8468,-2.8677,-2.9097,-2.9489,-2.975,-3.0321,-3.0692,-3.0692,-3.1058,-3.1295,-3.1295,-3.1579,-3.1391,-3.0398,-3.0065,-3.0316,-3.1257,-3.0985,-3.1103,-3.1764,-3.18,-3.18,-3.18,-3.18,-3.18,-3.18,-3.18,-3.18,-3.18,-3.18,-3.18,-1.7108,-1.7348,-1.7557,-1.7444,-1.7299,-1.7165,-1.714,-1.6775,-1.641,-1.6186,-1.6098,-1.6005,-1.5815,-1.5613,-1.5595,-1.587,-1.5668,0.0,0.0,0.0,-1.5852,-1.6523,-1.7123,-1.7545,-1.7681,-1.793,-1.8076,-1.8076,-1.8202,-1.8395,-1.8606,-1.8614,-1.9317,-2.0815,-2.1272,-2.1572,-2.1745,-2.2088,-2.2088,-2.1729,-2.2471,-2.2632,-2.2315,-2.3306,-2.4076,-2.4709,-2.5384,-2.6055,-2.6618,-2.6738,-2.6806,-2.6806,-2.6806,-2.6806,-2.6806,-2.6806,-2.6806,-2.6806,-2.6806,-2.7393,-2.8119,-2.7795,-2.8334,-2.9006,-2.8621,-2.8581,-2.8677,-2.8525,-2.8444,-2.8411,-2.8411,-2.8411,-2.8411,-2.8411,-2.8411,-2.8411,-2.8411,-2.8411,-2.8411,-2.8411,-2.8501,-2.8685,-2.9005,-2.9136,-2.9364,-2.9859,-3.0113,-3.0347,-3.072,-3.0885,-3.1044,-3.1276,-3.1198,-3.1162,-3.1315,-3.1254,-3.1332,-3.1634,-3.1542,-3.1579,-3.18,-3.18,-3.18,-3.18,-3.18,-3.18,-3.18,-3.18,-3.18,-3.18,-3.18,-3.18,0.0,-1.7467,-1.767,-1.7557,-1.7198,-1.6884,-1.6811,-1.6409,-1.5997,-1.5846,-1.5889,-1.5864,-1.5468,-1.5302,-1.5249,-1.5318,-1.5139,-1.5092,-1.5437,-1.5371,-1.5561,-1.6341,-1.7123,-1.7579,-1.7579,-1.7828,-1.8008,-1.8008,-1.811,-1.8068,-1.7836,-1.7874,-1.8281,-1.9046,-1.9968,-2.0661,-2.1096,-2.1428,-2.1428,-2.1108,-2.1785,-2.2044,-2.195,-2.2854,-2.3722,-2.4538,-2.5231,-2.5878,0.0,-2.6553,-2.6621,-2.6621,-2.6621,-2.6621,-2.6621,-2.6621,-2.6621,-2.6647,-2.6817,-2.7357,-2.7944,-2.78,-2.8244,-2.8787,-2.8493,-2.8493,-2.8573,-2.8444,-2.8411,-2.8411,-2.8411,-2.8411,-2.8411,-2.8411,-2.8411,-2.8411,-2.8411,-2.8411,-2.8411,-2.8411,-2.8573,-2.8756,-2.8881,-2.9159,-2.9454,-2.9733,-3.0161,-3.0576,-3.0902,-3.1081,-3.1257,-3.1466,-3.1295,-3.1351,-3.1746,-3.156,-3.1485,-3.1598,-3.1615,-3.1671,-3.18,-3.18,-3.18,-3.18,-3.18,-3.18,-3.18,-3.18,-3.18,-3.18,-3.18,-3.18,0.0,-1.7226,-1.7282,-1.7654,-1.705,-1.6501,-1.6891,-1.6213,0.0,-1.6133,-1.5748,-1.5332,-1.5362,-1.5081,-1.4826,-1.4849,-1.4363,-1.4239,-1.489,-1.4755,-1.4851,-1.5604,-1.6411,-1.6897,-1.6897,-1.7579,-1.8008,-1.8008,-1.7978,-1.7617,-1.6785,-1.7233,-1.7434,-1.725,-1.8547,-1.9793,-2.0945,-2.0994,-2.0994,-2.0957,-2.1031,-2.1313,-2.1756,-2.2461,-2.3371,-2.4456,-2.5106,-2.5729,-2.6286,-2.6313,-2.6313,-2.6313,-2.6313,-2.6313,-2.6313,-2.6313,-2.6313,-2.6367,-2.6803,-2.7155,-2.7488,-2.7905,-2.8201,-2.8411,-2.8411,-2.8411,-2.8411,-2.8411,-2.8411,-2.8411,-2.8411,-2.8411,-2.8411,-2.8411,-2.8411,-2.8411,-2.8411,-2.8411,-2.8411,-2.8411,-2.8573,-2.8653,-2.8477,-2.9159,-2.9661,-2.9496,-3.0414,-3.1151,-3.121,-3.1557,-3.18,-3.18,-3.18,-3.18,-3.18,-3.1237,-3.1004,-3.1315,-3.1334,-3.1485,-3.18,-3.18,-3.18,-3.18,-3.18,-3.18,-3.18,-3.18,-3.18,-3.18,-3.18,-3.18,-1.6831,0.0,-1.7086,-1.6314,-1.6245,-1.6239,0.0,-1.5647,-1.5456,0.0,0.0,0.0,-1.4985,-1.4568,-1.4224,-1.4229,-1.4084,-1.3987,-1.3905,-1.4283,-1.4851,-1.5604,-1.6411,-1.6897,-1.6897,-1.7579,-1.8008,-1.8008,-1.7715,-1.7441,-1.7246,-1.6738,-1.6858,-1.7712,-1.7733,-1.8306,-1.948,-1.9906,-1.9906,-1.9492,-2.0326,-2.0568,-2.033,-2.1781,-2.2824,-2.3563,-2.4747,-2.5591,-2.6138,-2.626,-2.6313,-2.6313,-2.6313,-2.6313,-2.6313,-2.6313,-2.6313,-2.6313,-2.642,-2.6971,-2.772,-2.8326,-2.8477,-2.8411,-2.8411,-2.8411,-2.8411,-2.8411,-2.8411,-2.8411,-2.8411,-2.8411,-2.8411,-2.8411,-2.8411,-2.8411,-2.8411,-2.8411,-2.8411,-2.8411,-2.8573,-2.8779,-2.8982,-2.8997,-2.9257,-3.0123,-3.0297,-3.0567,-3.1198,-3.1578,-3.18,-3.18,-3.18,-3.18,-3.18,-3.1653,-3.1615,-3.1671,-3.1671,-3.1709,-3.18,-3.18,-3.18,-3.18,-3.18,-3.18,-3.18,-3.18,-3.18,-3.18,-3.18,-3.18,-1.6358,-1.6479,-1.6802,-1.6694,-1.6458,-1.6159,-1.5852,0.0,0.0,0.0,0.0,0.0,0.0,0.0,-1.4388,-1.4072,-1.415,-1.4218,-1.4027,-1.4645,-1.5242,-1.564,-1.6411,-1.6897,-1.6897,-1.7579,-1.793,-1.7734,-1.751,-1.7239,-1.6829,-1.6349,-1.6556,-1.7549,-1.7333,-1.7781,-1.8987,-1.9302,-1.9302,-1.8999,-1.9588,-1.9841,-1.9832,-2.102,-2.1868,-2.25,-2.4052,-2.4915,-2.5283,-2.5889,-2.6111,-2.6111,-2.6111,-2.6111,-2.6111,-2.6111,-2.6111,-2.6138,-2.6326,-2.6997,-2.7835,-2.8389,-2.8493,-2.8411,-2.8411,-2.8411,-2.8411,-2.8411,-2.8411,-2.8411,-2.8411,-2.8411,-2.8411,-2.8411,-2.8411,-2.8411,-2.8411,-2.8411,-2.8411,-2.8411,-2.8573,-2.8803,-2.9081,-2.8997,-2.9132,-2.9802,-3.012,-3.041,-3.076,-3.1373,-3.18,-3.18,-3.18,-3.18,-3.18,-3.18,-3.18,-3.18,-3.18,-3.18,-3.18,-3.18,-3.18,-3.18,-3.18,-3.18,-3.18,-3.18,-3.18,-3.18,-3.18,-3.18,-1.6028,-1.5973,-1.6552,-1.7305,-1.6856,-1.6181,0.0,0.0,0.0,0.0,0.0,0.0,0.0,-1.4438,0.0,-1.4033,-1.4206,-1.443,-1.443,-1.4966,-1.5357,-1.5357,-1.6167,-1.6724,-1.6724,-1.751,-1.7832,-1.7422,-1.7324,-1.6924,-1.6134,-1.6026,-1.6315,-1.7045,-1.7146,-1.7727,-1.8854,-1.896,-1.8987,-1.8987,-1.8987,-1.9227,-1.9688,-2.0293,-2.0916,-2.1607,-2.3309,-2.415,-2.4395,-2.5479,-2.5893,-2.5893,-2.5893,-2.5893,-2.5893,-2.5893,-2.5893,-2.5975,-2.6431,-2.7086,-2.7765,-2.825,-2.8411,-2.8411,-2.8411,-2.8411,-2.8411,-2.8411,-2.8411,-2.8411,-2.8411,-2.8411,-2.8411,-2.8411,-2.8411,-2.8411,-2.8411,-2.8411,-2.8411,-2.8411,-2.8549,-2.8732,-2.8951,-2.899,-2.9037,-2.9216,-2.9893,-3.0368,-3.037,-3.1127,-3.1671,-3.1709,-3.1727,-3.1727,-3.1727,-3.1781,-3.18,-3.18,-3.18,-3.18,-3.18,-3.18,-3.18,-3.18,-3.18,-3.18,-3.18,-3.18,-3.18,-3.18,-3.18,-3.18,-1.6247,-1.6405,-1.6494,-1.592,-1.594,-1.6097,0.0,0.0,0.0,0.0,0.0,0.0,0.0,-1.3623,-1.3379,-1.3548,-1.3637,-1.3674,-1.3674,-1.3775,-1.3848,-1.3848,-1.5046,-1.5886,-1.5886,-1.7157,-1.7832,-1.7422,-1.7041,-1.6611,-1.6124,-1.5713,-1.5789,-1.6425,-1.6922,-1.7534,-1.8228,-1.8735,-1.8987,-1.8987,-1.8987,-1.9035,-1.9158,-1.9685,-2.0502,-2.1579,-2.2799,-2.3938,-2.4925,-2.5632,-2.5893,-2.5893,-2.5893,-2.5893,-2.5893,-2.5893,-2.5893,-2.6002,-2.6733,-2.7097,-2.7342,-2.8137,-2.8411,-2.8411,-2.8411,-2.8411,-2.8411,-2.8411,-2.8411,-2.8411,-2.8411,-2.8411,-2.8411,-2.8411,-2.8411,-2.8411,-2.8411,-2.8411,-2.8411,-2.8411,-2.842,-2.8468,-2.8517,-2.8517,-2.8724,-2.9418,-2.9636,-3.0079,-3.1009,-3.1016,-3.1064,-3.1351,-3.1389,-3.1389,-3.1389,-3.1634,-3.18,-3.18,-3.18,-3.18,-3.18,-3.18,-3.18,-3.18,-3.18,-3.18,-3.18,-3.18,-3.18,-3.18,-3.18,-3.18,-1.5892,-1.6088,-1.6269,-1.5899,-1.6094,-1.6426,0.0,0.0,0.0,0.0,0.0,0.0,0.0,0.0,-1.3902,-1.4063,-1.3775,-1.3492,-1.3492,-1.3492,-1.3492,-1.3492,-1.4796,-1.571,-1.571,-1.7088,-1.7734,-1.708,-1.6814,-1.6395,-1.5752,-1.5518,-1.569,-1.6273,-1.6894,-1.7479,-1.8093,-1.8709,-1.8987,-1.8987,-1.8987,-1.8987,-1.8999,-1.9266,-1.9643,-2.0237,-2.1665,-2.2815,-2.3754,-2.4928,-2.5619,-2.5893,-2.5893,-2.5893,-2.5893,-2.5893,-2.5893,-2.5961,-2.6563,-2.6916,-2.7199,-2.785,-2.8226,-2.8411,-2.8411,-2.8411,-2.8411,-2.8411,-2.8411,-2.8411,-2.8411,-2.8411,-2.8411,-2.8411,-2.8411,-2.8411,-2.8411,-2.8411,-2.8411,-2.8411,-2.8411,-2.8493,-2.8732,-2.8573,-2.8576,-2.9091,-2.9415,-2.9767,-3.0176,-3.0573,-3.0865,-3.1004,-3.1024,-3.1024,-3.1024,-3.1179,-3.1411,-3.1781,-3.18,-3.18,-3.18,-3.18,-3.18,-3.18,-3.18,-3.18,-3.18,-3.18,-3.18,-3.18,-3.18,-3.169,-1.5654,-1.584,-1.6124,-1.6222,0.0,-1.6599,-1.6804,0.0,0.0,0.0,0.0,0.0,0.0,-1.3803,-1.4335,-1.4257,-1.3831,-1.3492,-1.3492,-1.3492,-1.3492,-1.3492,-1.4796,-1.5676,-1.5556,-1.6949,-1.75,-1.6641,-1.6541,-1.621,-1.5449,-1.541,-1.5604,-1.6083,-1.6669,-1.7285,-1.7863,-1.8483,-1.8854,-1.8987,-1.8987,-1.8987,-1.8987,-1.8987,-1.9059,-1.9269,-2.0687,-2.1765,-2.2595,-2.4159,-2.5149,-2.5702,-2.5839,-2.5893,-2.5893,-2.5893,-2.5893,-2.5975,-2.6351,-2.6759,-2.7174,-2.765,-2.8063,-2.8411,-2.8411,-2.8411,-2.8411,-2.8411,-2.8411,-2.8411,-2.8411,-2.8411,-2.8411,-2.8411,-2.8411,-2.8411,-2.8411,-2.8411,-2.8411,-2.8411,-2.8411,-2.8501,-2.8858,-2.8645,-2.8482,-2.8746,-2.9181,-2.9479,-2.9478,-3.0112,-3.0601,-3.0683,-3.0666,-3.0707,-3.0788,-3.0804,-3.1024,-3.1523,-3.156,-3.1615,-3.1671,-3.1671,-3.1709,-3.18,-3.18,-3.18,-3.18,-3.18,-3.18,-3.18,-3.18,-3.1671,-1.5938,-1.6065,-1.6193,-1.6551,0.0,0.0,-1.7181,-1.5909,0.0,-1.5445,0.0,0.0,0.0,-1.3513,-1.3461,-1.316,-1.333,-1.3492,-1.3492,-1.3492,-1.3492,-1.3492,-1.4796,-1.5539,-1.5163,-1.6531,-1.7093,-1.6212,-1.6144,-1.5938,-1.5439,-1.541,-1.541,-1.5468,-1.6054,-1.6641,-1.7257,-1.7875,-1.8456,-1.8987,-1.8987,-1.8987,-1.8987,-1.8987,-1.9263,-1.9775,-2.0463,-2.1337,-2.241,-2.3726,-2.4572,-2.5118,-2.5674,-2.5893,-2.5893,-2.5893,-2.5893,-2.5975,-2.6351,-2.6759,-2.7174,-2.765,-2.8063,-2.8411,-2.8411,-2.8411,-2.8411,-2.8411,-2.8411,-2.8411,-2.8411,-2.8411,-2.8411,-2.8411,-2.8411,-2.8411,-2.8411,-2.8411,-2.8411,-2.8411,-2.8411,-2.8396,-2.8444,-2.842,-2.8477,-2.867,-2.8935,-2.9341,-2.9881,-2.9962,-3.006,-3.0309,-3.0335,-3.046,-3.0767,-3.0804,-3.0825,-3.0865,-3.0868,-3.1004,-3.1315,-3.1334,-3.1485,-3.18,-3.18,-3.18,-3.18,-3.18,-3.18,-3.18,-3.18,-3.18,-1.5615,-1.5654,-1.583,-1.6521,0.0,0.0,0.0,0.0,0.0,-1.4604,-1.4186,0.0,0.0,-1.3492,-1.3455,-1.3331,-1.3243,-1.3192,-1.3192,-1.3016,-1.2892,-1.2892,-1.4137,-1.4958,-1.4788,-1.6104,-1.6728,-1.6134,-1.6095,-1.5909,-1.5439,-1.541,-1.541,-1.541,-1.5997,-1.6585,-1.7202,-1.7781,-1.8402,-1.8987,-1.8987,-1.8987,-1.8987,-1.8987,-1.9095,-1.9351,-2.0247,-2.1085,-2.1892,-2.3035,-2.3867,-2.4452,-2.5104,-2.5564,-2.5893,-2.5893,-2.5893,-2.5921,-2.6069,-2.6377,-2.6774,-2.693,-2.7473,-2.8029,-2.8029,-2.8201,-2.8411,-2.8411,-2.8411,-2.8411,-2.8411,-2.8411,-2.8411,-2.8411,-2.8411,-2.8411,-2.8411,-2.8411,-2.8411,-2.8411,-2.8411,-2.8411,-2.8411,-2.8411,-2.8436,-2.8501,-2.8716,-2.899,-2.9403,-2.956,-2.9754,-3.0022,-3.006,-3.0087,-3.0236,-3.0236,-3.0236,-3.0236,-3.058,-3.0865,-3.0985,-3.0985,-3.0985,-3.0985,-3.0985,-3.0985,-3.0985,-3.0811,-3.0891,-3.1179,-3.1044,-3.0945,-1.5332,-1.5332,-1.5478,0.0,0.0,0.0,0.0,0.0,0.0,-1.4072,-1.3937,-1.3752,-1.3388,-1.3338,-1.3309,-1.3206,-1.3001,-1.2855,-1.2855,-1.2631,-1.2485,-1.2485,-1.3743,-1.4548,-1.4429,-1.5677,-1.6338,-1.5919,-1.5889,-1.5723,-1.543,-1.541,-1.541,-1.541,-1.5806,-1.6397,-1.7202,-1.7617,-1.8201,-1.8987,-1.8987,-1.8987,-1.8987,-1.8987,-1.8987,-1.9035,-1.978,-2.0515,-2.1281,-2.2201,-2.3144,-2.4063,-2.4736,-2.5258,-2.5647,-2.5839,-2.5893,-2.5893,-2.5893,-2.615,-2.651,-2.651,-2.6982,-2.7625,-2.7765,-2.7989,-2.8226,-2.8348,-2.8411,-2.8411,-2.8411,-2.8411,-2.8411,-2.8411,-2.8411,-2.8411,-2.8411,-2.8411,-2.8411,-2.8411,-2.8411,-2.8411,-2.8411,-2.8411,-2.8411,-2.8411,-2.8558,-2.8771,-2.8959,-2.9266,-2.9576,-2.9732,-2.977,-2.977,-2.977,-2.9704,-2.9681,-2.977,-3.0092,-3.0335,-3.0543,-3.0481,-3.0418,-3.0377,-3.0377,-3.0377,-3.0377,-3.0197,-3.0281,-3.0567,-3.0522,-3.0456,-1.5156,-1.5215,0.0,0.0,0.0,0.0,0.0,0.0,-1.4016,-1.4077,-1.3777,-1.3389,-1.3067,-1.3001,-1.2899,-1.2543,-1.2485,-1.2485,-1.2485,-1.2477,-1.2477,-1.2477,-1.3726,-1.4437,-1.4047,-1.5281,-1.5909,-1.5439,-1.541,-1.541,-1.541,-1.541,-1.541,-1.541,-1.541,-1.5979,-1.7174,-1.7202,-1.7781,-1.8987,-1.8987,-1.8987,-1.8987,-1.8987,-1.8987,-1.8987,-1.8999,-1.9627,-2.0648,-2.126,-2.2495,-2.405,-2.4723,-2.4977,-2.5061,-2.5674,-2.5893,-2.5893,-2.5893,-2.615,-2.6484,-2.6484,-2.6759,-2.7174,-2.765,-2.779,-2.789,-2.8275,-2.8411,-2.8411,-2.8411,-2.8411,-2.8411,-2.8411,-2.8411,-2.8411,-2.8411,-2.8411,-2.8411,-2.8411,-2.8411,-2.8411,-2.8411,-2.8411,-2.8411,-2.8411,-2.8573,-2.8708,-2.8708,-2.9175,-2.9509,-2.9509,-2.9509,-2.9509,-2.9509,-2.9259,-2.9213,-2.947,-2.9236,-2.9357,-2.9984,-2.9755,-2.9745,-3.0074,-3.0074,-3.0074,-3.0074,-3.0074,-3.0074,-3.0095,-3.0356,-3.0497,-1.5186,0.0,0.0,0.0,0.0,0.0,0.0,0.0,0.0,0.0,-1.2876,-1.2782,-1.2687,-1.2631,-1.2636,-1.2507,-1.2295,-1.2149,-1.2149,-1.1984,-1.1877,-1.1877,-1.3034,-1.3771,-1.366,-1.4853,-1.5557,-1.542,-1.541,-1.541,-1.541,-1.541,-1.541,-1.541,-1.541,-1.5777,-1.6557,-1.6978,-1.7589,-1.8375,-1.8801,-1.8987,-1.8987,-1.8987,-1.8987,-1.9011,-1.9411,-1.9949,-2.0658,-2.16,-2.2556,-2.3386,-2.3594,-2.4221,-2.5033,-2.5202,-2.5536,-2.5893,-2.5893,-2.5975,-2.6069,-2.6069,-2.6351,-2.6759,-2.7188,-2.7534,-2.789,-2.8275,-2.8411,-2.8411,-2.8411,-2.8411,-2.8411,-2.8411,-2.8411,-2.8411,-2.8411,-2.8411,-2.8411,-2.8411,-2.8411,-2.8411,-2.8411,-2.8411,-2.8411,-2.8411,-2.8444,-2.8549,-2.8685,-2.899,-2.9213,-2.9213,-2.9213,-2.9213,-2.9213,-2.9144,-2.9121,-2.9213,-2.8982,-2.899,-2.9357,-2.9289,-2.9205,-2.912,-2.912,-2.912,-2.9104,-2.8958,-2.9182,-2.9661,-2.9371,-2.9544,-1.5179,0.0,0.0,0.0,0.0,-1.4896,-1.3963,0.0,0.0,0.0,-1.2485,-1.2485,-1.2485,-1.2383,-1.2295,-1.2295,-1.2025,-1.1845,-1.1845,-1.1716,-1.1591,-1.1591,-1.272,-1.3511,-1.3511,-1.4638,-1.541,-1.541,-1.541,-1.541,-1.541,-1.541,-1.541,-1.541,-1.541,-1.569,-1.6301,-1.6669,-1.7257,-1.8093,-1.8483,-1.8762,-1.8987,-1.8987,-1.8987,-1.9023,-1.9579,-2.0093,-2.0682,-2.1536,-2.2226,-2.2781,-2.2997,-2.3712,-2.4637,-2.4907,-2.537,-2.5893,-2.5893,-2.5893,-2.5893,-2.5893,-2.6069,-2.6324,-2.6733,-2.706,-2.7423,-2.7989,-2.8152,-2.8201,-2.8363,-2.8411,-2.8411,-2.8411,-2.8411,-2.8411,-2.8411,-2.8196,-2.8088,-2.835,-2.8181,-2.8088,-2.835,-2.8411,-2.8411,-2.8411,-2.8411,-2.8468,-2.8661,-2.8826,-2.8936,-2.8936,-2.8936,-2.8936,-2.8936,-2.8881,-2.8858,-2.8936,-2.87,-2.8668,-2.8811,-2.8811,-2.874,-2.8581,-2.8597,-2.8597,-2.8597,-2.8549,-2.8748,-2.9175,-2.9082,-2.9266,0.0,0.0,0.0,0.0,0.0,0.0,-1.3844,-1.2712,-1.2047,-1.2372,-1.2431,-1.2431,-1.2431,-1.2156,-1.1959,-1.1959,-1.175,-1.1591,-1.1591,-1.1591,-1.1591,-1.1591,-1.272,-1.3511,-1.3511,-1.4638,-1.541,-1.541,-1.541,-1.541,-1.541,-1.541,-1.541,-1.541,-1.541,-1.5661,-1.6226,-1.6283,-1.6866,-1.7929,-1.7984,-1.8336,-1.8934,-1.896,-1.8987,-1.9023,-1.9579,-2.0093,-2.0646,-2.1187,-2.1716,-2.2247,-2.2811,-2.3416,-2.4079,-2.4666,-2.5328,-2.5893,-2.5893,-2.5893,-2.5893,-2.5893,-2.5893,-2.5975,-2.6377,-2.651,-2.6669,-2.7499,-2.7765,-2.789,-2.825,-2.8372,-2.8411,-2.8411,-2.8411,-2.8381,-2.8319,-2.7873,-2.7642,-2.8119,-2.778,-2.758,-2.8211,-2.8319,-2.8334,-2.8396,-2.8411,-2.8468,-2.8653,-2.8677,-2.8677,-2.8677,-2.8677,-2.8677,-2.8677,-2.8501,-2.8493,-2.8661,-2.8501,-2.8411,-2.8411,-2.8411,-2.8411,-2.8411,-2.8411,-2.8411,-2.8411,-2.8605,-2.8708,-2.8756,-2.9243,-2.9493,0.0,-1.5077,0.0,0.0,-1.4469,-1.3643,-1.3763,-1.2719,-1.1716,-1.1782,-1.1804,-1.1804,-1.1804,-1.1738,-1.1694,-1.1694,-1.1635,-1.1591,-1.1591,-1.1591,-1.1591,-1.1591,-1.272,-1.3511,-1.3511,-1.4638,-1.541,-1.541,-1.541,-1.541,-1.541,-1.541,-1.541,-1.541,-1.541,-1.5468,-1.5575,-1.6054,-1.6415,-1.6698,-1.7174,-1.7699,-1.8321,-1.8789,-1.8987,-1.9023,-1.9579,-2.0109,-2.0651,-2.1175,-2.1716,-2.2228,-2.2328,-2.3053,-2.4021,-2.415,-2.4936,-2.5893,-2.5893,-2.5893,-2.5893,-2.5893,-2.5893,-2.5975,-2.6377,-2.651,-2.6616,-2.7111,-2.7509,-2.7815,-2.7905,-2.8152,-2.8411,-2.8411,-2.8411,-2.8258,-2.7734,-2.7919,-2.7919,-2.7011,-2.7134,-2.7442,-2.758,-2.7611,-2.7796,-2.8319,-2.8411,-2.842,-2.8468,-2.8468,-2.8468,-2.8468,-2.8468,-2.8468,-2.8468,-2.842,-2.842,-2.8468,-2.842,-2.8411,-2.8411,-2.8411,-2.8411,-2.8411,-2.8411,-2.8411,-2.8411,-2.8605,-2.8803,-2.9029,-2.9121,-2.9418,0.0,0.0,0.0,0.0,0.0,-1.3695,-1.3725,-1.2751,-1.1709,-1.1404,-1.1498,-1.1591,-1.1591,-1.1591,-1.1591,-1.1591,-1.1459,-1.1364,-1.1364,-1.1428,-1.1593,-1.176,-1.288,-1.372,-1.3974,-1.4844,-1.541,-1.541,-1.541,-1.541,-1.541,-1.541,-1.5362,-1.5313,-1.5313,-1.5313,-1.5313,-1.5623,-1.595,-1.6312,-1.6613,-1.723,-1.812,-1.8709,-1.8987,-1.9011,-1.9314,-1.9724,-2.0266,-2.0808,-2.132,-2.1837,-2.2089,-2.2763,-2.361,-2.3904,-2.461,-2.5508,-2.5811,-2.5893,-2.5893,-2.5893,-2.5893,-2.5948,-2.615,-2.6204,-2.6312,-2.6695,-2.7137,-2.7509,-2.774,-2.8103,-2.8319,-2.7996,-2.7919,-2.7827,-2.7473,-2.7149,-2.6811,-2.6441,-2.638,-2.6611,-2.7272,-2.7673,-2.7996,-2.835,-2.8411,-2.8411,-2.8411,-2.8411,-2.8411,-2.8411,-2.8411,-2.8411,-2.8411,-2.8411,-2.8411,-2.8411,-2.8411,-2.8411,-2.8411,-2.8411,-2.8411,-2.8411,-2.8477,-2.8549,-2.8549,-2.8912,-2.9152,-2.9305,-2.9418,-2.9637,0.0,0.0,0.0,0.0,-1.5413,0.0,-1.3914,-1.2979,-1.2011,-1.1365,-1.1404,-1.1498,-1.1498,-1.1498,-1.1514,-1.1487,-1.1215,-1.1055,-1.1026,-1.1239,-1.1526,-1.1855,-1.3009,-1.3964,-1.4332,-1.4982,-1.541,-1.541,-1.541,-1.541,-1.541,-1.541,-1.5362,-1.5235,-1.5215,-1.5215,-1.5215,-1.5186,-1.5478,-1.6083,-1.6169,-1.6754,-1.7765,-1.8467,-1.8854,-1.8987,-1.8987,-1.9287,-1.9844,-2.0374,-2.0928,-2.1452,-2.1993,-2.2561,-2.3177,-2.3787,-2.4423,-2.509,-2.5702,-2.5893,-2.5893,-2.5893,-2.5893,-2.5893,-2.5893,-2.5893,-2.5975,-2.6297,-2.668,-2.7086,-2.7458,-2.7799,-2.788,-2.7401,-2.7103,-2.7003,-2.7196,-2.6411,-2.5788,-2.6219,-2.5958,-2.6019,-2.7196,-2.7965,-2.8411,-2.8411,-2.8411,-2.8411,-2.8411,-2.8411,-2.8411,-2.8411,-2.8411,-2.8411,-2.8411,-2.8411,-2.8411,-2.8411,-2.8411,-2.8411,-2.8411,-2.8411,-2.8411,-2.8411,-2.8605,-2.8708,-2.8756,-2.9266,-2.9493,-2.9515,-2.977,-2.9896,0.0,0.0,0.0,0.0,-1.5366,-1.4477,0.0,0.0,-1.2681,-1.2011,-1.149,-1.1185,-1.1185,-1.1185,-1.11,-1.0938,-1.0859,-1.079,-1.0689,-1.1086,-1.1403,-1.1486,-1.2845,-1.3825,-1.388,-1.4811,-1.541,-1.541,-1.541,-1.541,-1.541,-1.541,-1.5381,-1.5362,-1.5264,-1.5215,-1.5215,-1.5098,-1.5088,-1.5176,-1.57,-1.6104,-1.6389,-1.7418,-1.8294,-1.8987,-1.8987,-1.9287,-1.9844,-2.0374,-2.0928,-2.1452,-2.1993,-2.2561,-2.3177,-2.3787,-2.4423,-2.509,-2.5702,-2.5893,-2.5893,-2.5893,-2.5893,-2.5893,-2.5893,-2.5893,-2.5921,-2.5975,-2.6285,-2.6575,-2.6669,-2.6583,-2.6539,-2.6757,-2.5946,-2.5394,-2.6335,-2.6842,-2.6965,-2.6472,-2.678,-2.718,-2.7365,-2.7965,-2.8411,-2.8411,-2.8411,-2.8411,-2.8411,-2.8411,-2.8411,-2.8411,-2.8411,-2.8411,-2.8411,-2.8411,-2.8411,-2.8411,-2.8411,-2.8411,-2.8411,-2.8411,-2.8411,-2.8411,-2.8605,-2.8803,-2.9052,-2.9335,-2.9493,-2.9515,-2.977,-2.9896,-1.5258,0.0,0.0,0.0,-1.6036,-1.5426,-1.5223,-1.4367,-1.3439,-1.2759,-1.2227,-1.1725,-1.1216,-1.109,-1.1023,-1.073,-1.0532,-1.0451,-1.052,-1.0829,-1.1284,-1.1949,-1.2914,-1.3639,-1.3948,-1.4387,-1.4767,-1.5039,-1.5059,-1.5156,-1.54,-1.541,-1.5362,-1.5284,-1.5235,-1.5156,-1.5098,-1.5039,-1.5,-1.5,-1.5254,-1.5594,-1.5989,-1.6492,-1.7296,-1.8398,-1.8667,-1.8905,-1.9155,-1.9701,-2.0294,-2.0878,-2.1434,-2.2031,-2.2634,-2.2955,-2.3644,-2.4498,-2.4833,-2.5368,-2.5893,-2.5893,-2.5893,-2.5893,-2.5893,-2.5893,-2.5823,-2.5472,-2.5692,-2.5931,-2.5571,-2.5593,-2.5627,-2.5414,-2.4924,-2.471,-2.5348,-2.5877,-2.6149,-2.5841,-2.6349,-2.6703,-2.6303,-2.6811,-2.7272,-2.7272,-2.7596,-2.7842,-2.7842,-2.8165,-2.8411,-2.8411,-2.8411,-2.8411,-2.8411,-2.8411,-2.8411,-2.8411,-2.8411,-2.8411,-2.8411,-2.8411,-2.8444,-2.8573,-2.8653,-2.8842,-2.9098,-2.9373,-2.9576,-2.9726,-2.9852,-2.9896,0.0,0.0,0.0,-1.6633,-1.6459,-1.6042,0.0,-1.5011,-1.4305,-1.3515,-1.312,-1.2623,-1.1654,-1.1334,-1.1026,-1.0511,-1.0194,-1.013,-1.0348,-1.0631,-1.1158,-1.2171,-1.2959,-1.3544,-1.3968,-1.4227,-1.4468,-1.4738,-1.4883,-1.5011,-1.5186,-1.5303,-1.5313,-1.5215,-1.5117,-1.5059,-1.5,-1.4921,-1.4862,-1.4862,-1.4862,-1.5137,-1.5613,-1.5729,-1.635,-1.7363,-1.805,-1.8467,-1.8634,-1.9187,-1.9707,-2.0241,-2.0795,-2.1308,-2.1831,-2.2018,-2.2716,-2.3589,-2.386,-2.46,-2.5453,-2.5605,-2.5674,-2.5702,-2.5839,-2.5893,-2.5809,-2.5372,-2.5329,-2.5331,-2.4898,-2.4747,-2.4634,-2.4235,-2.4024,-2.405,-2.4679,-2.5216,-2.558,-2.558,-2.6026,-2.6248,-2.5672,-2.6026,-2.638,-2.6402,-2.6965,-2.7396,-2.7396,-2.7996,-2.8411,-2.8411,-2.8411,-2.8411,-2.8411,-2.8411,-2.8411,-2.8411,-2.8411,-2.8411,-2.8411,-2.8411,-2.8468,-2.8629,-2.8629,-2.8771,-2.9098,-2.9373,-2.9598,-2.9792,-2.9874,-2.9896,0.0,-1.5148,0.0,-1.6147,-1.6028,-1.5826,-1.6154,-1.5907,-1.5318,-1.4253,-1.4042,-1.3695,-1.2629,-1.1911,-1.1133,-1.0108,-0.9918,-0.9946,-1.003,-1.0472,-1.104,-1.1679,-1.2904,-1.37,-1.3719,-1.4572,-1.4975,-1.4646,-1.5089,-1.5157,-1.4665,-1.4984,-1.5215,-1.5215,-1.4902,-1.4804,-1.5,-1.4684,-1.4545,-1.4545,-1.4545,-1.4616,-1.4765,-1.5206,-1.5526,-1.5787,-1.7157,-1.8077,-1.8634,-1.9187,-1.9495,-1.9694,-2.0218,-2.0543,-2.074,-2.1322,-2.1889,-2.247,-2.3059,-2.3623,-2.4208,-2.485,-2.5061,-2.5146,-2.5729,-2.5893,-2.5879,-2.5851,-2.5456,-2.5019,-2.499,-2.4089,-2.331,-2.364,-2.3259,-2.3138,-2.4507,-2.5619,-2.6334,-2.6334,-2.6364,-2.6402,-2.6356,-2.6334,-2.6327,-2.638,-2.6965,-2.7396,-2.7396,-2.7996,-2.8411,-2.8411,-2.8411,-2.8411,-2.8411,-2.8411,-2.8411,-2.8411,-2.8411,-2.8411,-2.8411,-2.8411,-2.8396,-2.842,-2.842,-2.8645,-2.9098,-2.9373,-2.9515,-2.9531,-2.9792,-2.9896,0.0,0.0,0.0,-1.6111,-1.6202,-1.6138,-1.6285,-1.6202,-1.598,-1.5596,-1.5092,-1.4502,-1.3692,-1.2422,-1.1468,-1.1336,-1.074,-1.0503,-1.1127,-1.1157,-1.1455,-1.2364,-1.2891,-1.3329,-1.3665,-1.4032,-1.4334,-1.457,-1.4781,-1.4926,-1.4975,-1.5129,-1.5156,-1.5059,-1.497,-1.4872,-1.4804,-1.4586,-1.4515,-1.4515,-1.4515,-1.4536,-1.4586,-1.4764,-1.5049,-1.5497,-1.6007,-1.6567,-1.7168,-1.7746,-1.8255,-1.8771,-1.9337,-1.9887,-2.035,-2.0545,-2.1264,-2.2214,-2.2416,-2.3148,-2.4108,-2.4793,-2.5005,-2.5118,-2.5729,-2.5893,-2.5809,-2.5442,-2.4894,-2.4317,-2.3884,-2.314,-2.2555,-2.2696,-2.2721,-2.2834,-2.3338,-2.4807,-2.5895,-2.5469,-2.5938,-2.6103,-2.521,-2.5041,-2.5004,-2.5056,-2.6026,-2.6734,-2.6696,-2.768,-2.8411,-2.8411,-2.8411,-2.8411,-2.8411,-2.8411,-2.8411,-2.8411,-2.8411,-2.8411,-2.8411,-2.8411,-2.8411,-2.8411,-2.8411,-2.8565,-2.8826,-2.8943,-2.9175,-2.9493,-2.9598,-2.9748,-1.5313,0.0,0.0,0.0,-1.6211,-1.6175,-1.645,-1.6413,-1.6276,-1.6138,-1.567,-1.5087,-1.4365,-1.3089,-1.2165,-1.211,-1.1515,-1.13,-1.2001,-1.1877,-1.2018,-1.2925,-1.3179,-1.3428,-1.3745,-1.4043,-1.4203,-1.4214,-1.4431,-1.4486,-1.4268,-1.4375,-1.4359,-1.4172,-1.424,-1.4261,-1.4291,-1.4219,-1.4297,-1.4515,-1.4515,-1.4515,-1.4515,-1.4515,-1.4704,-1.5098,-1.5098,-1.5555,-1.6368,-1.695,-1.7472,-1.8007,-1.8621,-1.9177,-1.9674,-1.9594,-2.0363,-2.143,-2.143,-2.2221,-2.3327,-2.3975,-2.4379,-2.4694,-2.5203,-2.5605,-2.5782,-2.5187,-2.4569,-2.3955,-2.3409,-2.273,-2.2208,-2.2208,-2.2379,-2.2526,-2.2526,-2.381,-2.4837,-2.438,-2.4866,-2.5052,-2.4119,-2.4051,-2.4094,-2.3988,-2.5157,-2.5966,-2.5817,-2.6926,-2.7811,-2.8042,-2.8057,-2.8165,-2.8381,-2.8411,-2.8411,-2.8411,-2.8411,-2.8411,-2.8411,-2.8411,-2.8411,-2.8411,-2.8411,-2.8468,-2.8605,-2.8443,-2.8551,-2.8878,-2.8834,-2.9048,0.0,0.0,0.0,0.0,-1.6001,-1.589,-1.6688,-1.6587,-1.6202,-1.579,-1.5689,-1.5441,-1.468,-1.3989,-1.3232,-1.2311,-1.215,-1.2225,-1.2496,-1.2546,-1.2721,-1.325,-1.3793,-1.4062,-1.3929,-1.4676,-1.4693,-1.3516,-1.4083,-1.3883,-1.2513,-1.2789,-1.2856,-1.2512,-1.2704,-1.3017,-1.3472,-1.3472,-1.3821,-1.4476,-1.4476,-1.4485,-1.4515,-1.4515,-1.4515,-1.4515,-1.4515,-1.5157,-1.6301,-1.6894,-1.723,-1.7435,-1.81,-1.8437,-1.8587,-1.8598,-1.923,-2.0094,-2.0106,-2.0817,-2.1812,-2.2402,-2.3135,-2.3829,-2.4163,-2.5006,-2.5729,-2.5146,-2.4556,-2.4002,-2.3628,-2.2877,-2.2184,-2.2208,-2.2208,-2.2208,-2.2208,-2.2746,-2.3275,-2.3275,-2.3312,-2.3312,-2.3297,-2.3581,-2.3674,-2.3363,-2.442,-2.5166,-2.4843,-2.5733,-2.6641,-2.7288,-2.7365,-2.7626,-2.8288,-2.835,-2.835,-2.8381,-2.8381,-2.8381,-2.8411,-2.8411,-2.8411,-2.8411,-2.8411,-2.8396,-2.8365,-2.7922,-2.7695,-2.7703,-2.7487,-2.789,-1.534,0.0,0.0,0.0,0.0,0.0,-1.5973,-1.6175,-1.6251,-1.6166,-1.567,-1.5285,-1.5349,-1.4738,-1.4133,-1.3868,-1.3193,-1.2882,-1.3435,-1.3267,-1.325,-1.3681,-1.3875,-1.4059,-1.4304,-1.456,-1.4608,-1.4352,-1.4079,-1.376,-1.3357,-1.289,-1.2604,-1.2512,-1.2543,-1.2634,-1.2787,-1.2787,-1.31,-1.3791,-1.3791,-1.404,-1.4515,-1.4515,-1.4515,-1.4515,-1.4515,-1.4675,-1.5049,-1.5661,-1.6169,-1.668,-1.7296,-1.7815,-1.8294,-1.8679,-1.9303,-2.0006,-2.0409,-2.1042,-2.1812,-2.2402,-2.2743,-2.3015,-2.3568,-2.4208,-2.4723,-2.4523,-2.3986,-2.3281,-2.249,-2.2104,-2.1973,-2.2161,-2.2208,-2.2208,-2.2208,-2.237,-2.2586,-2.2822,-2.3494,-2.3866,-2.3371,-2.3385,-2.3407,-2.3319,-2.4023,-2.462,-2.4776,-2.5478,-2.6138,-2.6565,-2.6657,-2.6734,-2.6934,-2.6919,-2.7095,-2.7642,-2.7673,-2.7888,-2.8381,-2.8411,-2.8411,-2.8411,-2.8411,-2.8165,-2.7673,-2.7543,-2.755,-2.7703,-2.7487,-2.7616,-1.5218,-1.5071,-1.4964,-1.5835,0.0,0.0,-1.5652,-1.5753,-1.5863,-1.6028,-1.568,-1.5368,-1.5432,-1.5065,-1.4708,-1.4543,-1.398,-1.3702,-1.409,-1.3947,-1.3892,-1.4121,-1.4197,-1.4289,-1.4488,-1.4625,-1.4586,-1.433,-1.3752,-1.3139,-1.252,-1.1996,-1.1725,-1.1725,-1.1725,-1.1841,-1.2089,-1.2089,-1.2551,-1.3511,-1.3511,-1.3851,-1.4515,-1.4515,-1.4515,-1.4515,-1.4515,-1.4515,-1.4545,-1.4882,-1.5517,-1.6358,-1.695,-1.7556,-1.8169,-1.8701,-1.9287,-1.9894,-2.0391,-2.0974,-2.1561,-2.1889,-2.2237,-2.2573,-2.2761,-2.3374,-2.3894,-2.3615,-2.3119,-2.2501,-2.18,-2.164,-2.1688,-2.1817,-2.1949,-2.1996,-2.1902,-2.1949,-2.2123,-2.2434,-2.2988,-2.3293,-2.2909,-2.2971,-2.2994,-2.2859,-2.3427,-2.3888,-2.3933,-2.4395,-2.5002,-2.5605,-2.5696,-2.5923,-2.6364,-2.6364,-2.6534,-2.6949,-2.7242,-2.758,-2.7965,-2.798,-2.8119,-2.8396,-2.8134,-2.7642,-2.698,-2.698,-2.677,-2.6424,-2.6398,-2.6675,-1.5024,-1.5109,-1.5258,-1.5661,-1.5496,0.0,-1.556,-1.5386,-1.5249,-1.556,-1.5588,-1.546,-1.5157,-1.5065,-1.4919,-1.457,-1.4552,-1.4579,-1.4579,-1.4543,-1.4533,-1.457,-1.4634,-1.4636,-1.4506,-1.4773,-1.4645,-1.392,-1.329,-1.2305,-1.087,-1.0649,-1.0593,-1.0593,-1.0593,-1.087,-1.1397,-1.1389,-1.2035,-1.329,-1.3351,-1.3731,-1.4387,-1.4476,-1.4515,-1.4515,-1.4515,-1.4515,-1.4515,-1.4515,-1.5216,-1.6358,-1.6894,-1.7501,-1.8169,-1.8644,-1.9149,-1.9666,-2.009,-2.0572,-2.104,-2.1086,-2.16,-2.2133,-2.1825,-2.2475,-2.3174,-2.256,-2.212,-2.1765,-2.145,-2.135,-2.135,-2.1399,-2.1592,-2.1688,-2.1447,-2.1592,-2.1817,-2.2067,-2.2114,-2.2114,-2.2114,-2.2365,-2.2457,-2.2161,-2.2678,-2.2979,-2.2694,-2.2957,-2.3548,-2.4544,-2.4626,-2.5039,-2.6036,-2.6104,-2.6135,-2.6212,-2.678,-2.7126,-2.7179,-2.7203,-2.7503,-2.8093,-2.748,-2.6872,-2.6272,-2.6272,-2.5704,-2.4609,-2.4831,-2.5401,-1.5893,-1.5803,-1.568,-1.6092,-1.6105,0.0,-1.5349,-1.5404,-1.5505,-1.5267,-1.4964,-1.4818,-1.5056,-1.4836,-1.4607,-1.4524,-1.4781,-1.4983,-1.4983,-1.4708,-1.4634,-1.4946,-1.4729,-1.4536,-1.4515,-1.4565,-1.4536,-1.4387,-1.326,-1.2027,-1.0713,-1.0624,-1.0593,-1.0593,-1.0593,-1.0649,-1.0776,-1.0776,-1.1146,-1.1919,-1.2428,-1.3039,-1.3722,-1.4258,-1.4515,-1.4515,-1.4515,-1.4515,-1.4515,-1.4515,-1.5216,-1.6301,-1.6415,-1.714,-1.8096,-1.8226,-1.8609,-1.9057,-1.9149,-1.9528,-2.0044,-2.0435,-2.0642,-2.0796,-2.0703,-2.1362,-2.2072,-2.1775,-2.1655,-2.1497,-2.1168,-2.1082,-2.1131,-2.135,-2.1447,-2.1471,-2.1423,-2.1447,-2.1496,-2.1544,-2.1568,-2.1568,-2.1568,-2.1602,-2.1626,-2.1568,-2.1674,-2.1921,-2.2328,-2.2443,-2.2775,-2.3504,-2.3585,-2.3776,-2.426,-2.4297,-2.4546,-2.5091,-2.5243,-2.5432,-2.5693,-2.5967,-2.6167,-2.6303,-2.59,-2.5656,-2.5496,-2.5496,-2.5188,-2.4609,-2.465,-2.4969,-1.5572,-1.5593,-1.5591,-1.58,-1.5798,0.0,0.0,-1.5102,-1.525,-1.5829,-1.5331,-1.5019,-1.5823,-1.5321,-1.4744,-1.4543,-1.468,-1.4873,-1.5074,-1.5102,-1.5166,-1.5368,-1.5221,-1.5102,-1.5102,-1.5102,-1.4732,-1.3881,-1.2985,-1.1927,-1.0688,-1.0593,-1.0593,-1.0593,-1.0593,-1.0593,-1.0593,-1.0593,-1.0902,-1.1514,-1.2182,-1.2848,-1.3511,-1.4198,-1.4515,-1.4515,-1.4515,-1.4515,-1.4515,-1.4515,-1.504,-1.5882,-1.6169,-1.6849,-1.7728,-1.8276,-1.8678,-1.8931,-1.9195,-1.947,-1.9734,-1.9975,-2.0056,-2.0056,-2.0056,-2.0511,-2.0976,-2.0896,-2.0952,-2.1066,-2.0902,-2.0848,-2.0873,-2.1008,-2.1131,-2.118,-2.1057,-2.1131,-2.118,-2.1057,-2.1033,-2.1131,-2.135,-2.1399,-2.1399,-2.1399,-2.1399,-2.1506,-2.1803,-2.1851,-2.2095,-2.2717,-2.2799,-2.3001,-2.3501,-2.3711,-2.3954,-2.4286,-2.4618,-2.4882,-2.5053,-2.5045,-2.5137,-2.5296,-2.5312,-2.5296,-2.5296,-2.4958,-2.4683,-2.4446,-2.4549,-2.4731,-1.5249,-1.5369,-1.554,-1.5387,-1.5291,-1.5204,0.0,0.0,0.0,-1.6193,-1.5823,-1.5475,-1.622,-1.569,-1.5055,-1.4731,-1.463,-1.4765,-1.5201,-1.5536,-1.5689,-1.5689,-1.5615,-1.5606,-1.568,-1.5615,-1.4918,-1.3332,-1.275,-1.1987,-1.0811,-1.0653,-1.062,-1.0673,-1.062,-1.0593,-1.0593,-1.0593,-1.0839,-1.1327,-1.1996,-1.2673,-1.3321,-1.401,-1.4387,-1.4515,-1.4515,-1.4515,-1.4515,-1.4515,-1.4793,-1.5303,-1.5882,-1.6557,-1.7301,-1.8227,-1.8651,-1.8804,-1.9241,-1.939,-1.9413,-1.9505,-1.9539,-1.9569,-1.9656,-1.9788,-1.9963,-2.0114,-2.0345,-2.0599,-2.0687,-2.0699,-2.0699,-2.0699,-2.0823,-2.0898,-2.0724,-2.0823,-2.0898,-2.0724,-2.0699,-2.0823,-2.1204,-2.1277,-2.1277,-2.1277,-2.1277,-2.1277,-2.1326,-2.1326,-2.153,-2.2072,-2.2142,-2.2397,-2.3061,-2.337,-2.353,-2.3573,-2.4103,-2.438,-2.4313,-2.4193,-2.426,-2.4602,-2.4946,-2.5096,-2.5118,-2.4543,-2.4302,-2.4302,-2.4467,-2.4569,-1.6122,-1.6174,-1.6049,-1.539,-1.5477,-1.5546,-1.4881,0.0,-1.5203,-1.5199,0.0,-1.5586,-1.4904,0.0,0.0,-1.5303,-1.5153,-1.5223,-1.5832,-1.577,-1.5689,-1.5689,-1.5377,-1.5304,-1.5661,-1.5377,-1.4718,-1.3637,-1.2893,-1.2153,-1.1364,-1.0868,-1.0713,-1.0935,-1.0727,-1.0593,-1.0593,-1.0593,-1.0618,-1.0713,-1.1327,-1.1965,-1.2634,-1.3321,-1.3941,-1.4515,-1.4515,-1.4515,-1.4515,-1.4515,-1.4536,-1.4654,-1.5274,-1.6197,-1.7202,-1.7351,-1.7729,-1.8215,-1.8272,-1.8295,-1.8364,-1.8839,-1.8977,-1.9062,-1.9418,-1.9258,-1.9122,-1.9821,-2.0042,-2.0182,-2.0599,-2.0699,-2.0699,-2.0699,-2.0724,-2.0724,-2.0699,-2.0724,-2.0724,-2.0699,-2.0699,-2.0724,-2.0774,-2.0774,-2.0774,-2.0774,-2.0774,-2.0848,-2.1008,-2.1033,-2.1155,-2.1458,-2.1506,-2.1756,-2.236,-2.2452,-2.2581,-2.2807,-2.2902,-2.2809,-2.2516,-2.3088,-2.3577,-2.3902,-2.4242,-2.4425,-2.4425,-2.4348,-2.4302,-2.4302,-2.4323,-2.4426,-1.6,-1.5904,-1.5763,-1.5447,-1.5239,-1.5101,-1.5059,-1.5014,-1.5196,-1.6049,0.0,0.0,0.0,0.0,0.0,0.0,-1.584,-1.5871,-1.6135,-1.6118,-1.6036,-1.6062,-1.5689,-1.5606,-1.601,-1.568,-1.5018,-1.4016,-1.3219,-1.2394,-1.1437,-1.1196,-1.1122,-1.1243,-1.1129,-1.0982,-1.0847,-1.0847,-1.076,-1.0624,-1.1209,-1.1849,-1.2512,-1.3191,-1.3881,-1.4515,-1.4515,-1.4515,-1.4515,-1.4515,-1.4515,-1.4565,-1.5157,-1.5911,-1.6754,-1.7473,-1.7881,-1.8084,-1.8084,-1.8084,-1.8157,-1.8364,-1.8432,-1.8488,-1.8642,-1.8748,-1.8919,-1.9486,-1.9824,-2.0105,-2.0574,-2.0699,-2.0699,-2.0699,-2.0699,-2.0699,-2.0699,-2.0699,-2.0699,-2.0699,-2.0699,-2.0699,-2.0699,-2.0699,-2.0699,-2.0699,-2.0699,-2.0724,-2.0823,-2.0823,-2.0923,-2.1131,-2.118,-2.1313,-2.1732,-2.1992,-2.2226,-2.2443,-2.2603,-2.264,-2.2503,-2.2777,-2.3024,-2.3157,-2.3717,-2.4009,-2.4009,-2.4198,-2.4302,-2.4302,-2.4302,-2.4343,-1.5771,-1.5627,-1.541,-1.5306,-1.4952,-1.4693,-1.4925,-1.4861,-1.5116,-1.6434,-1.6222,0.0,0.0,0.0,-1.6208,-1.6397,0.0,-1.6358,-1.6528,-1.6386,-1.6285,-1.6233,-1.5905,-1.5808,-1.6111,-1.5771,-1.5248,-1.4542,-1.377,-1.2916,-1.2019,-1.182,-1.1669,-1.1543,-1.147,-1.1323,-1.1109,-1.0969,-1.0817,-1.0643,-1.1126,-1.1756,-1.2481,-1.3139,-1.3821,-1.4515,-1.4515,-1.4515,-1.4515,-1.4515,-1.4595,-1.4823,-1.541,-1.6026,-1.6641,-1.7529,-1.7963,-1.8084,-1.8084,-1.8084,-1.8084,-1.8084,-1.8084,-1.8084,-1.8084,-1.8329,-1.8691,-1.9105,-1.946,-1.9773,-2.0233,-2.0423,-2.0511,-2.0511,-2.0599,-2.0699,-2.0699,-2.0699,-2.0699,-2.0699,-2.0699,-2.0699,-2.0699,-2.0699,-2.0699,-2.0699,-2.0699,-2.0699,-2.0699,-2.0699,-2.0749,-2.0898,-2.0923,-2.1008,-2.1277,-2.1568,-2.1864,-2.2142,-2.2365,-2.2526,-2.2694,-2.2694,-2.2754,-2.2867,-2.348,-2.3797,-2.3797,-2.4135,-2.4302,-2.4302,-2.4302,-2.4302,-1.5694,-1.5514,-1.5137,-1.4819,-1.4717,-1.4631,-1.4296,-1.4586,-1.503,-1.5546,-1.6247,-1.6581,-1.6038,-1.6389,-1.6765,-1.6765,-1.651,0.0,0.0,-1.6669,-1.6228,-1.6025,-1.582,-1.5698,-1.5707,-1.5349,-1.5123,-1.5155,-1.4495,-1.3884,-1.3454,-1.2875,-1.2342,-1.1879,-1.1577,-1.1389,-1.1375,-1.0929,-1.0718,-1.0712,-1.0905,-1.1476,-1.2328,-1.2986,-1.3731,-1.4515,-1.4515,-1.4515,-1.4515,-1.4515,-1.4852,-1.5439,-1.6026,-1.6641,-1.7174,-1.7202,-1.7611,-1.8084,-1.8084,-1.8084,-1.8084,-1.8084,-1.8084,-1.8084,-1.8084,-1.8111,-1.822,-1.8691,-1.8825,-1.8931,-1.9342,-1.9734,-2.0016,-2.0016,-2.0372,-2.0699,-2.0699,-2.0699,-2.0699,-2.0699,-2.0699,-2.0699,-2.0699,-2.0699,-2.0699,-2.0699,-2.0699,-2.0699,-2.0699,-2.0699,-2.0699,-2.0699,-2.0699,-2.0799,-2.0997,-2.1008,-2.1253,-2.1769,-2.1817,-2.21,-2.2686,-2.2694,-2.2889,-2.3275,-2.361,-2.3797,-2.3797,-2.4135,-2.4302,-2.4302,-2.4302,-2.4302,-1.5026,-1.4778,-1.4512,-1.4649,-1.429,-1.4029,-1.4483,-1.4761,-1.504,-1.5565,-1.6134,-1.6534,-1.6495,-1.6655,-1.6937,-1.7329,-1.7301,-1.7357,0.0,-1.7268,-1.6864,-1.6795,-1.6495,-1.6183,-1.5918,-1.5414,-1.5146,-1.5188,-1.4726,-1.438,-1.424,-1.3572,-1.3113,-1.2978,-1.2195,-1.1696,-1.1548,-1.1233,-1.1131,-1.1146,-1.124,-1.1799,-1.2765,-1.3009,-1.348,-1.4169,-1.4297,-1.4366,-1.4357,-1.4455,-1.4852,-1.5468,-1.6054,-1.6669,-1.7257,-1.7639,-1.7909,-1.8084,-1.8084,-1.8084,-1.8084,-1.8084,-1.8084,-1.8084,-1.8084,-1.8084,-1.8193,-1.8664,-1.8798,-1.8905,-1.9289,-1.9486,-1.9617,-1.9617,-1.972,-1.9901,-2.0195,-2.0245,-2.0321,-2.0649,-2.0699,-2.0699,-2.0699,-2.0699,-2.0699,-2.0699,-2.0699,-2.0699,-2.0699,-2.0699,-2.0699,-2.0699,-2.0699,-2.0724,-2.0799,-2.0923,-2.118,-2.164,-2.1746,-2.1992,-2.242,-2.2388,-2.2426,-2.2563,-2.315,-2.3473,-2.3473,-2.403,-2.4302,-2.4302,-2.4302,-2.4302,-1.4649,-1.4393,-1.4153,-1.441,-1.4093,-1.3834,-1.4246,-1.4511,-1.4775,-1.5254,-1.5759,-1.6163,-1.6285,-1.6581,-1.6864,-1.7078,-1.7451,-1.7794,0.0,-1.776,-1.7518,-1.7518,-1.6917,-1.6305,-1.584,-1.544,-1.5234,-1.5382,-1.514,-1.4983,-1.4925,-1.4207,-1.3637,-1.3288,-1.2372,-1.1808,-1.1627,-1.1631,-1.1582,-1.1469,-1.1844,-1.2324,-1.2948,-1.3169,-1.3541,-1.401,-1.4139,-1.4207,-1.4228,-1.4586,-1.5098,-1.5709,-1.6358,-1.6989,-1.7556,-1.7963,-1.8084,-1.8084,-1.8084,-1.8084,-1.8084,-1.8084,-1.8084,-1.8084,-1.8084,-1.8084,-1.8166,-1.8476,-1.8556,-1.861,-1.8866,-1.9052,-1.9196,-1.9196,-1.942,-1.9682,-1.994,-2.0131,-2.0346,-2.0649,-2.0844,-2.0988,-2.0988,-2.1145,-2.1171,-2.0764,-2.0699,-2.0699,-2.0699,-2.0699,-2.0699,-2.0699,-2.0699,-2.0699,-2.0699,-2.0823,-2.1033,-2.1375,-2.1471,-2.1756,-2.2267,-2.2133,-2.2147,-2.2379,-2.2836,-2.3083,-2.3083,-2.3782,-2.4114,-2.4135,-2.424,-2.4302]}]]